GFSSW_250_spd_003.txt.gz
Wind_Speed
27 24 22 18 16 15 11 9 8 7 5 7 11 14 16 19 22 24 24 25 28 30 32 36 41 38 33 25 16 5 9 6 2 4 6 8 9 9 9 10 8 8 7 7 8
33 30 27 26 21 19 17 14 12 10 9 6 8 12 14 15 19 22 23 23 25 27 28 31 35 38 36 30 24 15 7 8 6 5 6 10 10 10 9 8 6 4 2 2 2
38 37 34 31 29 25 22 19 17 15 13 10 7 10 11 13 15 19 22 21 22 24 26 27 31 35 35 34 29 23 12 6 6 6 8 8 9 8 8 5 5 3 1 1 1
46 43 40 36 34 30 28 24 22 21 17 15 12 10 10 11 13 16 20 20 19 20 22 25 26 32 35 36 33 26 22 13 4 3 4 3 4 5 6 4 0 2 3 4 5
44 46 47 45 40 36 33 30 26 27 24 18 17 13 12 12 12 14 18 20 18 17 20 23 24 28 32 35 35 32 26 22 13 6 3 2 5 4 3 3 3 5 8 9 9
46 46 45 45 45 42 39 36 34 32 29 24 21 18 15 15 13 13 15 18 20 16 16 19 21 23 28 33 34 34 32 27 24 16 8 4 3 7 7 7 6 6 7 7 8
50 48 46 46 45 46 46 42 39 38 34 31 27 24 20 18 16 15 15 17 19 17 14 16 17 18 23 29 32 33 33 30 23 21 18 15 8 3 4 5 6 8 9 9 7
56 54 51 50 47 46 47 48 45 43 40 36 33 30 26 21 19 18 17 17 18 19 16 13 16 15 18 23 28 30 31 31 26 23 17 17 22 11 5 4 2 2 3 4 6
62 60 58 55 53 50 47 49 50 48 45 41 37 34 30 26 22 20 19 18 18 19 18 14 12 13 14 17 22 25 27 28 28 24 16 3 7 9 8 6 5 5 5 7 7
67 65 63 61 58 55 52 50 50 52 49 47 44 40 34 31 28 24 21 20 19 22 20 18 13 11 11 13 16 20 23 23 24 24 22 13 12 11 11 9 7 5 6 7 8
71 69 68 66 63 61 57 54 52 50 53 50 49 47 46 41 36 30 25 23 20 22 21 21 17 13 11 10 11 14 17 19 20 20 19 19 19 18 16 14 14 12 13 15 16
70 72 71 70 68 65 62 60 57 53 53 53 52 52 50 46 42 37 32 27 24 23 24 22 21 16 13 10 9 10 12 13 15 16 15 14 14 15 14 15 17 18 18 19 19
70 71 72 71 72 70 67 64 62 59 55 55 55 54 54 48 44 40 36 34 28 26 26 24 23 20 17 14 11 9 10 11 11 13 13 12 13 12 11 12 15 17 16 14 17
75 74 71 73 73 75 72 67 64 62 61 58 58 57 56 55 48 46 41 38 34 31 29 28 25 25 21 19 16 13 11 10 12 11 12 13 13 14 14 14 16 18 19 18 18
78 77 76 74 72 75 75 73 70 66 64 64 62 58 57 57 56 52 47 44 39 37 34 31 29 28 25 22 21 19 16 14 11 13 12 14 12 16 17 20 20 22 23 24 23
83 82 78 75 76 72 72 76 76 73 73 65 61 62 59 59 58 56 50 47 42 42 40 36 33 31 29 26 25 24 22 21 19 16 15 16 17 15 19 18 19 21 24 27 28
87 86 84 82 78 78 75 74 76 76 78 72 67 66 63 61 61 58 56 52 49 47 46 41 38 36 34 30 29 28 27 25 26 24 21 21 19 19 20 23 23 22 24 26 28
88 88 88 86 84 82 79 78 72 74 80 78 76 73 68 65 62 61 60 57 52 50 47 46 44 41 39 36 34 32 31 31 31 31 27 27 26 21 23 25 26 28 28 28 29
90 90 89 85 86 86 84 78 74 75 80 80 80 78 75 70 66 64 60 60 58 54 51 51 50 46 45 41 39 38 35 34 33 34 33 32 33 27 29 28 29 31 31 32 32
89 93 91 88 87 85 84 80 80 84 77 74 81 81 79 75 70 67 63 63 61 59 56 52 56 51 51 46 44 42 42 40 38 37 37 37 38 34 34 32 32 33 34 36 36
87 89 92 90 88 86 82 83 84 85 76 74 81 86 84 81 76 70 67 68 66 64 62 59 59 57 55 50 50 47 44 45 44 42 42 42 42 39 39 39 37 37 39 40 41
86 87 90 89 90 89 88 89 86 84 83 79 81 84 87 86 82 78 74 72 70 68 65 65 64 62 56 56 52 50 51 49 48 48 48 47 49 41 44 43 42 42 43 45 46
84 81 89 85 85 89 91 91 89 86 84 85 80 83 86 89 85 83 80 78 74 72 71 68 65 63 58 59 57 59 55 53 50 51 49 51 54 48 48 46 45 46 46 49 49
79 80 82 79 83 84 89 92 91 92 87 85 85 82 82 88 89 87 85 86 79 74 74 72 67 62 62 62 64 62 59 57 56 54 54 53 57 51 52 50 49 50 50 50 52
73 74 74 77 76 78 83 88 92 92 90 86 89 88 89 90 95 92 89 92 83 78 77 75 71 67 65 66 67 65 63 62 60 60 58 59 59 55 56 54 54 54 53 53 56
71 71 70 69 69 73 79 85 87 90 90 87 88 92 91 93 94 95 97 96 87 83 82 79 73 73 69 70 69 68 65 65 65 64 64 63 61 60 59 60 58 58 56 57 59
72 72 70 65 66 68 71 78 84 84 83 87 83 85 88 94 93 94 97 95 91 85 83 79 77 76 74 74 75 69 67 67 68 68 68 66 64 62 63 62 62 62 60 61 64

GFSSW_250_spd_006.txt.gz
Wind_Speed
26 22 20 19 16 14 12 12 9 10 10 9 11 14 17 19 22 25 26 26 27 29 31 34 36 30 22 13 10 15 10 9 4 4 10 5 4 7 6 8 12 15 12 12 13
31 30 28 25 22 19 18 16 14 12 11 12 10 12 14 16 18 21 24 24 25 27 29 31 35 34 29 22 17 3 9 11 8 5 10 6 6 6 4 5 6 6 5 4 4
38 35 33 31 28 26 23 20 19 16 13 13 13 13 13 13 15 17 21 24 22 25 27 27 32 34 33 28 23 20 6 8 12 11 8 14 7 10 3 4 5 4 3 2 2
45 43 39 37 35 31 28 25 24 22 18 15 15 15 15 14 14 15 17 21 22 21 24 24 27 31 33 30 27 25 18 9 9 11 13 10 9 8 21 2 2 1 2 3 6
43 45 45 43 39 37 34 31 28 27 24 19 19 17 17 17 16 15 15 18 21 21 20 22 23 27 29 29 29 26 27 22 15 10 7 9 9 12 15 13 7 6 6 7 9
46 44 44 45 45 44 40 36 34 31 30 26 22 20 19 19 18 16 16 15 18 21 19 19 19 22 25 27 29 30 25 26 25 21 17 13 6 6 10 12 9 8 6 8 10
52 50 47 46 46 46 45 43 41 37 35 33 28 25 23 21 20 18 17 16 15 17 21 17 18 18 21 25 28 28 30 25 17 19 17 24 17 12 6 5 6 6 6 7 7
59 56 53 51 48 48 47 44 46 44 41 39 35 30 28 25 24 22 19 18 15 15 17 19 17 17 16 21 24 27 28 29 24 18 18 19 17 17 14 11 9 9 8 9 8
65 63 59 56 52 51 50 48 46 49 48 44 41 38 33 30 26 25 21 19 18 17 16 18 17 15 13 15 18 21 23 24 24 24 23 16 17 16 13 13 11 10 9 9 10
72 69 66 63 59 56 54 52 50 47 49 48 47 45 39 32 30 27 24 22 20 20 17 17 17 15 13 10 12 15 19 20 19 18 16 19 22 20 19 17 16 15 15 13 14
73 75 73 69 66 63 60 58 55 50 47 49 48 49 46 40 38 34 28 26 26 23 21 18 18 16 14 11 9 9 12 13 15 15 15 15 16 16 16 17 17 16 15 15 15
73 72 77 76 73 69 66 63 59 56 54 51 50 49 50 46 45 41 38 36 33 30 25 21 21 19 17 15 10 9 9 9 11 12 12 14 13 12 12 11 14 15 13 13 15
79 75 73 78 79 75 72 69 65 62 60 54 54 50 51 51 49 45 44 43 39 34 30 25 24 22 20 18 15 11 10 8 8 10 11 12 10 13 14 13 14 15 15 14 16
80 80 77 74 76 80 78 74 71 66 64 62 57 56 52 54 51 50 49 45 41 39 34 30 27 26 24 22 20 16 13 11 9 9 11 9 12 9 9 12 14 15 16 15 14
84 82 79 79 75 75 79 81 77 71 67 70 66 63 59 53 56 53 52 48 47 46 38 36 32 30 29 26 23 21 18 16 14 12 12 12 9 14 14 14 16 15 17 18 19
89 87 82 81 80 76 76 78 78 76 75 72 68 63 61 59 55 54 51 50 50 45 42 38 38 37 35 32 29 26 23 22 20 19 16 16 18 11 15 17 19 21 16 26 26
93 91 89 84 81 81 78 77 78 76 79 78 70 68 64 62 61 59 54 51 51 51 49 47 44 42 39 38 35 32 29 27 25 24 24 21 22 20 19 18 20 15 25 26 28
98 95 94 89 85 84 82 77 75 73 79 79 77 75 71 69 65 61 59 56 54 53 52 49 45 44 44 43 40 38 36 34 32 28 28 26 27 27 23 20 21 22 22 29 32
98 98 98 94 91 88 85 78 76 77 77 81 83 78 78 74 72 69 63 61 59 57 56 54 51 49 45 47 45 45 42 40 37 36 35 32 31 32 30 29 27 27 30 27 34
98 98 102 97 95 92 86 83 83 82 84 85 78 77 81 79 79 73 70 67 63 60 60 58 56 51 49 48 47 50 49 47 44 42 41 42 41 34 29 35 33 33 33 34 32
88 97 100 99 97 93 89 92 92 91 89 82 78 77 76 80 81 79 73 73 71 67 65 63 60 55 54 49 51 53 53 53 50 48 46 49 46 41 38 39 39 37 36 37 39
77 92 97 99 96 96 94 97 97 96 92 88 85 81 79 76 80 81 79 76 76 75 71 68 65 62 55 54 58 55 55 55 56 54 53 52 57 45 46 46 45 45 45 45 44
66 81 89 100 95 95 99 97 96 97 95 90 88 87 83 80 78 78 80 83 81 81 77 74 70 67 64 58 58 59 57 57 59 60 57 56 60 53 51 49 46 48 49 48 50
61 72 83 96 95 95 97 99 97 96 96 92 89 89 89 87 84 80 79 82 87 84 83 82 76 69 66 65 63 62 64 61 61 59 59 59 65 55 59 53 51 56 52 54 50
62 71 76 84 92 96 96 96 99 99 95 94 90 89 87 87 88 84 82 82 84 91 88 87 80 76 70 69 68 67 63 63 62 61 62 61 61 62 65 55 53 58 61 58 57
60 64 69 80 84 86 88 91 90 92 94 95 93 93 91 88 90 91 87 85 86 86 90 88 83 78 76 77 74 71 68 65 64 64 63 64 66 67 68 59 56 62 65 64 61
61 64 71 76 80 84 88 91 93 91 92 89 97 93 95 99 89 89 90 92 86 86 84 85 85 85 82 79 78 77 68 70 72 70 67 66 69 75 67 62 61 64 69 67 66

GFSSW_250_spd_009.txt.gz
Wind_Speed
24 20 20 19 16 13 10 8 7 9 10 11 12 13 16 19 22 25 28 27 29 30 32 34 31 23 14 9 10 9 6 6 13 7 5 5 2 5 7 8 9 13 16 19 22
30 27 25 22 22 20 18 13 11 10 11 10 11 13 12 15 18 21 25 26 26 28 30 32 33 30 20 16 8 2 11 10 8 8 6 4 8 6 1 3 4 3 5 4 6
35 34 31 31 28 26 24 22 18 14 12 12 11 12 12 12 15 18 20 24 25 25 27 29 33 32 29 21 10 2 10 16 12 10 10 8 7 6 5 3 5 3 4 4 3
40 39 37 35 34 32 29 27 25 21 18 14 15 12 13 13 12 15 17 19 22 23 24 26 28 31 29 26 20 18 11 10 16 11 11 12 6 2 10 3 6 1 4 3 4
40 39 38 39 38 37 35 33 29 28 24 20 17 17 15 14 13 12 15 17 18 21 22 24 24 27 30 28 23 26 17 14 12 10 4 5 5 7 12 10 10 9 9 8 6
45 43 41 40 40 40 39 38 35 32 29 26 22 20 18 17 16 13 12 15 16 16 19 20 21 22 26 26 27 26 28 29 29 27 19 6 4 4 5 8 9 9 10 9 8
51 48 47 44 42 42 43 42 42 38 34 32 29 26 22 22 20 19 14 14 15 14 15 18 18 17 21 20 21 27 25 25 24 21 18 16 14 11 8 6 5 5 5 6 7
62 58 54 50 49 45 45 44 45 44 43 39 36 33 29 26 24 21 19 16 14 13 12 14 16 15 14 15 17 19 21 23 25 24 20 16 16 15 12 12 10 11 14 13 12
69 67 63 59 55 52 49 48 47 46 46 44 42 40 35 32 31 25 23 19 16 15 13 12 13 13 12 11 12 15 17 19 20 20 24 22 22 21 19 19 17 16 17 17 16
75 73 71 67 63 59 56 54 51 49 46 46 47 46 43 36 35 33 28 24 20 17 17 14 13 12 11 10 9 10 12 14 18 17 17 19 20 21 21 19 18 17 17 18 18
77 77 76 74 71 67 63 60 56 52 50 50 49 49 48 43 42 38 35 30 25 23 19 20 17 15 13 11 9 7 8 9 12 12 12 12 11 13 16 14 15 14 13 13 14
83 81 77 77 78 75 72 67 63 60 56 52 51 49 48 48 47 44 41 36 34 30 28 27 23 19 16 14 11 9 7 5 5 7 8 10 10 4 10 15 11 11 12 12 13
83 86 84 79 78 80 79 73 69 66 60 58 56 53 51 49 49 48 47 44 40 36 35 34 28 25 21 18 16 13 10 7 6 3 7 8 7 8 6 7 9 12 12 13 15
86 86 86 86 82 80 78 79 77 70 65 68 60 59 55 53 52 49 50 48 45 42 39 37 31 27 25 23 22 20 15 13 10 8 7 3 8 4 2 5 4 9 9 10 12
89 88 87 86 87 86 77 77 79 76 71 74 66 67 61 58 59 55 52 51 51 49 42 44 35 29 28 28 26 26 22 18 16 13 13 10 7 10 9 8 7 8 11 8 16
82 89 91 86 89 86 83 81 76 75 77 77 72 69 65 62 61 60 55 51 52 49 46 44 41 34 36 33 31 30 29 26 22 20 19 15 15 13 15 17 14 12 12 15 19
67 81 89 91 93 86 88 84 76 72 77 77 75 74 71 68 67 64 61 55 50 47 46 48 46 44 42 37 34 34 34 32 31 27 24 22 21 15 18 19 20 20 18 18 19
56 67 80 92 93 89 89 84 75 78 79 79 76 79 77 73 71 69 65 61 57 51 50 48 45 46 46 44 41 36 37 37 38 34 32 30 26 26 23 22 23 25 25 25 23
56 52 72 87 89 92 90 82 77 83 85 85 83 82 80 78 76 74 68 63 60 56 54 54 52 51 48 48 45 40 39 45 41 39 38 36 34 33 31 26 27 29 29 31 33
62 59 62 79 83 91 91 83 85 88 92 89 83 79 79 80 79 77 73 68 65 60 59 58 58 55 53 52 47 42 46 44 45 47 45 44 37 35 35 33 39 36 34 34 34
67 62 57 65 80 86 88 91 92 96 94 88 81 81 78 79 80 81 75 73 72 68 68 65 63 61 59 54 52 48 48 46 48 49 49 51 43 41 40 37 40 45 45 41 37
64 62 52 54 69 78 89 96 99 97 97 87 86 83 83 81 79 80 78 73 75 76 75 70 70 71 62 58 58 54 50 51 51 51 52 53 49 46 46 44 41 41 45 55 51
59 63 53 53 60 73 85 98 99 100 94 94 91 88 87 81 78 76 75 76 77 78 78 78 77 74 70 65 61 59 57 55 52 58 54 57 57 52 49 48 49 46 47 50 54
57 60 54 47 53 68 82 95 99 100 97 95 93 94 92 86 82 79 77 75 72 74 78 83 81 79 73 70 67 65 64 61 58 60 59 61 63 54 54 52 54 49 50 50 54
60 59 51 49 55 60 76 88 98 97 98 98 97 92 94 90 89 86 84 81 75 73 73 79 78 77 76 77 74 72 67 66 63 60 62 65 67 59 60 59 57 55 54 54 59
65 61 51 54 55 60 71 84 89 96 94 93 95 97 96 99 95 91 86 83 81 80 79 81 79 76 75 78 80 78 72 67 67 64 66 70 73 63 65 61 59 57 58 57 60
65 64 55 57 56 62 72 84 91 97 94 96 95 92 100 99 98 91 90 88 85 87 82 83 82 79 77 75 79 77 73 74 72 72 71 73 75 72 66 66 61 60 62 60 63

GFSSW_250_spd_012.txt.gz
Wind_Speed
23 21 20 18 15 12 9 8 6 5 9 9 11 14 16 19 23 26 28 29 31 32 33 33 28 20 16 12 6 4 3 4 5 6 9 10 10 10 7 11 19 21 23 22 20
29 26 24 22 21 19 17 14 10 8 8 10 7 10 13 15 18 22 24 26 27 29 31 32 31 25 18 19 5 11 13 5 5 1 4 5 9 9 7 2 3 3 3 5 9
35 33 31 29 26 24 22 21 18 15 11 10 11 7 10 13 15 18 21 22 24 26 29 29 31 31 26 25 13 7 7 12 6 10 8 10 11 15 10 1 3 2 0 2 2
44 41 38 35 34 31 29 26 25 22 18 15 14 13 9 12 12 14 17 18 20 21 23 26 28 30 33 32 22 7 8 14 13 13 9 11 3 5 6 6 4 3 2 4 6
40 40 40 39 39 39 35 32 31 28 25 22 19 17 14 12 11 11 13 17 17 18 19 21 23 25 32 28 25 16 9 14 11 12 11 6 5 4 9 6 10 5 4 6 9
46 45 43 40 39 40 40 38 36 34 31 28 25 23 19 16 14 12 12 14 16 15 15 17 19 21 20 27 23 17 12 15 9 6 6 5 7 7 5 4 2 3 6 6 5
54 51 48 47 45 43 42 41 40 39 37 33 32 28 24 23 18 18 14 13 13 13 14 14 16 17 18 18 24 23 21 15 12 14 15 13 11 9 13 12 12 10 8 6 7
62 61 57 53 49 45 44 44 42 42 40 40 38 34 30 28 26 21 19 16 13 12 11 11 12 14 14 15 19 16 16 18 17 16 14 14 16 14 14 16 15 13 13 12 12
68 66 66 62 58 54 50 48 46 44 42 42 44 41 38 36 31 28 25 24 19 14 11 11 10 11 13 13 13 12 13 13 14 18 21 23 23 22 20 20 20 18 17 17 17
74 73 71 69 68 65 61 57 51 48 45 45 47 47 46 41 37 35 31 29 27 19 17 14 12 9 9 9 11 9 8 9 10 13 16 17 17 17 17 16 16 15 13 14 14
81 80 77 75 74 75 70 65 59 55 50 52 50 49 45 45 44 42 38 36 30 28 23 19 16 13 9 8 9 9 8 4 5 6 9 9 7 10 14 13 13 11 12 12 12
86 86 85 84 81 80 77 74 67 60 61 59 57 55 51 50 46 45 44 42 38 37 28 28 24 20 15 13 9 10 9 9 4 3 3 4 1 6 4 11 9 7 9 9 9
89 89 88 87 85 87 83 78 75 68 67 66 63 59 56 51 52 48 47 49 46 42 36 35 32 28 23 20 15 11 9 9 11 6 6 2 4 6 4 4 2 4 5 5 7
81 86 91 91 90 89 86 84 80 77 72 75 68 67 60 60 55 53 50 49 48 47 44 42 35 34 31 25 22 18 14 12 11 11 11 8 6 5 2 2 3 2 7 7 9
61 76 84 90 92 90 90 87 85 78 76 78 73 71 67 62 66 60 57 52 50 50 47 48 42 41 36 31 26 25 21 17 15 17 13 10 11 11 7 7 10 11 10 13 15
50 53 67 76 88 90 92 92 87 83 80 77 79 76 72 69 67 67 62 57 57 54 47 52 48 43 42 36 34 33 27 26 21 20 22 14 14 12 13 13 11 15 15 17 16
56 49 55 64 79 81 89 92 90 80 86 82 82 81 77 75 73 70 66 61 56 52 46 50 46 45 47 44 41 38 34 33 29 28 25 20 18 20 16 17 14 16 17 21 21
62 56 58 58 53 65 80 84 87 82 88 89 88 83 78 77 77 75 72 66 62 58 56 55 50 47 49 48 47 46 43 36 36 33 32 26 25 26 22 23 19 23 24 23 25
57 59 66 58 49 46 69 77 78 89 94 92 90 85 83 81 79 79 75 70 68 62 58 55 51 52 51 51 49 48 43 45 44 38 35 33 32 30 28 27 27 31 31 28 30
54 56 65 62 55 44 51 64 74 92 98 94 91 87 86 82 81 79 78 75 72 68 64 62 61 61 59 56 52 48 47 47 45 43 41 40 36 34 33 34 33 36 35 31 31
56 58 56 64 61 49 40 49 70 86 100 96 92 91 89 88 84 82 78 78 79 74 71 69 65 64 65 57 56 53 49 49 50 47 45 46 42 40 38 40 37 37 40 39 34
65 64 61 60 61 55 45 47 65 78 94 96 95 90 89 90 87 84 80 76 79 78 74 73 72 72 61 61 61 58 55 52 52 49 48 47 47 46 43 42 40 40 41 45 45
67 71 59 64 61 57 53 50 56 74 87 95 96 92 91 91 90 84 81 78 80 82 75 79 73 76 72 67 65 62 59 56 57 55 50 53 50 51 45 45 44 45 47 48 49
69 72 62 54 64 57 56 53 56 64 83 92 96 98 97 92 92 86 84 81 77 76 77 84 78 79 73 69 70 70 67 64 63 61 62 60 58 54 49 46 50 48 46 48 45
65 63 65 56 60 62 59 54 58 62 78 92 98 103 102 97 95 90 87 82 77 76 79 81 77 79 75 75 76 73 73 71 68 66 67 68 65 58 54 52 51 51 50 51 50
70 73 68 59 61 62 62 57 54 61 77 90 98 100 100 99 97 92 86 83 80 79 79 79 74 74 75 77 77 75 74 72 72 73 71 70 69 65 61 58 58 54 52 54 58
75 73 71 68 60 61 66 59 57 57 73 87 92 102 103 100 98 92 88 85 84 81 79 78 72 73 70 69 71 72 67 70 72 71 73 71 70 70 66 66 64 60 59 61 60

GFSSW_250_spd_015.txt.gz
Wind_Speed
24 23 21 19 17 14 12 11 9 8 10 11 10 12 13 16 20 24 26 27 28 30 32 33 27 16 13 4 18 14 9 5 4 4 8 14 15 15 18 31 34 28 21 25 27
29 27 27 25 23 21 20 17 14 11 10 11 12 11 11 12 15 18 22 24 25 27 29 33 32 23 21 9 3 10 10 3 4 3 6 8 6 7 11 10 8 10 11 7 5
38 36 34 30 28 26 24 22 21 19 15 13 13 13 11 9 11 13 16 20 23 23 26 28 31 26 30 23 11 2 4 9 3 2 3 8 7 9 10 7 3 1 0 1 2
45 43 41 37 35 32 31 28 26 25 23 20 17 16 16 12 8 10 11 16 19 20 22 24 27 28 31 27 26 18 10 3 3 5 2 5 3 4 3 5 5 1 3 2 2
46 45 44 45 43 40 37 35 33 31 29 26 23 21 19 18 13 9 9 11 14 16 18 20 22 25 25 27 28 27 15 3 2 7 7 4 6 5 2 6 6 7 8 7 5
47 46 44 43 41 42 43 41 38 37 33 32 29 25 22 22 20 15 11 10 10 12 14 15 18 20 22 25 28 26 18 8 4 7 10 9 7 6 7 7 6 5 4 5 5
54 53 51 48 46 43 42 40 40 42 39 38 36 32 28 29 26 22 18 10 10 8 10 11 12 16 17 20 22 25 19 12 7 2 4 5 6 7 4 5 10 8 9 9 10
62 60 58 57 55 52 49 46 43 43 41 41 42 40 34 35 31 27 24 18 14 10 10 7 8 9 12 13 13 16 18 16 10 9 12 14 15 14 11 10 14 17 17 16 16
69 68 66 64 62 60 56 51 45 45 46 45 46 46 44 40 35 32 31 25 21 17 15 10 6 5 6 9 10 10 13 10 12 15 16 20 20 21 20 17 17 17 17 16 16
75 74 74 73 72 69 62 58 53 50 51 49 49 47 46 46 41 39 38 34 27 24 21 17 13 8 3 5 7 7 7 7 7 10 12 13 14 18 14 13 12 12 11 11 11
80 81 80 79 78 77 72 66 61 58 57 54 53 50 47 46 44 47 44 40 33 29 30 24 22 15 9 5 4 5 5 6 6 4 3 5 5 11 11 8 7 9 11 9 12
81 83 86 85 85 85 80 71 73 67 68 65 62 58 52 51 49 48 47 48 42 38 36 32 32 22 17 12 9 7 3 2 5 5 5 3 1 2 1 5 2 4 6 8 10
64 74 84 88 90 89 88 82 79 75 73 74 67 66 61 56 57 54 50 48 46 46 43 40 41 26 26 22 17 15 11 6 3 7 8 10 7 5 3 5 3 3 6 6 5
45 53 64 79 85 92 91 90 87 81 78 85 73 76 65 66 62 61 57 54 52 48 48 47 45 34 33 31 26 23 18 13 11 6 11 12 10 10 9 7 8 8 7 7 6
54 50 49 56 75 80 88 93 91 87 83 85 82 79 73 68 75 66 64 60 56 54 49 46 49 43 42 41 33 30 23 20 17 16 11 13 12 13 10 12 12 12 12 12 12
57 54 52 48 59 64 76 85 90 88 89 91 91 84 80 74 79 74 70 65 63 61 55 55 51 44 45 47 39 35 27 26 22 22 20 15 18 14 13 17 16 15 15 14 14
54 57 58 54 50 45 61 72 80 83 94 96 92 88 85 84 83 80 76 71 64 61 55 56 52 45 48 48 42 40 37 33 31 28 32 19 22 19 18 19 20 21 21 19 17
57 55 54 61 48 45 44 58 58 74 91 94 94 94 89 90 87 84 82 78 73 67 63 61 60 49 49 48 45 50 44 41 39 37 37 23 24 27 25 24 24 26 27 29 29
57 58 57 58 55 50 50 43 43 63 82 88 92 94 95 94 92 88 84 82 78 72 67 65 61 58 54 56 55 51 47 48 45 40 37 30 30 34 32 31 29 33 33 33 37
59 59 58 53 46 48 47 44 52 62 69 83 84 92 96 98 97 92 87 81 79 78 73 69 69 67 61 62 56 53 53 47 44 42 38 37 37 38 35 34 34 36 37 36 38
56 59 58 53 52 55 45 47 59 61 60 74 83 85 97 99 98 95 87 86 81 79 77 74 70 72 70 63 60 58 55 50 49 45 40 40 37 40 39 37 37 37 36 37 38
57 60 60 53 57 51 53 53 58 62 50 66 78 80 91 101 101 97 91 89 86 84 78 73 74 80 68 66 67 63 59 57 55 50 50 46 41 40 38 40 40 39 38 41 44
68 65 64 65 59 58 56 51 60 59 60 52 72 80 90 97 103 98 96 94 92 88 79 77 75 79 77 76 68 63 61 60 57 58 52 49 43 44 43 42 41 41 44 46 47
76 73 65 67 67 65 60 59 60 62 59 45 69 79 88 91 94 96 91 91 90 86 82 84 79 81 76 69 70 69 69 68 64 61 56 52 52 52 50 45 44 46 45 44 47
85 82 78 69 73 69 63 63 65 61 60 54 60 72 80 83 91 97 92 93 91 89 88 84 80 78 76 77 78 77 78 73 69 64 66 60 60 60 55 50 49 50 51 50 50
85 84 84 75 74 70 66 65 70 67 63 60 53 66 75 80 92 95 94 94 89 89 92 85 78 77 77 80 84 81 78 77 73 70 70 66 63 62 60 57 56 58 56 55 57
84 86 86 85 78 77 73 68 69 66 66 63 59 62 72 80 86 91 96 93 89 89 90 86 80 79 74 77 82 88 80 78 76 76 74 69 66 69 64 63 63 62 59 61 62

GFSSW_250_spd_021.txt.gz
Wind_Speed
24 23 22 21 19 18 16 13 11 11 10 10 10 10 11 14 18 20 22 24 25 26 28 29 32 23 5 6 12 11 15 18 22 20 16 14 13 11 11 15 15 18 19 22 18
32 31 30 28 26 24 24 22 20 16 15 12 11 11 10 10 12 15 18 21 22 23 26 27 29 31 18 2 15 13 11 9 8 9 10 8 6 4 5 5 5 9 9 9 12
38 38 36 35 33 31 29 27 26 23 18 20 17 15 13 11 10 12 14 16 19 20 22 24 27 30 31 10 6 18 12 8 8 9 8 6 6 5 6 3 3 2 3 1 3
39 38 39 40 41 38 35 33 31 29 27 22 22 19 18 15 12 11 10 12 15 16 19 20 22 25 29 25 8 9 15 10 9 10 11 12 7 6 6 4 5 4 4 4 6
43 43 42 41 40 39 39 41 38 36 34 31 28 27 24 20 19 13 11 9 11 13 14 17 18 20 23 25 23 14 13 9 9 11 11 10 4 1 2 2 3 6 9 7 7
51 50 49 47 45 43 42 43 41 43 42 38 36 34 32 24 26 20 14 12 9 10 12 12 15 16 18 21 24 18 15 13 12 9 8 7 5 6 7 7 6 7 3 4 5
57 56 56 55 54 50 48 47 44 43 44 42 41 39 38 28 29 24 18 16 14 11 11 8 9 11 13 14 17 19 19 18 19 15 8 6 3 4 3 1 4 9 12 12 13
60 58 57 57 59 57 54 54 51 48 46 45 42 41 39 37 34 31 28 22 19 16 14 12 6 6 8 9 11 15 16 18 20 18 17 16 15 11 10 12 15 17 17 18 20
65 66 65 64 63 60 58 57 57 56 53 50 48 46 41 39 33 33 31 28 26 21 19 18 13 6 4 5 5 7 11 12 16 19 21 19 20 21 17 14 13 14 16 16 15
64 68 69 70 70 68 65 64 62 60 60 59 55 52 49 45 40 36 34 32 30 28 24 24 22 14 9 5 2 3 5 6 3 9 15 15 16 13 9 9 11 11 11 12 12
39 51 59 67 71 72 72 70 69 69 65 64 62 61 55 54 48 44 40 36 33 31 34 31 30 26 15 11 6 3 1 1 3 4 9 9 10 8 5 10 11 13 13 12 12
40 39 41 38 50 56 66 72 74 74 76 70 66 68 62 61 59 53 47 43 40 36 37 36 38 33 23 19 15 11 7 6 4 3 2 5 6 4 5 5 6 9 9 8 6
41 46 48 46 43 39 46 57 67 72 77 81 75 72 69 65 67 61 54 47 45 44 40 40 48 38 31 27 22 20 18 12 9 8 7 5 6 7 5 7 5 5 4 3 2
46 48 50 52 53 48 41 46 49 55 68 83 82 78 78 71 75 68 64 56 51 49 49 44 51 40 38 36 31 29 27 20 15 15 11 12 12 10 8 8 6 4 3 1 2
46 47 51 50 53 56 56 53 46 47 54 68 77 85 84 81 80 79 73 63 59 56 52 51 53 46 42 45 45 40 34 27 23 20 17 17 17 14 14 11 8 6 7 6 7
62 55 57 56 56 57 59 59 60 54 44 54 62 73 84 87 85 84 79 75 69 65 58 58 60 50 47 49 46 46 38 33 28 25 20 26 21 19 18 14 13 12 12 11 14
64 64 62 66 65 56 59 61 61 59 61 51 56 66 72 81 88 89 87 83 78 72 65 65 64 59 55 51 48 47 43 36 34 29 32 28 26 26 22 22 20 19 18 17 19
73 73 70 67 66 63 58 60 63 63 64 66 61 54 64 69 76 89 92 87 84 79 75 73 71 67 61 57 54 52 51 42 38 37 42 35 36 28 25 23 27 30 26 24 25
78 78 77 74 72 70 63 60 62 65 65 72 68 49 54 56 66 76 89 92 89 86 82 79 75 76 70 67 64 58 52 48 44 40 41 40 42 33 31 33 33 33 31 30 30
89 87 83 82 79 75 69 63 64 69 70 70 70 66 50 56 62 68 81 88 93 91 90 85 82 81 79 77 69 63 62 57 50 44 42 44 46 42 39 38 38 37 35 33 35
95 94 93 94 84 78 68 63 66 70 72 72 74 74 61 49 54 61 72 83 91 97 95 91 87 86 86 81 74 70 66 61 55 48 45 46 47 47 43 42 40 41 40 40 40
98 98 98 93 87 80 76 71 69 71 72 74 74 71 68 61 46 53 67 76 87 96 98 95 94 92 85 83 83 78 74 68 60 55 52 51 51 55 52 45 43 45 42 46 44
104 101 96 98 88 83 75 77 75 76 76 75 75 76 75 69 51 50 63 76 81 91 99 101 98 95 93 90 86 78 73 68 64 61 55 53 51 56 56 51 47 45 44 49 47
97 98 96 96 94 88 83 80 79 76 77 77 73 74 75 72 60 51 57 74 82 89 98 104 102 98 93 86 84 84 78 74 70 64 60 53 54 60 58 56 49 49 48 49 52
100 103 100 98 95 93 86 83 83 83 82 82 75 71 72 74 68 59 60 70 80 87 93 99 101 101 95 92 94 89 86 82 75 66 64 57 59 61 61 59 56 53 51 49 53
113 109 107 106 105 102 96 93 92 85 86 84 82 78 76 69 69 65 64 71 75 86 90 92 97 102 98 96 97 94 90 87 81 74 69 65 62 62 66 64 59 55 53 52 55
119 112 115 116 115 110 106 99 96 93 92 88 86 82 77 73 73 72 72 71 68 76 85 87 92 100 99 101 101 102 95 92 84 78 73 69 64 69 67 65 62 61 58 57 57

GFSSW_250_spd_024.txt.gz
Wind_Speed
24 24 23 22 21 21 18 16 13 12 11 8 8 8 10 11 13 15 18 21 23 24 25 27 28 16 4 10 11 13 16 19 20 21 21 20 21 20 16 15 18 16 14 13 16
31 30 30 29 27 27 26 23 22 21 19 18 12 11 10 11 11 12 13 16 19 22 22 24 28 26 12 8 17 15 14 17 19 19 17 18 17 13 7 5 3 3 4 7 7
34 35 35 35 34 33 32 30 29 27 24 22 21 17 16 13 12 12 12 13 14 17 20 21 22 26 22 9 12 15 11 10 10 10 10 11 8 8 4 4 4 5 4 3 2
36 37 37 35 35 36 38 37 36 33 30 28 25 24 20 17 15 14 13 12 12 13 16 19 21 22 24 16 6 17 12 9 10 11 14 14 12 8 7 8 8 6 3 3 2
43 43 42 41 38 38 39 38 37 37 37 36 32 28 25 21 24 16 16 14 12 10 10 14 17 19 22 21 14 7 14 10 11 16 18 17 14 8 5 6 1 3 7 7 6
50 48 48 48 46 45 43 42 40 39 38 37 38 37 31 25 30 22 19 17 15 12 8 7 11 15 16 19 18 10 3 9 12 15 16 13 9 5 3 2 4 7 9 4 4
50 50 50 52 52 50 50 50 48 45 43 40 39 38 33 32 32 28 25 20 17 17 13 7 5 8 10 12 16 16 9 7 9 12 12 10 7 4 3 2 2 5 5 8 10
58 57 57 58 55 53 52 51 52 53 51 48 44 42 38 33 35 35 35 30 25 21 20 13 8 6 5 7 9 15 14 9 10 15 16 15 14 13 11 7 7 9 13 16 20
58 60 61 61 61 61 61 59 58 55 51 52 52 48 43 40 38 35 34 32 31 27 25 20 15 10 8 2 3 7 10 10 11 17 20 21 21 21 19 17 15 18 18 15 14
38 42 47 55 59 62 64 62 63 62 59 55 53 54 51 48 46 38 38 34 32 30 30 28 23 18 14 8 3 2 4 6 2 5 13 22 19 20 19 18 14 13 13 14 13
27 29 32 32 36 38 49 57 65 66 66 63 62 58 56 56 52 50 44 40 36 31 32 34 31 29 19 16 12 8 6 5 6 3 7 9 12 15 16 15 13 11 11 12 12
31 31 32 31 33 34 37 44 47 53 65 68 67 67 62 61 60 57 52 48 43 39 35 38 38 35 28 23 21 16 12 10 9 8 7 10 12 12 11 14 13 11 12 11 9
35 36 36 34 36 36 38 39 35 43 43 58 64 69 68 67 67 63 60 56 51 48 42 41 47 41 34 31 28 25 22 17 12 12 12 11 10 10 10 12 12 12 10 8 6
43 43 45 41 42 37 42 42 42 43 39 42 52 54 68 71 71 69 67 64 59 55 53 49 49 46 38 36 35 31 31 25 17 18 15 14 13 11 13 17 14 14 12 9 9
51 50 52 52 51 47 47 46 46 45 47 46 45 48 51 62 72 74 73 71 68 65 58 54 52 52 45 45 42 44 36 31 26 24 17 18 16 14 15 17 16 17 14 13 12
55 54 57 60 57 55 56 58 55 53 48 51 49 49 47 53 61 74 77 76 74 71 66 63 61 58 51 52 47 46 38 35 30 30 21 24 23 17 21 15 17 20 18 17 16
60 62 61 65 66 64 64 62 62 57 53 59 58 57 53 48 56 64 75 81 79 78 72 73 67 66 60 57 56 46 41 36 34 33 27 31 25 28 26 20 22 18 21 21 21
68 67 64 71 73 73 68 68 64 63 65 66 63 63 65 52 47 59 64 75 84 82 82 79 73 71 66 62 62 58 51 46 42 38 38 40 32 37 29 25 24 28 26 26 25
78 77 77 79 81 83 81 74 72 73 72 76 72 71 68 64 57 54 52 63 71 85 86 85 80 80 76 71 69 64 56 52 50 47 44 44 44 41 32 31 34 35 31 30 30
86 87 88 87 88 92 91 81 79 82 80 81 80 73 72 69 63 52 55 58 64 75 89 88 88 85 83 81 76 70 67 63 53 49 43 49 45 45 38 40 41 40 38 35 34
97 95 96 97 98 99 98 95 95 89 91 86 83 82 78 76 71 60 51 47 60 66 79 92 92 92 92 85 79 76 74 68 61 56 50 52 50 55 43 44 45 44 42 40 40
104 107 108 112 109 109 107 106 101 95 94 89 86 85 83 79 73 71 57 59 52 67 73 83 97 98 90 88 89 88 82 78 73 59 53 51 52 62 49 46 47 48 45 47 46
114 115 116 120 121 117 114 109 106 104 102 95 90 89 87 84 80 73 67 64 57 60 76 78 87 99 98 97 97 92 85 80 74 68 61 58 57 60 63 55 52 50 49 48 46
129 131 131 131 130 126 123 117 114 109 107 102 96 91 88 88 81 73 71 71 67 60 66 77 80 93 98 96 94 93 90 87 83 77 67 58 62 62 67 65 61 56 53 51 50
127 134 135 130 130 130 126 119 114 114 110 107 100 94 89 88 89 77 75 75 72 70 65 71 75 83 93 100 102 98 97 93 91 81 78 68 64 64 64 73 73 66 55 51 51
143 144 137 136 133 131 129 123 121 120 117 107 102 103 97 91 85 85 80 78 76 72 64 66 72 76 85 95 104 103 99 97 94 90 85 77 70 69 68 74 73 71 61 58 55
123 117 120 124 128 126 124 126 129 123 117 115 108 99 95 95 89 85 80 76 80 77 69 61 68 71 74 85 99 107 103 98 95 93 89 80 71 75 75 76 75 73 69 62 60

GFSSW_250_spd_027.txt.gz
Wind_Speed
23 23 23 23 22 21 20 18 16 15 15 14 13 14 11 13 14 15 14 17 19 20 22 24 23 17 7 15 18 21 25 29 28 26 27 26 23 20 20 22 23 23 22 17 14
30 30 30 30 29 28 27 26 24 23 20 19 18 16 17 15 15 14 14 13 16 17 20 21 23 23 15 1 14 16 16 22 22 22 22 21 20 20 19 17 13 11 11 12 11
35 34 34 34 34 34 33 32 32 30 27 24 22 20 17 17 15 16 15 14 13 14 16 19 21 22 20 7 9 14 12 17 15 14 17 17 15 15 12 10 9 9 8 6 5
36 36 36 35 35 35 34 33 33 34 34 32 27 24 21 18 19 17 18 16 14 12 13 14 18 19 21 15 4 16 12 10 10 12 13 11 12 13 11 9 9 8 5 2 4
43 43 43 42 41 40 39 38 36 34 34 32 30 29 27 22 25 19 21 20 17 14 11 12 12 14 15 17 11 9 13 8 9 13 14 17 16 12 12 13 10 5 1 3 3
46 47 47 47 47 48 46 44 43 41 39 37 34 31 27 28 30 26 26 25 21 17 13 10 10 10 12 15 14 8 4 12 13 12 17 17 15 12 12 9 6 1 1 3 1
50 50 50 49 49 49 47 48 46 44 44 42 40 37 33 30 30 30 30 28 25 20 19 14 11 8 7 9 10 8 2 6 11 15 18 18 14 9 7 5 5 6 4 7 6
52 52 54 55 55 56 55 53 50 47 48 48 46 45 42 38 34 32 29 31 29 29 28 23 17 11 6 4 7 9 10 6 2 10 14 14 10 9 11 13 12 8 11 13 17
49 50 53 55 56 57 59 58 59 58 54 51 47 47 47 45 42 38 34 32 32 32 32 29 24 16 12 6 1 1 7 10 8 7 9 16 11 15 18 18 17 17 20 19 15
36 36 37 41 43 47 50 56 60 62 61 57 56 53 51 49 48 44 41 37 34 32 33 32 29 23 17 12 8 3 3 4 8 8 7 17 20 17 17 19 22 21 17 14 13
32 31 31 32 31 34 35 39 42 47 54 58 60 57 58 57 53 50 48 44 41 36 33 38 32 31 25 18 14 10 7 5 7 5 4 4 11 14 16 19 19 18 14 14 14
37 37 34 32 32 33 30 32 33 35 38 42 48 56 59 61 59 55 53 52 47 44 39 36 36 39 31 26 23 18 14 11 9 10 7 7 7 11 14 16 17 18 19 16 15
42 43 41 35 37 37 36 37 39 36 35 34 40 38 46 56 64 62 59 57 56 50 46 40 46 45 33 31 30 26 24 20 17 14 13 11 12 9 11 12 15 17 17 16 14
44 46 47 44 43 44 45 43 40 39 38 37 36 36 39 47 50 64 66 63 60 60 55 50 49 47 41 34 36 34 31 28 23 19 18 18 17 15 14 15 15 16 16 15 14
55 52 53 52 51 52 51 50 47 46 44 37 39 43 41 43 44 52 61 67 68 66 62 58 56 53 49 46 42 43 42 35 31 27 24 19 19 19 17 17 18 19 17 15 15
61 61 59 59 60 58 57 53 53 53 48 49 46 48 46 49 46 43 52 58 70 71 68 68 64 59 54 57 50 50 49 40 36 35 30 24 23 22 20 20 22 20 21 21 19
67 67 67 69 69 64 60 59 56 51 54 54 53 57 54 52 51 48 43 52 54 72 74 75 71 67 62 61 60 56 50 46 39 36 34 31 29 27 28 24 25 25 24 24 24
72 73 73 73 75 75 70 69 63 58 61 64 61 60 61 62 56 50 53 46 44 55 76 79 76 72 69 65 64 64 57 49 48 45 43 41 35 37 33 30 26 25 27 28 27
80 80 83 82 81 82 80 75 70 72 73 70 72 71 69 69 67 60 54 57 56 49 57 76 81 83 78 73 73 67 64 54 56 54 50 44 45 48 42 33 29 30 34 33 32
86 88 88 88 91 92 89 80 78 81 83 81 77 74 73 72 72 71 64 60 62 62 53 60 81 87 84 84 78 74 72 70 59 55 50 52 51 48 48 41 37 39 40 38 36
93 94 95 97 99 98 90 87 92 91 91 86 85 84 80 80 79 77 75 71 67 66 66 61 67 85 94 85 78 77 74 75 69 64 59 58 54 54 52 45 40 47 45 44 42
101 102 101 104 106 105 100 100 102 99 101 96 94 89 90 89 87 83 78 77 75 69 71 61 67 72 88 93 91 88 84 85 83 70 62 60 57 61 62 52 47 50 50 48 48
114 113 118 113 114 115 112 110 111 110 108 106 99 100 102 99 96 88 85 84 79 74 77 74 65 69 73 93 95 92 85 84 81 81 71 67 58 67 65 61 52 49 51 53 50
124 123 128 125 124 125 125 120 119 118 116 114 112 111 109 107 102 95 91 91 85 73 80 81 72 64 63 72 92 100 97 92 90 86 78 71 71 72 67 68 61 58 60 58 56
137 136 139 139 137 139 139 136 132 129 124 121 118 116 117 113 107 101 94 96 92 81 79 82 79 71 67 71 84 98 100 100 97 90 88 80 80 74 70 71 73 65 63 64 61
138 140 133 134 141 141 142 143 142 138 137 129 124 127 125 120 118 112 106 101 93 88 81 84 79 76 66 61 77 87 98 102 102 95 93 91 85 79 79 76 73 72 71 70 66
125 123 118 128 129 129 132 129 132 131 130 130 133 131 127 131 128 123 108 102 96 92 86 85 81 81 71 66 67 84 83 94 101 101 96 94 84 89 83 76 71 79 76 74 71

GFSSW_250_spd_030.txt.gz
Wind_Speed
22 22 22 22 22 22 20 20 21 20 19 18 17 18 18 18 18 17 15 17 18 18 19 20 19 8 13 17 18 17 21 23 27 27 31 30 27 25 22 23 22 24 21 24 24
29 29 29 29 29 29 28 27 26 25 24 23 21 19 19 19 19 17 16 15 16 16 17 18 20 16 7 11 14 7 25 16 25 28 26 25 24 24 24 24 23 23 22 21 19
35 35 35 34 34 33 31 31 31 29 28 27 25 24 21 21 20 19 18 17 15 15 16 16 17 18 17 7 17 21 15 21 25 26 24 23 23 21 20 19 18 18 14 10 10
37 37 36 36 35 34 32 32 32 32 30 28 27 26 25 24 26 21 19 18 18 16 13 14 14 15 16 13 20 20 13 27 22 19 20 15 15 16 13 11 10 7 5 5 6
43 43 42 42 42 42 40 38 37 36 34 32 30 28 25 26 31 25 22 21 20 19 17 11 11 13 13 13 7 26 17 16 12 10 10 12 12 9 10 11 12 11 6 4 5
45 46 46 46 46 45 45 44 44 43 41 39 36 34 31 28 27 28 29 26 24 21 20 15 9 9 11 12 11 8 2 10 8 10 9 13 12 12 11 13 14 12 7 4 5
45 46 47 49 50 49 47 46 44 44 43 42 40 39 37 34 32 30 29 29 29 27 22 19 13 9 7 8 10 10 6 4 10 10 11 11 14 13 12 16 16 13 7 8 11
52 52 53 53 53 53 52 51 50 50 47 44 41 42 41 39 38 36 35 31 29 27 26 23 22 16 10 6 3 6 6 3 3 9 12 18 16 15 17 17 15 13 12 12 14
49 47 45 44 46 49 50 52 54 54 53 51 50 48 45 44 44 43 40 39 34 30 29 27 26 22 16 10 5 1 6 6 4 3 12 17 10 7 12 15 17 16 17 19 19
33 31 34 36 33 35 38 37 39 41 45 49 55 53 53 52 49 45 44 43 43 36 30 31 29 26 24 17 10 7 5 3 5 6 8 9 6 3 10 14 14 19 21 19 17
33 32 31 34 34 34 34 34 32 30 31 31 34 39 51 55 54 53 49 45 46 44 38 35 31 29 28 23 15 13 10 7 6 4 3 11 18 6 9 12 14 16 16 17 17
34 37 33 34 38 38 35 33 35 30 34 29 26 31 27 35 48 56 54 53 47 49 45 40 30 40 35 28 24 21 16 13 10 22 18 7 9 10 13 11 12 12 14 17 19
41 43 41 38 41 41 40 41 39 38 33 34 28 28 27 27 33 37 54 54 55 50 52 47 43 43 36 31 28 28 24 20 16 16 15 12 10 8 9 11 11 14 16 16 18
47 48 51 49 47 48 45 48 44 42 36 39 33 33 32 29 31 31 34 46 53 57 54 53 51 47 43 36 33 33 34 29 24 19 20 19 15 15 13 11 11 14 16 15 15
51 50 51 54 56 55 53 56 51 50 41 41 41 44 43 36 34 36 29 36 37 54 58 59 57 55 49 45 41 39 42 38 32 28 25 22 21 21 18 18 17 17 18 16 15
60 58 58 57 64 60 60 62 58 57 45 54 42 45 48 45 41 39 39 34 33 34 55 63 61 59 56 54 50 48 45 45 39 35 31 29 26 25 24 23 19 24 22 21 20
63 64 65 68 68 66 65 65 65 56 58 58 55 51 53 51 48 45 43 38 34 33 36 54 62 63 64 60 57 57 51 47 43 36 33 36 28 28 28 21 22 25 25 27 26
67 67 68 69 75 73 76 73 64 59 63 69 67 59 57 59 58 54 49 46 42 40 36 36 47 64 70 66 65 63 63 54 51 47 44 41 35 34 33 31 22 31 28 29 30
76 76 77 77 75 77 79 74 70 72 74 75 75 69 64 65 66 63 55 52 52 51 44 39 40 45 64 71 71 66 67 61 57 55 51 44 45 44 44 39 38 42 32 32 32
86 85 87 85 85 86 81 71 75 80 82 86 80 78 73 71 71 74 64 60 60 57 55 49 44 44 45 63 68 72 71 73 65 59 51 53 51 46 49 47 44 41 35 39 38
94 93 100 94 94 95 92 87 88 85 88 91 91 85 81 81 79 77 74 68 64 65 63 60 53 48 45 44 51 74 77 75 76 69 61 58 52 53 54 53 53 46 43 39 45
102 102 110 105 106 107 104 102 101 96 96 98 96 91 91 89 86 84 79 77 75 71 69 68 65 56 49 48 45 58 72 79 82 76 70 65 57 59 60 62 56 53 48 44 56
116 114 119 120 115 117 117 112 112 109 105 106 104 102 99 98 97 91 87 85 86 84 75 74 65 64 57 52 47 44 60 71 83 84 81 74 59 66 70 66 64 59 56 52 59
127 126 130 134 129 128 130 125 125 123 122 122 118 115 109 108 105 99 96 92 93 89 87 81 75 68 62 59 63 58 55 66 76 86 83 81 72 73 75 71 75 65 62 59 57
143 142 144 142 143 143 139 137 138 136 136 135 132 125 125 116 112 108 105 102 102 100 91 84 77 75 69 67 67 64 60 61 70 76 89 83 84 78 81 76 77 75 66 68 64
146 140 140 141 146 147 146 144 145 143 146 143 140 138 131 122 124 114 112 109 108 104 97 89 81 82 77 72 71 71 67 47 58 65 74 87 91 87 85 84 81 79 77 70 66
101 98 92 94 98 104 108 115 116 124 133 129 136 138 136 131 122 115 115 113 108 106 102 92 87 86 79 79 79 74 58 60 58 66 68 81 86 94 95 93 89 86 81 76 71

GFSSW_250_spd_033.txt.gz
Wind_Speed
22 22 22 21 20 21 21 21 22 22 21 19 19 21 19 19 16 16 17 15 14 15 16 17 14 4 16 23 25 20 16 29 29 28 21 27 35 30 22 21 17 20 21 25 24
27 28 28 28 28 27 27 28 27 26 25 24 22 21 21 20 17 16 15 16 14 12 12 13 14 14 3 20 31 34 35 26 19 18 22 20 27 29 21 21 19 21 25 24 22
33 33 33 33 32 32 31 30 28 25 23 23 23 23 22 24 17 18 15 15 15 12 9 10 12 14 8 15 27 22 31 21 22 23 26 29 25 23 20 22 18 19 18 17 14
37 37 36 35 34 33 33 32 31 30 30 28 25 24 23 25 23 21 18 17 14 15 10 7 8 10 13 10 28 31 26 23 19 26 29 27 22 21 18 18 15 11 7 5 4
40 41 42 42 41 39 38 38 38 37 37 35 32 29 27 27 28 21 21 21 19 17 16 10 7 5 8 5 21 29 27 22 21 24 20 16 14 13 12 9 8 11 11 8 8
45 46 45 45 45 45 42 42 41 41 40 40 39 37 34 31 33 27 24 22 22 22 20 18 9 6 2 6 12 25 25 26 20 17 10 11 7 7 7 8 10 10 11 10 8
45 46 46 46 46 45 44 44 43 43 43 41 40 40 39 38 35 35 31 27 24 22 23 23 19 10 6 2 1 4 8 5 8 13 12 11 7 8 10 10 12 13 15 19 12
51 52 53 53 53 52 52 52 51 49 47 44 44 44 42 41 41 39 36 35 30 27 24 22 22 19 11 8 4 4 5 2 2 6 9 10 9 9 13 12 15 14 18 17 16
52 52 51 50 48 47 47 48 48 49 49 47 48 49 47 47 43 41 41 40 37 33 30 26 25 23 19 13 10 7 4 1 6 4 5 9 10 8 7 17 20 15 16 17 19
48 42 38 36 33 32 28 27 27 30 34 33 35 37 45 48 49 48 46 44 43 39 36 33 30 24 26 20 12 14 9 4 1 1 5 10 9 9 16 12 15 15 14 18 20
37 34 34 30 30 29 27 25 24 24 23 21 24 23 28 28 35 42 49 49 46 43 40 39 32 32 30 25 18 18 16 11 8 2 4 8 16 2 7 9 10 14 17 17 17
37 37 34 31 34 32 30 28 29 23 27 25 26 26 25 26 24 25 31 45 50 48 44 39 41 41 35 29 24 22 21 20 12 15 10 13 14 19 8 10 14 13 12 14 17
40 40 42 41 40 40 36 37 34 28 26 33 26 29 25 28 27 25 22 26 41 51 49 45 44 43 39 35 28 27 29 27 16 17 19 12 12 11 10 11 11 9 14 15 17
46 45 46 48 44 46 40 45 40 40 26 40 28 32 35 32 35 27 28 21 24 34 49 51 49 46 44 41 37 32 37 34 25 19 22 19 16 15 11 11 12 12 16 15 17
51 51 51 47 51 47 46 53 47 43 26 41 40 43 42 37 39 36 29 30 26 19 23 47 53 52 47 46 44 44 40 39 34 28 27 22 21 23 19 18 17 16 16 15 15
59 58 59 59 62 56 54 57 52 48 34 46 40 45 49 49 46 41 34 32 31 24 20 26 41 53 55 52 47 53 44 43 40 33 26 25 25 24 23 24 22 19 16 19 17
64 65 63 65 65 63 61 59 59 52 50 52 55 49 49 54 53 47 45 37 34 30 28 32 25 36 54 56 54 54 53 46 43 35 29 33 28 28 27 26 24 21 24 24 23
68 70 74 72 74 70 70 67 61 53 56 63 62 55 49 54 56 54 49 48 44 42 39 33 31 30 37 49 59 60 58 54 49 45 45 42 33 37 33 31 28 25 21 26 27
79 80 77 78 79 79 77 72 66 68 69 69 71 64 56 54 59 62 56 50 54 53 49 45 35 40 32 36 48 59 58 62 60 55 50 42 41 43 40 34 32 28 26 29 24
85 87 90 88 86 86 84 78 77 81 80 82 77 73 68 67 63 63 64 57 55 59 58 54 49 43 39 37 38 41 53 65 64 59 54 51 50 44 45 42 40 37 37 30 35
95 93 100 101 97 93 89 88 90 89 91 89 88 81 76 74 74 69 61 62 63 63 65 61 55 53 47 36 38 41 37 50 68 68 63 59 51 56 54 51 46 48 47 43 43
102 101 109 107 105 101 98 99 99 96 97 98 97 94 89 84 83 80 72 67 71 71 68 68 66 59 53 51 41 42 40 41 52 63 71 67 55 62 66 58 53 54 52 50 50
109 110 116 117 110 112 109 108 109 108 108 107 105 103 101 98 96 89 84 78 78 78 73 74 69 66 61 50 44 40 45 42 44 43 59 72 59 68 68 63 61 63 58 55 55
116 116 122 126 124 123 121 117 119 117 117 119 111 111 112 109 107 99 93 91 89 85 80 81 75 69 65 62 64 56 51 49 48 43 39 59 69 72 74 70 69 67 63 61 64
129 128 130 132 133 133 131 128 128 126 129 129 121 124 124 118 116 109 106 100 97 91 90 87 78 73 71 71 71 61 57 55 50 48 43 40 55 64 79 76 76 75 69 69 71
135 135 138 139 143 143 144 144 143 138 139 137 132 133 133 125 121 118 116 110 103 103 100 99 87 85 78 77 77 75 66 59 54 53 49 44 32 48 57 81 84 81 79 77 75
101 100 102 111 119 123 130 132 135 138 143 145 148 142 141 140 128 124 122 119 112 110 111 108 101 95 85 84 85 83 65 67 63 57 51 46 45 46 49 64 77 84 86 80 80

GFSSW_250_spd_036.txt.gz
Wind_Speed
25 24 22 21 20 19 19 19 20 20 19 21 21 20 17 16 16 15 14 12 9 7 8 11 11 10 27 28 33 34 30 26 17 18 27 24 22 22 24 22 20 20 21 22 21
27 26 26 26 26 26 26 25 25 25 24 22 20 20 21 16 16 16 15 14 9 7 4 7 10 8 24 32 33 28 32 28 17 12 14 11 14 23 24 22 22 17 20 21 22
31 31 31 31 31 31 31 30 28 27 25 23 21 20 22 19 14 18 17 17 15 7 5 2 7 7 5 32 36 36 35 33 28 20 17 22 23 25 20 18 19 15 16 19 17
36 35 35 35 35 33 32 31 31 31 30 28 27 27 26 26 17 20 18 19 19 15 6 5 2 6 4 15 31 36 43 44 39 29 25 23 25 20 15 14 16 16 12 10 5
39 39 38 37 36 37 38 37 36 34 33 32 31 30 30 31 26 24 21 21 20 20 17 7 5 4 6 3 16 28 35 36 30 25 28 29 22 17 14 14 13 9 5 6 3
41 42 42 42 42 42 40 39 38 39 39 37 36 34 34 34 32 30 28 25 24 23 20 15 9 8 9 7 4 19 30 33 35 32 32 22 19 14 14 11 8 5 5 4 7
45 46 45 44 43 44 44 43 41 41 41 39 39 39 39 35 34 34 33 31 30 26 25 20 18 11 14 12 8 6 16 27 27 24 21 22 17 17 10 8 8 6 6 8 12
48 48 49 49 49 49 49 49 48 47 47 46 45 45 43 42 41 38 38 37 35 32 29 26 22 18 14 16 15 11 9 7 10 9 16 15 12 14 8 6 7 9 9 11 15
52 52 52 51 50 50 49 50 50 47 46 46 43 41 41 43 46 44 43 41 38 37 33 30 29 25 21 19 20 16 13 10 5 2 10 8 10 9 8 6 8 14 12 10 13
54 54 54 54 51 49 46 40 39 35 31 27 32 32 28 29 34 42 47 47 42 40 38 36 33 30 29 26 21 20 16 14 5 6 6 9 9 9 11 6 12 10 10 13 18
56 56 55 50 47 42 33 29 26 25 24 21 18 17 15 18 17 20 31 43 52 47 41 39 37 37 36 32 22 23 23 17 12 7 9 11 7 6 3 4 5 9 14 19 22
54 51 49 44 39 38 32 31 28 19 22 21 20 20 18 16 18 13 17 24 37 49 49 44 43 43 39 37 31 26 27 24 17 14 6 7 13 9 6 6 10 13 19 20 18
51 50 48 46 43 42 38 39 33 26 28 32 23 25 17 22 22 20 17 15 22 31 47 49 49 43 41 40 37 31 32 28 24 18 17 12 12 10 7 9 14 12 11 14 17
54 54 54 53 50 43 41 44 41 36 31 42 29 29 30 24 29 28 22 19 19 18 23 46 51 50 46 43 43 37 41 32 29 24 21 16 16 12 9 13 15 10 12 14 17
58 57 58 59 57 52 50 50 47 44 35 39 37 36 36 35 40 36 29 26 24 17 15 24 34 50 51 51 43 54 42 38 33 29 22 14 21 17 13 17 16 15 15 14 15
65 63 63 63 63 61 56 54 51 48 40 44 44 45 46 44 43 40 35 31 28 22 21 27 22 26 50 53 50 57 44 43 37 32 25 23 20 18 20 19 19 20 18 17 18
70 70 69 71 68 66 64 63 62 56 55 53 51 48 50 48 46 44 40 35 34 28 28 32 24 24 29 47 58 58 53 49 42 34 31 36 26 28 24 26 24 23 21 19 21
75 75 77 75 73 68 70 69 63 58 61 61 58 55 56 59 55 50 44 39 38 36 38 36 30 34 33 29 43 59 56 54 50 44 45 44 33 39 33 32 28 25 24 21 26
82 83 84 85 79 78 78 73 68 69 66 69 67 66 63 62 62 58 48 44 44 43 41 42 39 45 34 33 32 36 52 61 55 52 47 43 41 42 38 34 31 32 30 29 29
88 88 94 94 89 86 84 79 79 81 80 76 76 75 72 69 66 64 58 49 50 51 51 47 46 49 45 40 31 32 35 51 57 58 54 51 47 45 47 43 41 38 35 35 33
95 95 100 98 97 95 91 89 92 94 90 87 85 83 80 78 72 70 64 61 60 61 59 54 48 54 49 35 42 40 36 36 47 60 60 55 48 52 54 50 46 45 45 43 38
98 99 107 100 103 102 100 100 101 100 103 98 94 91 87 87 82 76 69 70 71 67 63 58 57 55 46 49 47 42 39 39 40 44 57 61 54 63 60 57 55 48 47 46 44
101 104 108 110 108 109 109 109 108 108 108 108 102 97 96 96 90 86 79 79 81 77 72 70 60 56 53 48 40 37 41 44 38 40 42 50 56 67 66 62 61 57 56 53 51
105 110 114 117 115 114 116 117 117 116 113 113 111 107 104 102 100 94 87 89 88 85 81 79 73 64 55 55 58 52 50 48 45 39 39 40 43 58 71 69 67 66 65 61 59
113 116 118 122 121 119 119 120 121 121 120 119 118 117 113 109 108 103 97 92 91 92 89 83 78 76 66 64 63 57 53 49 43 40 37 39 43 46 58 68 73 72 71 67 65
113 115 120 126 129 129 128 128 129 130 128 128 125 122 121 114 115 112 107 101 98 99 96 89 81 82 75 73 70 68 61 52 47 44 41 41 44 45 48 49 56 71 76 73 71
86 89 93 101 111 118 126 131 137 134 135 134 131 127 126 125 120 117 116 111 107 106 104 100 89 87 81 77 79 86 56 59 54 52 51 50 52 56 53 54 51 52 65 74 78

GFSSW_250_spd_042.txt.gz
Wind_Speed
29 28 26 25 24 22 21 20 19 20 22 23 22 21 19 17 11 10 12 8 5 5 5 3 4 15 25 29 30 29 31 28 25 21 17 14 17 26 26 28 33 33 30 31 24
31 30 29 28 27 25 24 24 24 24 26 27 28 24 20 18 18 13 12 13 12 9 10 8 4 5 16 26 28 31 32 28 22 20 18 18 20 24 29 27 25 28 28 30 22
34 33 32 31 29 29 28 28 29 30 31 30 28 27 24 22 20 21 18 15 15 16 14 13 8 8 7 16 27 30 36 38 32 26 18 15 15 17 19 23 25 26 29 25 18
34 33 33 33 33 34 34 34 35 36 35 34 33 29 31 30 26 25 26 20 17 18 19 17 12 10 9 6 15 29 35 39 43 38 31 28 26 27 30 31 29 32 26 19 14
38 38 39 40 41 41 40 40 40 40 39 37 36 34 32 30 29 26 26 27 22 22 22 22 18 11 14 10 6 11 28 38 45 46 45 43 45 48 40 38 34 25 22 12 11
45 45 45 46 46 46 46 45 45 43 41 40 39 36 35 32 32 34 30 32 27 26 25 25 24 18 17 15 11 9 7 21 36 40 44 42 41 42 38 32 24 12 14 13 15
51 51 51 51 50 49 47 46 45 44 43 44 42 38 38 35 35 37 34 33 33 30 32 28 29 26 22 20 15 13 10 9 10 17 27 31 27 27 28 20 20 10 15 16 13
54 54 54 53 51 48 47 49 48 48 47 45 43 43 42 39 39 39 39 39 40 38 34 33 33 33 29 27 19 16 13 13 11 14 15 17 21 22 20 14 17 13 15 14 15
58 54 52 51 51 48 47 49 49 49 50 49 48 47 45 45 44 45 44 44 44 45 43 40 39 38 33 32 27 17 17 17 16 13 15 17 11 12 11 10 14 13 14 16 11
58 58 58 57 56 55 53 55 55 54 54 54 53 51 51 50 47 49 50 46 46 48 47 46 46 43 41 38 33 21 20 22 21 15 15 10 4 9 10 8 14 13 14 15 8
64 64 61 59 60 60 57 58 58 57 58 55 56 55 54 54 53 50 48 45 45 47 51 50 49 49 48 42 35 28 24 24 22 20 17 9 8 9 13 10 13 17 18 17 10
66 66 67 64 63 61 61 59 60 58 58 58 56 58 54 50 48 46 45 45 41 43 48 53 54 52 49 44 40 35 30 29 25 21 17 10 11 9 10 7 6 9 14 12 11
70 70 70 71 69 66 66 65 62 60 58 59 56 52 52 44 46 45 43 44 41 36 41 45 51 55 51 48 47 43 40 34 28 23 19 15 10 14 6 6 5 7 12 13 13
78 75 74 76 74 70 69 67 65 62 60 55 58 51 51 45 41 47 44 43 35 35 27 35 41 50 55 53 52 49 46 38 30 27 22 17 16 17 10 5 5 10 13 16 19
80 80 79 77 78 74 73 71 69 65 63 60 58 54 53 49 44 45 43 40 36 32 30 33 28 31 45 58 54 56 46 41 36 29 22 19 20 16 20 13 10 11 15 16 19
87 85 82 79 79 80 78 75 71 69 62 64 62 59 57 56 52 51 45 43 41 37 32 31 28 24 34 42 56 57 50 44 40 34 26 29 28 25 25 18 16 16 15 17 20
90 89 86 83 82 82 83 82 78 72 66 67 66 66 63 63 62 56 55 47 47 42 37 42 36 32 32 29 38 52 56 50 43 36 37 42 30 32 24 25 19 21 19 16 19
89 90 88 89 88 89 88 87 84 76 73 69 71 72 68 68 65 65 59 55 53 50 49 45 37 34 35 32 37 35 46 50 52 45 48 36 37 37 30 26 26 23 24 20 20
88 88 87 87 86 90 93 91 87 85 80 76 74 78 76 76 72 68 66 61 59 58 55 51 45 44 40 40 37 36 24 44 51 48 45 41 46 37 33 29 29 30 25 28 27
89 88 86 86 89 87 89 90 92 89 86 83 83 80 80 78 78 76 72 69 66 63 56 53 49 47 46 42 35 31 31 24 31 48 52 49 48 46 41 37 36 31 31 33 30
97 95 92 90 89 90 91 92 92 93 89 89 89 88 83 83 82 81 79 76 72 69 64 55 54 53 50 39 41 36 30 25 27 28 41 53 52 55 48 46 43 40 38 36 34
102 100 95 95 95 94 92 93 92 95 94 92 93 93 90 86 88 87 84 79 77 73 69 62 57 57 54 50 49 43 38 31 21 25 29 37 51 56 52 48 45 43 41 39 39
105 105 104 102 97 97 96 96 94 95 96 95 93 95 96 93 91 94 90 84 82 80 76 69 65 62 62 58 51 46 43 38 36 31 22 17 24 35 50 53 49 46 43 42 42
91 90 91 96 102 104 101 99 98 97 97 94 97 95 96 100 99 96 95 91 86 84 82 78 73 69 67 66 58 52 47 41 38 31 33 25 29 28 29 41 56 52 48 48 47
71 72 74 76 83 95 102 103 102 101 100 96 95 100 98 101 105 102 100 97 94 88 85 81 79 74 71 70 62 56 49 46 36 34 37 37 36 37 35 30 35 51 53 50 50
55 59 62 63 65 72 89 100 104 107 106 104 98 95 101 100 102 107 105 103 102 97 92 88 84 79 75 74 70 63 55 50 46 42 39 40 37 41 43 30 23 28 33 41 49
46 48 52 53 56 57 66 82 97 104 110 109 107 99 95 100 103 101 106 108 106 104 100 95 90 87 81 79 76 68 61 58 54 49 44 41 45 45 45 37 30 30 30 29 30

GFSSW_250_spd_045.txt.gz
Wind_Speed
32 31 29 28 27 24 23 21 19 17 17 15 14 15 15 11 9 10 11 9 7 6 6 7 8 12 21 28 30 31 31 31 29 31 29 27 25 26 25 23 22 27 29 23 22
35 33 32 30 29 28 27 24 22 21 21 21 18 19 17 15 14 12 13 13 14 11 9 9 11 13 12 18 28 29 30 30 29 28 30 31 29 28 20 19 21 20 20 24 24
36 35 34 33 32 30 29 27 27 25 24 25 23 25 23 19 17 19 19 16 17 16 16 10 10 16 15 15 15 27 30 31 30 32 31 33 32 25 21 22 20 21 24 30 37
38 38 37 35 33 32 31 31 31 29 28 30 28 28 28 26 23 23 24 21 21 20 19 18 12 15 15 17 14 15 29 30 33 34 32 31 28 23 22 22 25 34 40 37 24
38 37 36 36 36 36 37 38 38 36 35 34 33 32 32 31 29 25 24 25 23 23 22 20 20 18 16 16 16 12 17 29 34 34 37 34 30 29 32 37 43 45 35 19 16
43 43 43 43 43 42 44 46 45 43 43 41 38 36 36 34 32 30 27 28 28 28 28 23 23 26 21 18 17 17 13 12 26 33 37 42 41 41 45 47 46 33 18 10 11
50 50 50 51 50 48 49 51 51 49 48 46 44 40 39 37 36 34 29 28 30 31 29 27 30 28 27 25 22 20 18 14 12 11 19 31 35 36 37 38 27 15 8 8 14
56 56 55 55 55 53 53 53 55 54 52 49 45 42 40 42 36 35 32 33 33 33 32 32 34 30 31 31 27 25 21 20 14 9 7 8 9 15 18 19 9 4 8 11 17
58 59 57 58 57 57 54 52 52 51 49 47 45 43 40 40 38 38 35 34 35 37 38 37 40 39 36 36 34 29 23 22 19 16 12 8 10 8 8 4 5 8 11 12 12
62 61 60 59 59 59 56 54 54 57 54 52 50 48 46 47 43 42 40 38 38 38 40 42 42 44 44 44 38 34 26 24 22 20 14 9 8 4 6 5 10 14 15 15 16
66 67 65 63 63 64 61 60 61 60 59 57 57 53 53 49 45 44 44 42 41 44 43 42 44 49 51 49 38 36 30 29 26 22 17 12 11 10 3 6 8 15 16 13 16
66 67 67 67 67 65 66 65 65 59 63 61 57 57 52 49 49 47 49 48 46 43 44 42 41 47 49 50 41 41 36 35 29 23 20 13 11 10 6 3 6 10 17 17 17
72 73 73 74 72 68 68 70 67 64 64 67 65 63 60 55 53 53 50 50 45 40 44 40 39 42 45 51 49 46 43 39 32 28 22 15 13 11 14 6 5 7 14 17 16
80 77 77 80 80 76 74 73 72 68 67 67 68 65 64 56 54 54 54 47 43 44 43 42 41 41 40 44 52 52 50 43 35 32 26 18 15 13 12 10 7 7 13 16 18
90 87 86 85 85 84 81 78 78 77 75 72 68 67 65 63 56 57 55 49 47 48 43 43 37 36 37 39 43 54 51 44 37 34 27 26 23 20 17 15 8 7 12 17 21
87 87 88 87 89 90 89 85 81 82 77 77 73 69 69 67 62 61 57 54 53 48 44 41 39 28 33 33 39 47 53 49 41 37 30 37 32 27 24 21 14 15 15 18 20
84 82 84 84 88 90 91 90 89 85 81 81 77 73 71 71 67 65 61 58 54 52 46 43 39 37 38 34 33 40 49 52 46 41 45 46 34 35 25 25 19 18 19 18 18
89 87 88 88 89 89 90 91 90 87 87 83 81 78 76 75 75 71 67 62 62 56 54 52 49 44 40 38 38 35 38 44 52 51 49 40 39 39 30 25 24 20 21 21 21
96 97 93 92 89 88 92 93 93 90 86 87 86 84 81 78 80 81 74 69 71 67 59 57 49 47 43 44 39 33 25 43 49 54 46 42 51 39 33 30 26 26 23 26 24
105 104 101 100 98 95 94 94 96 93 91 89 91 88 86 84 82 85 82 75 74 72 67 60 57 55 54 48 39 35 35 30 29 46 54 52 53 49 41 36 33 28 29 28 27
109 106 106 103 102 99 99 98 98 95 92 90 92 92 91 90 88 87 87 83 77 76 71 67 62 59 58 47 42 38 32 28 29 31 42 55 58 54 46 42 38 35 32 31 28
102 99 98 96 99 103 105 103 97 97 95 92 90 92 93 94 95 91 89 89 85 80 76 72 68 63 61 57 53 48 41 35 32 32 37 45 57 58 49 46 42 39 36 33 32
82 77 74 76 80 90 100 106 105 101 95 94 92 91 92 96 99 97 93 92 91 87 83 78 73 69 67 62 57 49 45 38 39 38 31 30 33 42 53 50 47 45 43 39 36
65 63 60 60 62 68 79 94 104 107 102 97 93 92 93 94 100 100 98 95 95 92 88 83 79 74 70 67 61 54 48 45 42 41 35 28 32 30 32 55 54 51 50 48 45
55 54 52 52 55 56 63 73 88 101 105 105 99 95 94 95 98 101 101 99 98 97 93 89 84 79 74 72 66 58 54 49 45 45 37 39 34 34 32 41 55 55 55 53 50
46 43 44 43 46 48 53 60 71 87 100 106 107 98 97 96 97 100 102 104 101 99 99 93 89 83 76 74 73 64 59 54 49 47 44 43 39 40 38 29 37 40 47 54 56
41 38 34 36 38 42 47 52 60 73 88 99 105 105 100 95 96 97 100 104 104 101 99 98 93 88 81 78 75 69 59 58 54 53 49 44 47 50 47 36 34 36 36 39 48

GFSSW_250_spd_048.txt.gz
Wind_Speed
34 33 33 32 30 28 25 22 21 18 17 15 12 10 7 8 8 4 7 6 4 5 7 8 10 11 12 18 26 30 35 36 38 34 36 35 33 31 30 29 29 24 27 26 23
39 38 37 36 34 32 29 27 24 22 21 19 18 16 14 13 12 12 9 10 11 9 8 8 12 14 12 12 13 24 29 32 34 31 33 32 34 32 30 28 29 29 23 22 24
41 41 39 38 36 35 33 32 29 26 25 23 21 22 20 18 18 18 16 14 16 15 14 12 12 16 13 13 14 14 21 31 31 31 28 29 30 29 29 29 28 20 23 24 28
41 41 40 39 38 37 37 34 31 29 29 27 24 25 26 25 23 23 23 20 20 20 18 16 18 17 14 15 16 12 12 24 29 30 27 27 29 29 30 28 23 24 26 28 38
42 42 42 41 39 38 37 35 34 32 32 31 29 30 31 30 29 27 27 25 24 22 19 20 18 22 20 17 16 15 11 12 24 28 28 30 31 31 28 25 28 30 32 35 40
45 45 44 43 41 41 40 40 39 38 37 37 35 34 38 36 34 33 30 30 27 26 25 22 22 26 22 23 20 16 16 12 10 24 30 31 36 34 33 33 37 39 41 44 25
49 50 50 50 49 49 48 49 48 45 44 43 42 40 42 42 39 39 35 33 31 30 27 24 25 28 28 28 27 22 16 15 14 12 14 25 33 36 38 42 44 44 34 25 13
57 56 56 56 56 55 55 55 54 52 51 50 48 46 44 48 43 41 38 36 36 33 31 27 29 29 31 32 30 28 23 19 17 14 10 7 13 16 19 21 25 23 17 13 14
63 62 62 62 61 62 62 61 60 58 57 55 53 49 47 46 47 44 42 41 39 37 36 33 32 31 32 34 35 31 28 24 21 17 14 10 11 13 10 8 9 15 12 12 12
65 66 66 66 65 65 63 62 63 61 60 58 56 51 45 42 45 41 43 42 39 40 38 35 35 36 35 37 42 35 32 30 24 21 16 15 12 10 8 3 3 11 12 12 13
73 73 72 69 70 70 66 65 64 64 64 61 59 54 54 51 51 45 45 45 46 45 40 41 39 39 37 42 40 35 34 36 30 26 19 18 16 12 15 8 3 7 13 14 16
73 76 76 76 74 73 73 72 72 69 68 66 64 64 58 56 53 50 50 51 49 46 41 47 42 41 39 41 38 38 40 40 36 29 23 20 19 13 13 10 7 8 13 15 13
78 81 82 81 80 79 77 75 74 71 69 72 68 68 64 60 56 54 51 50 48 44 50 46 41 44 42 42 39 41 46 45 40 32 28 22 21 17 14 14 12 12 14 18 20
84 85 86 87 87 85 84 82 80 77 75 74 75 72 70 64 58 58 57 55 52 52 52 47 43 45 42 38 37 42 52 49 41 37 33 26 23 23 17 17 18 14 10 15 20
86 89 91 90 91 93 90 87 86 82 83 78 77 74 72 68 65 61 63 59 55 55 49 52 47 44 41 37 33 38 45 48 46 40 35 32 30 28 23 16 16 11 11 16 21
84 86 87 89 90 92 91 90 91 93 89 83 81 81 78 75 68 66 65 60 59 57 50 52 49 41 45 39 37 32 37 42 46 44 36 41 39 30 28 18 15 12 13 17 23
89 90 91 93 94 93 92 92 90 90 91 90 86 84 82 81 76 74 72 65 59 58 52 55 52 48 45 42 40 31 34 39 45 43 42 48 36 38 28 24 21 14 11 16 19
98 97 97 95 95 97 96 95 95 93 91 85 88 89 89 85 83 78 77 72 66 63 63 60 56 53 48 47 45 37 33 32 42 54 55 42 38 42 33 27 26 21 18 18 22
104 104 103 105 104 102 102 99 101 100 87 88 88 91 94 91 87 84 82 77 71 69 67 64 58 57 51 53 48 41 26 35 40 48 50 46 51 42 37 31 30 28 27 26 25
109 109 108 107 106 102 105 105 103 100 97 95 96 90 92 95 92 89 88 81 76 76 72 65 65 61 61 60 48 36 39 26 26 35 45 52 55 50 42 38 34 31 30 32 29
99 94 92 94 98 100 104 107 105 101 98 99 99 97 94 94 98 96 92 85 84 79 69 71 70 66 66 58 51 45 39 33 28 29 38 53 58 56 47 43 38 36 36 33 35
79 75 73 72 71 73 81 92 102 106 103 100 99 95 95 96 99 101 97 93 88 81 78 79 76 72 66 65 60 53 49 43 35 35 37 48 59 59 50 46 42 42 39 38 36
67 64 62 62 61 61 61 67 79 94 103 105 102 101 94 94 100 101 99 97 93 88 86 79 78 79 74 72 66 54 49 41 37 38 33 32 41 46 53 49 46 46 44 42 40
55 52 48 51 51 52 53 57 62 72 91 100 104 103 101 96 96 99 99 99 97 93 89 84 86 82 76 74 71 64 56 47 42 41 35 32 35 38 50 56 53 50 49 47 45
51 47 41 40 42 45 47 48 54 60 74 91 101 105 107 103 98 94 99 101 99 98 95 90 87 88 86 80 73 67 59 54 47 50 43 39 39 40 41 56 59 57 55 53 50
47 42 37 36 35 37 41 41 46 53 61 77 95 103 108 108 103 96 89 99 99 99 97 95 91 88 88 82 80 74 66 59 55 55 53 47 42 43 38 42 55 61 61 58 55
42 39 36 32 31 31 33 35 38 45 54 66 80 96 104 108 106 97 93 93 95 98 100 97 94 90 89 89 85 79 69 64 61 60 59 54 52 50 46 43 48 53 61 62 59

GFSSW_250_spd_051.txt.gz
Wind_Speed
33 33 34 33 31 30 28 26 23 22 21 18 16 14 12 8 7 6 6 6 6 6 7 9 12 13 16 21 24 28 32 32 36 37 38 36 34 33 34 32 31 28 28 30 29
39 39 39 38 37 35 34 31 28 26 25 24 23 21 19 15 13 11 11 10 10 10 9 10 12 11 12 12 12 12 21 28 33 33 32 34 33 30 32 34 31 28 26 27 23
42 42 43 42 42 40 38 36 33 31 29 27 27 26 25 22 19 18 15 16 16 14 15 14 14 14 12 13 12 13 10 24 24 30 37 29 27 28 27 26 25 25 27 27 24
43 44 44 43 43 42 40 38 36 35 34 32 31 31 29 28 24 25 22 20 21 19 18 19 18 18 15 16 13 13 15 15 13 23 25 25 26 23 24 24 25 27 29 28 27
46 46 46 45 44 43 42 41 40 38 37 35 33 34 33 30 29 29 28 26 26 26 20 22 22 21 18 18 17 17 15 13 11 12 24 28 27 27 27 28 31 31 29 27 31
51 51 51 50 49 47 45 44 42 40 38 37 36 37 37 35 33 33 32 32 31 31 27 24 25 24 25 22 21 19 18 16 12 11 11 21 24 27 30 32 32 35 32 32 34
55 55 54 53 53 51 49 47 45 44 43 41 40 41 40 41 36 38 37 36 36 34 34 28 29 31 29 27 26 24 21 18 16 12 9 11 18 27 32 37 39 41 40 43 40
59 58 58 58 58 57 55 54 53 51 50 48 45 45 45 45 42 42 42 40 38 39 38 35 33 33 30 30 29 26 24 22 20 15 12 10 9 13 21 24 26 28 32 27 20
65 64 64 65 65 65 64 63 60 58 57 56 54 51 50 50 50 48 47 45 43 42 42 40 36 38 33 32 29 28 26 25 20 18 16 13 4 22 14 15 17 19 20 20 19
70 70 70 70 69 69 68 69 69 67 65 63 61 59 57 56 55 53 51 48 47 45 45 44 41 40 38 34 33 30 26 25 26 21 19 19 16 9 21 10 10 12 15 20 20
75 75 75 74 73 72 73 71 69 68 70 69 65 63 61 59 56 53 53 49 48 48 50 47 45 44 45 41 36 33 28 29 30 26 23 24 21 19 18 15 13 11 16 19 18
79 80 79 78 78 78 76 76 76 74 73 71 69 68 63 63 60 56 54 52 51 50 46 43 48 46 43 43 38 36 33 30 34 33 30 26 25 22 19 17 14 9 11 14 18
85 85 86 86 85 84 83 82 80 77 73 78 74 70 71 67 64 58 57 59 57 51 51 51 49 45 46 47 43 43 38 36 40 39 35 28 29 25 20 19 16 14 11 17 17
92 92 93 92 92 92 90 90 87 84 80 79 83 74 73 70 67 64 66 64 60 56 56 55 46 49 50 49 45 43 45 38 42 42 39 33 31 27 24 22 19 16 13 12 23
86 90 94 96 98 98 98 97 95 91 91 89 82 81 78 73 72 69 70 67 62 64 59 58 52 53 50 50 45 46 40 39 41 42 44 35 33 33 27 24 20 16 16 15 19
95 96 97 97 97 97 98 100 98 99 97 100 89 88 85 81 79 75 69 67 69 69 63 61 58 50 55 47 48 44 39 38 40 41 38 39 41 36 33 25 20 18 19 17 21
100 104 105 104 103 100 99 98 97 97 103 106 96 93 92 88 84 79 76 74 68 65 62 62 60 58 54 48 49 44 42 39 38 38 32 47 44 44 39 29 25 22 18 17 21
105 105 105 105 104 104 103 101 101 105 112 92 88 92 96 93 92 86 82 79 73 71 71 67 65 56 52 49 50 46 42 36 37 40 50 57 46 46 44 36 29 26 20 17 21
104 105 107 107 107 107 105 103 103 102 101 95 93 92 95 102 96 94 87 85 81 77 72 68 64 65 59 58 55 50 37 43 37 40 50 50 53 52 41 37 35 31 24 21 23
95 95 96 95 95 98 103 106 109 105 101 97 95 99 101 105 98 100 97 92 87 83 81 75 72 68 64 58 52 42 47 34 33 34 39 49 53 49 46 42 38 34 31 28 25
81 78 76 74 74 75 78 86 98 107 111 102 102 99 101 100 96 96 97 102 96 90 85 82 77 73 70 55 54 51 44 38 32 31 38 48 55 57 50 45 40 39 34 34 31
68 65 60 61 63 60 62 61 69 81 101 107 107 106 102 100 98 100 107 103 93 93 88 86 79 76 62 65 64 57 53 45 38 33 35 45 58 56 55 49 45 41 37 36 36
59 58 55 56 54 51 52 52 54 61 78 98 111 114 108 102 96 101 104 92 95 96 93 89 79 74 75 73 67 58 53 48 46 45 43 41 49 57 57 54 50 46 46 43 40
54 53 49 46 48 48 47 42 47 52 62 81 98 112 113 109 104 103 98 95 100 99 93 87 83 78 76 67 70 65 58 55 51 47 41 40 41 43 55 59 55 53 50 49 46
54 48 46 41 40 40 40 39 40 45 53 68 86 100 110 115 111 109 97 92 98 98 99 96 89 84 85 87 81 72 64 60 54 51 44 46 45 44 49 60 60 55 54 53 53
47 45 42 36 35 33 31 32 36 39 48 60 74 87 101 113 114 115 100 93 101 99 100 97 93 92 91 87 76 70 65 63 61 57 54 52 47 49 44 55 62 63 60 61 58
45 43 38 34 31 30 27 27 29 34 41 51 64 74 88 103 111 113 108 96 95 92 96 93 99 95 88 84 79 76 71 69 67 63 60 57 54 53 47 47 54 63 66 65 61

GFSSW_250_spd_054.txt.gz
Wind_Speed
32 31 31 32 32 31 29 26 25 22 20 20 19 17 13 11 9 7 6 5 6 10 15 20 24 27 30 32 33 35 36 37 39 43 43 43 44 40 39 36 32 31 32 29 28
38 38 38 38 38 36 34 32 30 29 26 24 24 24 22 19 17 14 12 11 10 9 10 12 13 14 15 16 17 18 20 24 25 33 35 35 33 35 34 30 25 27 30 27 21
44 44 43 43 42 41 39 38 36 35 32 29 28 28 28 26 24 22 19 17 16 14 14 13 13 13 13 15 15 13 10 20 16 15 25 24 24 28 28 25 21 21 22 21 25
48 48 48 47 46 45 44 42 40 38 36 33 32 31 32 32 31 29 27 22 21 20 19 16 18 18 18 17 14 12 18 12 24 21 15 21 29 25 23 21 17 22 24 26 29
51 50 49 48 48 47 46 44 43 42 40 38 35 36 36 36 35 35 34 31 27 25 22 21 21 22 20 22 21 16 16 18 21 17 14 22 21 27 22 20 22 25 27 30 31
52 52 52 52 52 51 50 49 47 45 44 41 39 39 39 40 39 39 38 37 34 32 29 25 24 24 24 28 25 21 19 17 15 12 13 15 15 15 21 22 24 29 35 34 31
56 57 58 57 57 56 55 54 52 51 48 45 43 43 42 41 42 41 42 41 39 37 35 31 27 29 30 30 29 27 23 18 16 14 13 11 9 10 11 24 26 30 34 35 34
62 62 63 63 62 61 60 59 56 55 53 51 48 45 49 44 49 45 45 44 42 42 41 37 33 32 31 32 31 30 25 24 20 16 15 8 2 19 16 15 20 23 22 24 22
66 66 66 66 66 66 64 63 60 59 57 56 54 51 52 51 51 49 49 49 46 45 44 42 38 36 35 33 33 30 29 28 24 20 16 11 5 26 17 13 24 21 20 18 17
71 71 72 72 72 72 71 70 69 67 65 63 60 59 56 57 55 57 54 51 50 48 48 47 45 40 37 37 37 36 30 27 25 22 22 14 10 13 15 22 25 23 19 17 11
78 78 78 79 79 79 79 76 76 73 74 71 67 68 64 64 61 61 60 57 55 53 53 52 48 45 43 41 38 37 33 27 27 24 25 23 18 18 30 20 30 24 17 14 11
80 81 81 82 82 82 83 83 82 80 76 78 73 71 72 70 68 65 64 62 60 60 59 52 49 49 46 44 40 39 37 33 31 28 28 29 27 24 27 31 24 21 21 15 16
88 89 89 89 90 90 89 87 86 84 78 82 82 78 82 73 71 69 66 66 62 59 57 52 55 47 45 47 46 43 40 40 38 36 35 34 32 37 30 30 25 22 20 15 21
95 97 98 99 98 98 97 97 95 90 87 86 92 86 84 78 75 76 69 68 65 60 63 56 56 49 46 47 47 45 46 44 43 38 34 36 34 33 33 31 26 24 21 13 20
92 95 97 99 100 101 102 103 100 97 95 99 93 93 88 84 80 82 77 75 67 67 64 56 59 53 51 57 51 51 48 45 44 42 41 36 38 37 36 34 30 25 22 19 15
92 95 100 101 102 101 99 97 93 94 102 117 96 96 94 88 84 84 82 77 77 74 68 67 65 55 58 54 52 53 45 46 44 43 40 40 38 44 40 39 32 27 25 23 17
99 102 103 104 104 100 99 97 95 97 105 107 90 93 96 94 92 91 87 80 77 72 65 68 63 61 63 58 53 52 47 45 44 40 37 40 40 47 46 43 35 30 27 22 18
102 102 104 106 106 105 103 100 97 96 104 103 95 87 85 101 107 102 97 87 83 75 78 73 69 64 62 57 58 55 51 47 48 45 45 46 38 49 51 47 40 32 29 23 21
92 91 91 92 94 94 94 95 95 93 100 102 94 92 96 105 103 109 101 94 88 84 76 77 68 73 67 64 61 58 47 57 48 42 43 42 43 57 55 49 40 35 30 26 23
81 78 75 76 77 78 81 83 87 90 94 97 93 94 98 101 99 104 102 96 96 93 88 79 82 75 71 69 64 57 57 55 44 44 45 43 43 48 54 48 45 37 34 30 26
70 67 58 64 65 65 67 67 72 78 83 89 93 96 100 105 96 103 101 101 105 104 96 91 86 81 81 68 62 58 53 46 50 46 45 41 45 48 52 52 46 40 39 35 31
58 57 55 54 53 54 56 58 62 63 69 72 85 97 101 98 97 97 105 102 94 96 94 92 90 89 78 66 67 64 59 55 48 47 44 40 46 42 45 54 49 43 42 40 37
48 47 47 48 47 48 45 45 50 52 59 61 74 87 98 98 101 100 103 104 96 93 93 97 90 82 82 76 69 62 60 57 55 55 49 44 42 44 49 57 54 49 47 46 42
45 42 44 42 40 40 39 37 39 40 53 55 65 76 90 98 104 110 107 102 90 98 92 86 91 90 81 67 67 66 66 63 59 53 50 48 49 47 49 55 58 52 52 50 47
46 44 40 38 38 35 32 32 33 34 41 50 57 68 78 92 106 113 112 98 93 94 94 89 93 93 86 81 80 75 72 68 61 55 51 54 52 45 45 51 61 57 52 53 51
42 43 45 41 37 35 32 30 29 30 33 40 49 60 70 83 100 107 116 101 96 91 96 92 90 89 85 90 91 83 79 72 68 63 59 57 57 51 48 45 58 64 60 57 54
44 46 45 39 38 33 29 28 27 28 26 33 42 49 62 74 86 101 108 107 101 90 94 94 94 86 85 90 89 84 76 71 70 70 65 60 59 59 50 46 52 63 64 62 60

GFSSW_250_spd_057.txt.gz
Wind_Speed
37 35 34 32 30 30 30 28 25 22 21 18 18 16 15 12 9 10 9 10 16 27 37 40 40 39 35 34 32 34 34 34 37 38 41 42 44 42 41 43 38 33 31 29 22
41 40 38 38 37 36 35 33 30 28 26 25 24 22 21 20 17 14 13 14 12 13 16 23 30 36 39 41 39 38 40 41 41 42 42 43 39 38 37 36 30 27 26 21 14
45 45 44 43 43 42 41 39 37 34 31 30 29 29 26 25 25 23 19 18 17 15 14 14 16 19 22 24 24 24 25 24 24 27 24 19 25 31 26 31 26 23 19 14 12
49 50 49 49 49 47 46 44 42 40 36 35 34 33 33 31 29 30 28 25 23 21 19 17 18 19 20 18 18 19 20 21 20 24 26 18 22 22 23 24 22 23 19 13 17
53 54 54 53 53 52 50 49 47 46 42 39 38 36 36 38 34 33 34 32 31 27 24 22 23 21 21 22 21 20 18 23 19 20 23 22 23 17 19 21 18 17 20 20 19
57 57 57 57 57 56 54 52 50 48 46 44 40 39 40 43 39 38 40 38 37 35 33 29 26 23 23 27 25 23 19 19 16 19 19 17 14 8 14 15 15 16 17 22 23
59 60 60 60 60 59 58 56 55 54 51 49 46 44 45 43 43 43 44 44 43 41 40 36 31 29 27 28 24 23 25 22 17 20 17 16 12 9 3 12 14 13 16 20 19
61 62 62 62 63 62 62 62 60 59 58 56 51 50 52 45 47 48 44 48 48 46 45 42 38 35 31 30 27 28 27 29 25 22 18 16 10 17 25 16 14 13 13 18 18
66 67 68 68 69 68 68 67 66 63 63 60 58 55 56 54 52 51 49 50 50 50 48 46 43 38 35 33 30 31 31 31 29 27 24 20 13 17 19 20 20 18 17 15 22
72 73 74 74 74 74 73 72 71 69 67 65 61 60 58 60 57 57 56 53 54 52 51 49 47 44 39 36 39 35 33 31 31 29 27 22 17 20 23 26 18 14 16 20 19
75 78 80 81 82 82 83 81 78 75 75 73 69 68 67 65 61 60 62 58 56 55 56 54 50 49 47 44 41 36 34 32 32 31 29 23 21 22 22 29 28 18 18 21 18
81 82 82 82 83 85 86 87 87 85 82 83 79 75 78 71 67 68 66 64 62 62 60 55 53 55 51 47 44 39 37 37 36 34 33 27 28 25 22 16 24 20 12 13 23
89 90 91 92 92 92 90 88 87 86 86 90 88 86 87 76 75 75 73 72 67 67 62 60 65 57 54 50 46 42 41 42 41 41 39 35 31 28 28 28 23 31 14 19 20
93 96 97 100 100 99 98 96 93 91 97 92 91 89 87 85 78 83 81 78 74 70 71 67 68 61 59 52 49 45 49 48 46 44 43 41 33 31 33 26 31 27 22 22 17
88 93 98 99 103 105 105 104 101 97 106 100 92 93 90 85 87 89 87 86 79 77 78 66 71 66 60 56 53 55 51 50 48 44 47 41 36 35 32 35 36 31 23 22 20
94 98 100 96 97 97 96 96 96 97 106 108 103 97 98 93 95 96 90 87 87 85 77 74 76 71 62 60 55 62 51 49 46 45 44 41 41 40 39 41 40 35 28 27 26
97 101 104 106 106 105 103 101 98 94 96 100 93 96 99 105 105 105 98 93 86 80 76 78 74 68 64 62 60 58 50 48 44 40 38 48 44 49 46 47 42 39 35 31 27
96 98 99 100 98 98 100 100 99 95 94 100 94 96 95 100 102 105 103 96 89 87 85 80 78 72 69 61 62 62 61 53 50 51 52 56 48 50 51 48 41 41 40 36 31
86 84 83 84 83 83 84 89 94 89 91 98 94 97 98 102 93 99 96 97 99 97 94 88 80 84 82 75 72 68 54 59 58 58 56 49 48 55 52 45 42 38 37 35 33
64 62 62 65 67 68 71 74 78 77 82 92 90 91 98 105 95 94 93 97 100 104 101 88 91 87 83 83 75 67 69 64 59 51 50 50 52 53 47 41 40 38 40 39 34
54 52 51 53 55 57 60 61 63 66 71 77 80 88 91 101 95 97 95 95 100 101 102 97 89 85 90 78 69 70 66 62 63 58 57 55 54 51 47 44 39 39 42 42 38
50 46 43 42 46 48 50 53 54 59 60 61 67 79 85 93 91 97 99 98 96 100 96 100 89 95 83 72 71 73 68 67 61 59 59 58 52 47 43 42 40 39 44 46 44
45 43 36 34 34 37 42 43 43 46 53 56 56 63 73 84 91 94 97 100 97 97 95 91 96 94 87 87 81 69 64 61 62 65 61 57 56 51 46 43 43 43 47 50 49
42 37 36 36 33 32 35 38 40 37 39 47 51 56 64 75 87 90 98 102 100 95 95 91 88 90 89 81 77 71 68 65 65 60 61 57 58 52 48 47 44 46 52 55 53
38 39 36 39 43 39 36 33 34 32 31 36 43 49 54 66 75 86 100 103 102 99 96 90 84 82 87 85 80 79 79 75 65 64 64 63 60 52 50 44 45 48 55 57 56
39 36 42 41 39 37 33 30 30 29 28 28 35 44 47 59 67 78 92 102 103 101 96 87 90 84 84 87 88 88 80 74 69 68 67 66 62 53 53 47 46 50 58 62 59
38 37 36 36 38 37 34 28 27 25 24 24 28 33 42 49 58 66 82 100 104 101 97 88 89 84 86 92 92 84 77 75 76 73 68 63 60 60 56 51 50 48 57 66 62

GFSSW_250_spd_060.txt.gz
Wind_Speed
40 40 38 36 35 34 33 31 29 25 22 19 17 16 14 14 13 13 13 19 29 38 37 39 36 35 32 29 32 32 32 30 29 30 28 13 24 30 33 41 42 36 34 29 27
44 43 43 41 40 39 38 37 34 30 28 26 24 22 21 20 19 18 17 17 20 28 37 43 41 38 38 36 35 36 39 37 35 38 37 38 41 38 46 44 41 30 28 26 27
47 48 48 47 46 44 43 42 41 37 33 32 31 29 28 27 25 25 22 22 21 20 21 25 32 41 43 42 41 41 40 39 39 40 42 43 42 42 37 33 31 26 26 24 24
49 50 51 52 50 49 48 47 46 43 39 36 36 36 35 33 29 31 28 28 24 24 22 22 22 23 24 26 31 33 37 36 35 35 34 33 25 29 21 23 20 21 21 18 15
52 52 53 54 54 53 52 52 50 49 45 43 41 40 41 40 33 36 35 34 33 29 27 27 26 24 23 21 24 22 22 21 24 25 22 22 28 30 15 14 15 15 13 14 14
56 56 56 56 57 57 57 56 55 53 51 48 46 45 47 45 40 41 41 40 39 37 34 33 29 26 25 27 28 22 21 20 21 24 21 19 24 23 12 8 7 2 7 11 15
59 60 60 60 60 60 59 58 57 56 55 53 50 49 50 44 43 49 45 46 44 43 42 39 34 34 30 32 27 21 21 21 25 21 20 16 17 15 12 12 3 6 4 7 12
63 64 64 64 64 64 63 62 61 60 60 58 55 53 57 48 50 51 46 49 50 49 47 45 42 40 37 36 29 26 24 25 25 23 18 17 17 16 18 19 13 4 1 11 12
66 67 68 68 68 68 67 66 65 65 63 60 59 59 61 56 53 51 54 51 54 54 52 49 47 46 42 40 34 31 32 29 26 25 22 19 19 18 19 21 21 12 12 10 12
73 74 75 75 74 74 73 72 71 72 69 65 65 66 65 64 60 59 60 57 59 56 54 52 51 48 48 46 45 43 38 32 30 29 26 24 24 21 18 20 22 17 17 10 7
77 79 80 80 80 80 81 80 79 79 75 74 72 72 71 67 65 64 63 61 59 58 59 57 52 55 56 51 50 46 40 35 31 31 27 27 26 23 22 25 25 26 17 9 13
83 84 85 85 86 85 85 85 86 86 88 81 79 78 78 70 70 70 68 66 65 65 65 57 57 63 59 55 52 49 44 41 37 35 34 31 30 25 23 24 23 23 25 13 12
82 87 90 94 93 94 93 91 91 89 90 89 88 85 87 78 79 80 76 74 70 71 65 62 71 65 61 58 55 50 47 49 46 43 38 33 33 32 24 29 23 23 25 21 14
84 84 84 89 90 95 98 99 99 99 99 93 92 89 87 88 88 92 88 81 76 72 70 67 73 65 62 59 57 53 56 54 52 46 38 40 39 34 30 28 28 24 24 30 20
89 91 95 96 97 94 93 91 92 97 104 98 97 97 95 90 92 93 92 88 81 79 76 68 76 71 68 65 61 61 61 58 56 51 46 43 37 38 30 30 31 31 27 31 28
84 85 86 84 87 90 93 97 101 100 99 88 93 100 101 100 97 98 93 89 90 89 81 78 82 72 70 74 68 72 65 62 60 55 44 43 39 39 36 39 36 33 30 28 28
78 79 83 86 88 91 93 93 91 89 93 92 97 94 93 101 106 104 101 96 93 89 83 85 82 77 75 75 72 75 71 66 59 51 40 46 41 41 44 44 40 36 32 33 29
77 80 86 88 86 86 84 85 85 84 86 86 86 94 100 94 96 104 109 105 100 93 86 86 88 81 77 74 76 75 72 66 59 52 52 51 40 49 50 47 40 37 35 32 30
69 67 66 64 62 64 67 71 71 75 78 80 83 91 98 95 100 97 101 108 107 101 97 90 85 87 84 81 79 75 65 69 66 60 56 49 49 55 50 49 43 43 38 37 33
56 52 51 50 50 52 55 59 62 65 68 71 77 83 90 93 97 101 103 102 105 106 104 99 88 88 82 90 86 76 74 73 64 60 54 52 52 54 51 51 46 43 41 44 40
45 41 43 42 43 45 49 52 54 55 56 60 67 74 80 89 97 99 105 104 99 103 103 106 94 95 96 85 76 78 74 71 68 65 57 59 56 62 59 52 43 42 45 45 44
41 36 36 33 36 37 40 43 48 51 52 53 57 62 72 82 91 94 100 104 101 99 101 101 100 103 96 86 83 82 80 77 71 61 58 62 67 60 57 48 41 40 38 40 45
46 39 32 28 34 37 39 40 39 41 47 49 50 53 61 74 83 90 98 104 102 99 97 98 98 99 97 94 90 88 77 71 70 69 66 66 68 58 56 49 44 45 42 40 44
42 33 30 30 29 31 36 41 41 35 42 41 47 47 52 65 74 82 89 99 98 99 97 96 98 97 97 98 97 85 79 73 70 68 69 68 68 64 60 54 49 49 47 47 45
40 34 29 32 35 35 35 37 38 39 38 34 34 43 46 55 65 70 75 85 92 96 96 95 95 99 95 97 93 85 77 71 70 67 66 76 70 64 62 58 55 53 52 49 48
36 30 32 35 37 36 40 40 35 31 35 30 30 34 41 45 50 62 66 77 89 98 98 95 97 92 91 92 90 86 80 77 72 68 69 77 73 67 66 62 60 59 54 51 46
32 31 34 38 41 44 44 41 35 30 25 26 24 28 36 37 47 53 60 68 86 98 100 97 97 90 93 93 93 94 90 88 78 79 75 77 75 69 66 64 61 59 55 49 47

GFSSW_250_spd_063.txt.gz
Wind_Speed
40 39 39 38 36 35 33 33 30 30 27 24 21 20 18 16 16 17 25 33 37 37 41 38 36 33 30 31 32 30 29 29 24 27 25 25 28 25 23 28 36 38 44 37 28
44 44 43 42 40 40 39 37 36 35 33 31 29 27 25 22 21 20 20 23 30 35 39 41 41 38 36 37 34 33 34 32 32 33 32 31 31 33 34 38 39 38 36 27 24
48 47 46 45 45 44 44 43 41 40 38 37 35 34 32 29 26 25 25 24 23 27 33 37 42 42 41 39 38 37 36 37 37 37 37 36 36 34 35 34 28 30 22 20 19
51 51 50 49 48 48 48 48 47 46 45 43 41 40 39 36 31 33 28 29 28 27 25 28 35 40 44 44 43 40 39 38 38 38 40 42 41 39 38 35 26 24 15 10 10
56 56 55 54 53 52 51 51 52 51 50 48 47 46 45 42 37 39 36 35 34 32 29 30 29 29 34 33 39 40 39 39 39 38 36 40 29 30 28 23 25 21 5 6 3
61 60 59 59 58 56 55 55 55 55 54 53 52 50 51 47 44 46 43 42 39 39 37 35 31 26 25 29 29 24 27 27 27 26 26 27 18 15 19 21 20 6 3 6 7
60 61 61 61 60 60 59 59 58 58 57 56 56 56 58 49 50 52 47 48 45 43 43 41 36 36 32 34 24 26 27 28 25 22 20 25 21 18 19 17 13 7 4 2 7
62 62 63 63 63 63 63 63 64 63 62 60 60 60 64 53 54 53 54 52 53 49 47 43 43 42 39 39 32 29 28 33 25 24 24 23 20 16 16 14 21 10 7 4 6
69 69 69 68 68 68 68 68 68 68 65 64 65 65 65 60 57 59 59 58 56 56 52 48 47 49 45 43 38 36 37 38 30 26 24 26 22 17 18 20 19 21 16 11 8
72 74 74 75 76 76 76 73 73 73 69 70 69 70 67 66 64 62 64 61 60 57 54 52 53 51 50 48 49 49 44 39 34 29 27 28 23 21 20 21 20 20 16 13 9
78 79 81 79 80 81 83 82 82 82 76 75 74 74 72 70 71 67 69 65 62 60 58 57 54 55 60 57 55 51 48 43 38 30 29 28 25 24 24 20 23 19 19 7 5
77 80 84 85 86 87 86 86 86 88 87 84 82 80 78 77 77 74 74 72 67 66 65 58 55 65 63 60 57 54 53 52 45 36 36 32 29 24 25 23 20 22 18 20 10
74 82 87 88 87 86 89 92 92 92 91 89 89 86 86 83 84 79 79 76 72 72 68 64 68 69 64 62 59 57 58 58 54 48 41 34 29 26 28 27 21 24 17 17 15
74 76 77 80 84 89 92 92 90 93 96 96 92 90 92 90 92 88 85 82 80 77 73 68 71 69 67 62 61 59 64 60 58 48 43 41 37 31 32 30 24 23 22 15 23
69 72 76 81 83 84 84 86 92 96 93 95 97 98 98 96 95 94 93 90 87 84 80 69 74 70 68 66 66 67 64 63 60 52 49 44 38 36 31 32 31 30 24 17 24
66 72 76 77 81 86 88 86 85 88 92 95 97 97 100 103 102 100 97 96 93 91 86 79 80 75 73 75 70 75 68 66 61 54 49 45 40 37 40 38 35 35 29 24 26
66 74 76 73 71 74 78 78 78 78 82 84 93 100 102 100 104 108 104 101 98 95 94 89 85 79 80 75 74 76 71 68 61 52 44 49 41 44 43 40 40 39 31 28 23
67 72 69 63 58 58 62 70 74 76 79 79 83 88 94 102 105 106 107 110 107 102 95 92 94 89 86 79 77 75 74 68 60 55 49 52 41 48 50 46 43 39 34 30 27
68 62 57 52 48 48 48 52 58 68 77 85 90 91 93 96 102 108 110 109 110 109 105 96 93 97 93 88 87 81 72 71 68 64 58 53 50 56 50 46 45 43 38 36 32
63 57 49 44 42 43 44 47 48 53 61 69 77 81 89 100 105 108 110 110 109 109 111 104 98 98 96 95 91 82 82 79 69 65 58 55 52 56 51 50 50 49 44 41 36
58 54 46 42 38 40 43 45 45 47 52 55 63 70 74 85 99 110 109 109 111 110 110 111 102 103 98 97 94 91 88 81 78 72 63 61 52 61 56 56 54 52 46 44 41
58 48 44 39 35 35 37 39 42 47 46 52 56 59 65 76 87 101 107 110 111 113 111 108 108 107 103 96 94 93 88 85 78 69 65 62 56 66 62 59 58 54 50 49 44
56 46 39 39 36 36 35 36 36 40 44 47 50 55 58 66 76 88 98 105 111 113 113 109 107 110 105 104 102 95 93 89 81 80 70 64 66 70 65 60 55 50 48 47 45
50 41 37 33 33 34 39 39 40 39 41 43 47 46 51 57 64 72 85 96 106 109 110 111 105 108 110 110 104 96 92 85 82 76 68 57 82 67 62 59 57 54 54 50 45
41 37 31 32 33 33 36 39 41 42 40 40 37 37 42 49 55 61 74 82 95 102 105 110 108 105 108 112 107 100 94 89 79 73 69 68 78 67 68 71 65 58 56 53 50
35 30 28 28 31 39 43 41 43 42 42 37 34 31 34 43 45 55 65 72 78 90 99 103 106 105 103 106 105 105 102 94 82 77 73 77 76 79 75 67 63 58 56 56 51
28 28 27 29 36 41 46 44 45 45 34 34 29 29 30 34 44 47 57 65 68 77 89 97 104 105 100 105 106 106 106 97 91 81 78 81 83 80 73 69 65 60 58 57 52

GFSSW_250_spd_066.txt.gz
Wind_Speed
38 38 37 36 35 33 33 32 31 30 29 27 24 22 21 20 24 31 36 39 41 40 38 38 35 32 31 28 28 29 27 25 24 23 22 21 21 21 24 29 31 33 39 38 31
43 43 43 41 40 38 39 38 36 36 35 33 30 29 26 25 24 23 25 33 38 40 41 42 41 38 37 33 32 29 30 28 27 25 25 25 26 26 29 31 33 33 33 33 25
49 48 46 45 44 42 41 41 41 40 40 39 37 34 34 31 29 29 26 26 27 33 40 42 41 41 40 39 33 31 32 33 32 33 30 31 30 30 31 36 36 34 27 28 23
54 54 53 51 49 47 45 45 45 45 45 45 44 42 39 37 35 37 32 30 28 27 27 34 40 41 42 41 38 38 35 34 34 35 36 35 35 37 38 39 35 25 22 24 15
57 56 56 56 54 53 51 51 50 49 49 49 50 50 47 42 42 42 38 35 34 33 30 28 28 35 40 41 42 40 38 40 40 39 38 37 38 38 34 29 17 14 22 14 10
60 61 61 62 61 60 59 57 56 55 53 53 53 55 55 48 46 48 46 43 39 35 37 33 29 25 27 33 39 37 41 42 40 40 39 36 33 30 23 14 14 14 14 7 5
60 61 63 65 65 65 64 64 62 61 58 58 58 58 60 52 52 52 51 49 48 42 40 37 35 33 31 30 23 25 28 31 30 33 34 24 21 22 18 16 14 12 15 9 6
62 63 63 64 65 66 66 67 67 67 64 64 64 64 62 60 57 57 57 55 54 51 47 43 41 39 37 37 29 28 28 30 25 27 26 22 19 20 17 17 13 12 6 8 10
65 68 69 72 72 71 71 70 70 71 68 67 67 69 67 66 62 62 62 60 58 56 54 48 47 47 42 43 38 33 38 35 28 28 28 26 21 21 17 15 13 13 13 15 15
66 71 72 72 74 77 80 79 78 77 72 72 72 73 72 71 68 67 67 65 63 61 56 53 52 51 48 47 48 46 45 39 34 31 30 29 23 22 19 17 14 13 14 16 15
53 54 62 72 77 81 83 83 86 88 81 78 77 78 77 76 74 71 73 67 66 63 61 60 55 54 60 55 54 49 49 43 37 32 31 32 26 23 18 19 16 13 12 11 9
64 62 58 55 60 73 84 89 91 90 90 88 86 85 82 81 79 78 77 74 69 67 67 62 57 66 61 57 56 53 53 49 45 39 38 34 29 23 23 21 20 15 14 11 15
67 67 67 66 68 72 74 85 93 95 96 92 90 91 90 89 85 82 82 79 76 73 71 67 71 69 65 61 59 56 56 56 52 48 44 37 32 31 27 28 22 17 16 10 14
72 71 74 74 79 77 75 79 86 95 96 98 96 95 95 96 95 90 88 84 82 79 77 74 74 71 69 64 62 59 62 63 57 51 47 43 38 36 30 29 21 19 17 14 10
72 73 78 82 86 80 73 72 79 85 89 94 97 100 101 100 99 96 96 94 88 85 81 76 77 75 74 70 68 68 67 67 62 54 50 44 40 38 33 33 28 26 21 16 11
78 82 82 80 78 75 72 69 69 75 78 85 90 97 104 103 105 104 100 99 97 93 87 84 83 79 79 81 75 74 71 70 63 57 48 44 41 39 40 38 31 27 24 22 17
80 75 71 71 71 72 71 68 65 69 77 82 86 92 97 102 107 106 107 104 102 100 96 90 86 86 86 85 81 78 75 70 62 54 42 44 42 45 46 42 35 30 29 24 19
66 64 67 65 62 60 59 59 57 60 66 74 81 89 94 96 100 108 108 110 107 104 102 98 94 92 88 87 84 81 78 70 63 56 47 46 41 50 55 45 41 37 31 25 25
63 62 66 60 55 52 49 48 48 50 52 60 70 82 87 91 98 102 110 111 110 111 108 104 100 100 94 91 89 83 77 73 73 65 57 50 50 54 51 47 43 38 31 35 32
65 64 59 58 52 43 40 37 37 41 44 50 57 69 80 88 89 98 105 112 114 112 113 109 104 103 102 97 93 89 85 85 74 68 61 56 56 56 53 51 49 41 41 41 39
66 59 57 52 45 36 34 34 34 38 40 44 49 56 66 78 87 91 99 107 114 115 113 113 110 108 106 102 100 97 92 86 79 74 66 62 55 60 58 56 53 50 48 45 40
60 56 50 41 34 31 28 31 35 38 38 42 47 52 57 68 78 87 94 100 109 115 116 114 112 113 111 109 105 102 99 92 84 74 69 65 61 66 63 60 57 55 53 49 41
57 47 37 32 28 27 28 31 36 36 38 40 43 50 55 59 67 79 86 96 104 109 113 114 113 114 118 115 109 104 103 97 86 80 71 67 64 69 67 63 60 58 56 49 44
44 28 26 27 30 28 30 31 34 36 38 41 43 44 50 60 64 69 80 84 92 106 111 109 113 116 116 120 116 111 104 100 94 85 77 69 68 70 73 67 65 62 58 52 45
31 24 25 26 22 27 30 33 36 42 45 45 41 42 48 53 60 63 67 75 81 89 103 113 110 115 118 120 121 119 111 101 93 90 80 76 75 76 78 73 69 64 57 50 46
24 24 25 22 22 26 31 35 39 47 51 50 38 41 41 41 49 55 56 62 73 79 88 100 112 113 116 122 119 120 114 106 95 89 84 84 82 82 82 74 67 62 54 51 52
24 23 22 19 27 35 41 42 43 50 51 40 34 33 33 33 38 44 49 53 62 73 79 89 101 113 118 118 119 116 117 111 96 87 86 88 86 88 85 76 69 62 61 59 54

GFSSW_250_spd_069.txt.gz
Wind_Speed
36 36 37 36 35 33 32 31 28 27 26 24 22 21 21 21 35 40 41 41 39 38 36 34 32 31 29 27 25 24 26 24 23 22 19 21 22 20 19 22 23 26 29 34 31
42 42 41 40 39 39 38 37 36 34 32 33 29 27 26 25 26 31 41 44 44 43 41 40 37 35 35 33 30 27 25 26 23 21 21 22 23 22 24 26 27 29 32 30 25
48 48 47 46 45 45 44 42 41 39 37 37 37 34 32 31 30 31 29 36 39 42 45 44 42 39 39 36 32 31 28 27 26 29 27 25 27 24 28 28 29 28 27 21 21
49 51 51 50 49 49 47 45 45 44 40 40 40 41 38 36 35 35 33 31 29 36 37 42 42 42 44 42 39 36 35 32 31 30 29 29 29 30 30 31 32 32 22 12 19
53 53 53 53 52 52 52 50 50 48 45 44 44 44 44 42 42 40 40 38 36 34 33 31 34 38 42 39 39 40 40 39 37 35 33 33 33 32 31 32 33 28 13 12 14
56 58 58 58 58 58 58 57 56 54 52 51 50 50 49 48 48 48 46 43 41 40 37 34 29 28 29 34 39 39 40 41 39 37 35 37 36 34 31 30 22 12 10 12 8
55 56 59 60 61 62 63 62 62 61 60 60 59 57 55 53 53 54 51 50 47 45 44 41 36 33 30 27 26 30 35 40 40 38 38 39 37 34 29 18 13 11 10 10 8
62 61 62 63 62 63 63 64 65 65 64 64 65 63 61 59 58 58 58 55 54 52 49 46 41 39 36 35 29 26 27 31 34 33 32 31 29 23 15 11 10 10 4 4 9
62 62 64 66 68 70 70 70 70 68 66 67 68 67 66 66 64 63 63 62 59 57 55 51 48 46 42 40 36 30 36 33 30 26 24 24 20 17 14 10 9 9 8 10 11
57 58 62 65 69 72 74 75 75 76 74 73 73 73 71 70 69 69 69 67 65 61 58 56 55 51 48 46 45 43 44 37 33 27 23 22 21 19 17 13 10 8 9 7 9
58 59 60 60 61 63 67 70 78 81 78 79 80 81 79 77 75 74 75 73 70 66 64 62 59 56 61 56 51 45 46 40 36 32 27 25 23 21 20 18 13 11 8 6 5
66 68 70 71 71 69 70 68 69 76 77 84 85 85 87 85 82 80 80 78 75 71 70 66 62 68 65 60 57 52 50 47 45 40 36 30 26 20 25 20 17 13 11 8 6
66 67 70 72 74 77 77 79 77 77 76 79 86 91 92 92 92 87 86 83 80 78 75 71 73 73 70 67 63 58 57 56 53 47 42 35 26 27 27 25 18 15 13 9 8
65 66 70 72 73 74 77 81 84 85 84 85 89 91 93 97 96 96 93 90 86 83 82 78 76 75 74 69 66 61 64 62 59 51 48 41 35 33 29 27 21 20 16 14 9
63 67 70 72 75 78 79 80 82 86 90 91 93 92 89 96 100 101 100 98 93 90 86 82 82 79 77 76 74 71 71 68 64 56 52 43 40 39 33 30 28 27 20 18 13
68 72 75 74 77 77 78 79 83 86 85 85 90 97 98 94 100 102 105 103 102 97 92 89 89 83 81 82 80 79 75 72 68 61 51 47 42 41 38 39 33 30 25 21 18
63 67 70 71 70 71 71 67 69 72 75 73 75 83 92 94 97 102 106 108 105 104 100 95 91 89 88 85 84 81 79 77 71 60 47 51 44 46 47 44 39 35 28 24 18
60 62 62 63 62 64 64 63 63 65 66 68 67 70 77 84 88 96 102 109 109 108 105 103 99 95 90 89 87 85 84 81 74 65 53 54 44 51 55 50 42 38 34 28 25
53 54 55 60 62 62 59 56 57 56 55 57 60 64 71 79 82 86 97 104 109 110 110 107 104 102 96 93 93 90 84 81 81 73 64 54 51 61 55 51 45 43 38 35 31
52 57 59 61 59 55 53 52 49 47 45 48 52 56 62 71 79 84 90 98 106 109 112 112 108 106 105 100 97 93 90 91 83 75 67 60 59 60 58 56 51 48 45 41 37
57 59 58 54 53 52 48 42 39 38 37 38 41 48 55 63 71 82 89 94 101 106 110 114 112 111 109 109 104 99 96 91 85 79 72 65 61 64 62 61 56 52 50 45 42
55 52 50 49 44 39 34 29 29 32 33 36 38 41 45 57 65 74 84 93 100 105 108 111 116 114 114 112 111 107 102 94 90 81 75 68 67 69 72 64 59 55 52 49 45
48 47 43 35 30 25 23 24 28 30 33 32 34 39 45 51 60 71 77 85 96 104 108 111 113 117 118 118 116 114 108 100 92 86 79 74 70 72 72 67 62 61 58 53 50
42 36 31 27 24 20 21 26 30 33 34 35 38 42 45 51 59 65 77 82 88 100 106 112 112 114 121 122 120 116 112 106 97 90 83 78 75 77 75 72 69 66 60 57 54
30 27 25 25 24 25 27 29 31 29 33 38 44 46 46 52 59 65 70 81 84 89 101 107 112 115 118 124 121 121 115 111 103 95 88 83 78 81 80 78 69 67 61 58 53
25 22 22 24 26 28 31 33 31 30 36 43 45 50 43 43 47 53 60 64 73 80 86 98 106 113 119 123 125 122 121 114 109 101 91 87 82 85 83 79 73 71 67 63 56
23 22 22 26 26 28 33 39 38 35 38 41 42 42 37 34 35 37 45 53 60 69 77 82 97 106 115 123 122 122 121 116 109 105 99 92 88 87 87 84 79 74 70 65 59

GFSSW_250_spd_072.txt.gz
Wind_Speed
36 35 34 33 33 33 33 31 29 28 24 23 22 21 19 24 33 35 38 41 39 37 34 31 30 27 25 22 22 20 23 22 21 20 20 20 19 20 21 19 20 22 24 26 29
39 39 39 38 38 38 38 37 35 33 32 30 28 27 27 25 27 32 39 39 41 42 39 38 34 35 31 28 27 26 22 24 25 23 22 21 21 19 17 20 22 23 27 29 23
45 46 46 47 46 44 42 42 41 39 38 38 36 33 32 33 30 31 31 37 42 44 44 41 40 38 36 33 31 30 28 27 25 26 24 23 21 21 22 24 24 25 29 30 19
50 50 50 49 48 48 48 47 47 45 44 43 42 40 37 38 36 37 34 33 35 43 46 46 44 42 41 39 37 35 35 33 31 31 28 26 26 27 26 26 26 26 29 28 13
51 52 52 52 52 50 50 51 51 49 48 47 47 45 41 42 42 42 42 37 37 37 39 43 44 44 45 43 42 41 41 37 36 34 32 31 30 27 28 27 29 28 24 14 12
52 54 54 55 55 55 55 54 53 52 52 51 50 49 48 46 45 47 46 44 40 40 39 37 37 36 38 39 42 41 41 41 41 38 36 34 33 32 30 29 28 25 14 13 5
56 57 57 56 57 58 58 58 58 58 58 57 56 54 53 53 49 49 50 52 48 45 44 41 38 35 36 32 31 35 41 42 41 40 39 39 35 33 31 28 26 22 11 9 5
61 61 62 63 62 61 61 61 61 61 61 61 61 61 60 59 58 55 53 53 55 52 49 47 44 42 38 37 31 30 31 36 40 40 38 37 35 32 30 25 19 12 9 7 8
62 61 63 65 65 65 67 67 66 66 66 65 65 65 64 65 65 64 61 58 57 58 56 52 50 48 46 42 37 33 35 33 32 34 36 36 33 27 21 16 13 9 7 6 8
61 62 65 66 66 67 68 70 70 71 72 72 71 71 68 67 68 68 69 66 63 61 59 58 57 54 52 49 45 42 42 34 30 27 25 26 21 19 19 16 12 9 6 7 4
64 62 62 61 64 64 67 69 72 73 73 74 75 77 76 75 74 72 70 70 69 66 64 64 63 61 62 58 52 47 44 40 33 27 23 22 18 19 18 17 16 12 10 9 5
64 66 67 70 69 69 71 72 73 71 72 73 76 78 78 80 82 80 77 74 73 73 71 67 68 72 68 63 58 52 49 47 42 36 31 27 24 23 22 19 19 18 14 10 6
63 63 67 68 69 72 75 78 82 81 80 80 79 77 76 81 85 85 86 81 78 77 75 75 75 73 72 70 66 61 57 55 50 44 38 32 28 26 24 24 23 18 16 11 9
64 64 63 67 72 74 76 78 81 85 85 87 90 88 84 81 81 85 88 89 88 84 82 79 80 77 74 74 72 67 65 62 57 50 47 40 34 32 30 28 23 22 19 15 11
59 63 65 66 72 76 80 82 84 86 87 87 90 97 96 91 89 86 86 92 93 94 88 84 84 81 79 78 78 75 72 68 64 58 52 42 39 39 34 30 27 27 21 19 14
69 71 72 72 75 77 81 83 85 85 86 88 88 90 93 97 97 97 94 91 91 94 95 94 90 86 84 83 82 83 76 75 70 65 56 49 44 43 39 39 33 30 25 22 17
70 72 70 71 70 70 72 77 81 83 84 87 87 86 85 89 91 100 101 101 99 94 96 100 97 93 91 87 86 83 83 79 77 69 56 57 50 49 48 44 40 34 28 23 19
53 54 56 57 59 59 58 60 63 66 70 74 79 81 84 86 83 90 96 104 105 102 100 99 103 101 96 93 90 86 86 83 78 73 64 64 53 52 54 52 46 39 35 28 28
43 43 45 49 50 54 56 57 60 61 63 65 66 68 72 76 77 81 89 101 104 107 105 98 103 105 102 100 95 90 88 81 85 81 72 67 62 59 58 55 50 44 39 36 35
46 48 50 53 55 58 58 58 57 55 55 57 57 59 63 67 73 74 79 88 97 105 108 106 102 106 109 106 101 97 92 93 87 81 74 72 68 61 62 60 57 51 47 45 41
51 50 50 50 49 48 48 49 48 47 46 46 48 51 54 57 63 67 72 80 88 97 107 109 110 103 112 112 109 104 99 94 89 81 79 76 71 68 67 64 62 56 55 52 47
44 40 40 39 40 38 35 33 32 34 36 38 41 44 47 51 58 64 67 75 83 92 100 104 110 108 113 118 114 109 102 99 96 85 81 81 77 75 68 73 69 62 60 56 52
36 34 30 27 26 26 27 27 29 30 31 34 38 41 45 49 54 59 66 70 78 88 95 100 104 111 115 118 121 119 115 107 99 92 86 83 79 77 76 77 72 68 64 60 56
35 27 26 23 20 19 21 22 25 29 31 36 40 42 46 52 58 61 68 70 77 85 91 98 102 108 116 124 130 122 116 113 103 95 91 84 83 82 83 83 77 68 64 62 59
34 28 25 23 21 22 24 25 26 28 29 31 33 39 49 56 57 57 61 66 74 79 88 95 101 107 115 119 121 122 117 115 108 100 94 92 87 90 88 80 77 75 69 65 61
30 26 24 24 25 26 27 28 29 28 30 28 32 39 48 49 42 43 52 60 66 73 80 89 97 104 110 119 120 123 124 119 113 107 101 94 89 92 86 85 84 78 73 67 64
29 27 27 26 27 28 32 32 34 35 34 35 36 36 37 40 35 31 37 47 55 64 71 78 89 98 108 114 115 119 122 123 117 113 109 100 96 93 93 91 86 81 76 72 68

GFSSW_250_spd_075.txt.gz
Wind_Speed
38 36 37 36 34 33 31 30 29 29 28 25 26 23 21 23 31 40 41 43 39 36 35 34 32 28 25 21 19 18 18 18 16 17 22 21 19 17 29 19 16 18 22 26 28
41 40 39 39 37 37 35 33 33 33 33 30 31 30 28 25 27 32 41 42 42 41 38 38 37 34 30 27 25 22 19 15 21 14 11 24 20 22 22 21 19 20 24 28 30
41 42 42 42 41 41 41 39 38 38 39 37 35 36 35 32 30 32 35 38 42 44 44 42 41 39 33 30 28 25 21 10 22 26 31 25 23 20 21 23 24 23 26 28 29
44 45 45 46 46 47 47 47 46 45 44 43 42 40 40 40 38 37 35 37 39 41 42 44 45 43 40 37 36 34 31 32 34 30 27 27 27 22 18 12 30 27 28 29 18
49 49 49 50 50 51 51 50 49 49 50 49 47 46 45 44 44 44 43 38 40 39 41 44 46 47 45 43 41 40 39 38 38 38 33 30 31 25 21 28 29 29 28 27 14
53 52 52 53 52 53 53 53 53 52 51 53 52 52 51 49 48 49 48 47 44 43 41 41 41 44 46 47 47 46 45 43 41 41 38 35 33 31 29 28 28 28 27 23 12
57 58 57 57 55 55 55 55 55 55 56 56 55 54 54 55 53 52 53 51 51 48 45 43 41 39 42 44 44 47 48 46 45 42 39 38 34 34 33 31 28 27 25 20 11
61 63 64 64 62 61 61 60 59 59 59 59 61 59 58 57 57 56 54 54 55 54 52 48 46 43 41 37 41 39 44 46 45 45 41 38 35 32 34 31 29 27 21 13 10
63 64 66 67 66 66 66 67 67 66 65 63 63 65 64 64 61 60 58 57 56 56 57 56 51 50 46 44 39 36 41 42 42 42 40 38 33 26 36 31 27 23 15 9 10
64 65 68 68 68 68 68 69 69 69 70 71 70 69 67 67 68 67 65 62 62 59 57 57 59 56 53 50 46 43 44 38 35 31 29 29 30 25 33 26 23 21 14 11 6
68 68 68 67 68 69 70 70 70 70 72 72 73 75 74 72 70 69 70 70 67 65 64 62 58 62 63 57 53 48 45 41 36 29 23 21 23 22 39 26 23 21 15 12 7
70 69 71 71 73 74 73 72 71 71 72 71 75 77 77 77 77 75 73 72 72 72 71 68 63 67 66 64 59 53 51 47 41 34 29 24 21 25 28 26 25 22 15 13 8
64 67 70 71 72 73 74 77 77 77 76 76 76 75 76 79 80 82 82 78 77 75 75 73 74 72 67 67 66 61 58 54 51 42 39 31 25 24 23 22 26 23 17 13 11
57 59 62 65 69 74 76 76 78 79 81 82 85 83 82 81 81 82 85 85 84 82 79 77 78 76 74 70 70 68 65 62 57 50 46 38 34 29 32 23 32 25 21 18 15
60 64 63 65 64 67 72 76 79 78 83 83 88 90 90 88 85 85 84 85 87 87 87 83 81 78 78 77 75 72 72 69 64 58 53 44 40 37 36 34 31 28 24 22 17
69 70 69 70 72 74 75 77 78 79 83 85 86 88 90 93 94 92 90 88 88 88 88 89 88 84 81 81 80 79 75 74 72 67 57 52 46 43 41 39 36 32 27 25 21
60 65 68 71 72 76 80 84 83 85 82 83 85 86 89 90 92 94 96 98 95 91 88 89 91 92 89 85 84 82 78 77 77 73 60 61 53 50 48 45 40 36 31 27 23
39 43 45 49 51 55 56 62 71 73 76 84 90 88 86 88 86 88 92 96 98 99 97 91 89 94 96 92 89 87 85 81 78 76 66 69 59 55 56 51 46 40 35 31 28
42 43 44 45 47 49 50 51 52 54 58 61 66 69 75 78 81 84 87 92 92 99 103 105 96 94 96 98 99 91 91 83 83 82 76 76 70 65 61 57 54 48 43 38 36
46 47 48 48 50 51 53 52 54 56 59 62 63 64 68 67 73 74 78 82 86 94 102 106 106 104 96 96 100 102 93 92 89 85 82 81 76 69 66 62 61 54 48 46 43
37 37 37 39 42 45 47 47 49 51 53 56 57 58 63 65 67 73 75 73 79 86 95 103 106 107 108 101 96 103 100 98 93 89 86 84 77 75 70 67 66 62 59 54 51
30 29 27 27 31 33 36 36 38 41 45 47 49 52 55 58 61 66 69 72 73 79 88 99 102 108 105 105 110 108 112 108 101 93 88 88 87 82 78 74 70 68 63 61 58
29 26 24 23 23 24 24 24 25 28 30 33 37 40 44 48 51 55 60 65 68 79 86 90 96 106 106 112 114 109 105 105 104 101 97 93 89 85 81 76 75 77 73 69 61
30 28 26 25 22 21 20 20 20 22 26 30 35 38 41 45 48 52 57 61 63 74 77 87 95 105 108 114 120 120 116 111 116 110 100 95 95 90 84 82 88 80 69 61 59
32 27 25 24 23 23 23 24 24 26 28 30 29 34 39 45 52 57 60 63 65 70 72 83 91 101 109 116 114 115 118 112 113 111 109 101 102 96 92 92 92 82 73 71 72
33 30 28 26 27 28 27 28 29 30 34 34 33 32 37 43 50 57 56 52 54 59 65 74 81 94 102 109 112 115 117 115 107 110 109 106 104 99 103 104 91 88 79 76 72
36 34 33 32 30 30 31 32 32 33 33 31 33 34 39 43 46 50 47 39 48 53 59 65 74 84 93 105 110 115 117 118 114 116 117 113 105 106 103 98 94 85 84 79 74

GFSSW_250_spd_078.txt.gz
Wind_Speed
39 38 37 36 35 33 33 32 30 30 27 25 24 25 26 29 37 41 41 42 41 37 36 33 32 30 26 23 22 21 18 7 14 17 23 39 27 16 25 9 21 22 26 27 31
39 40 40 40 39 37 36 36 34 33 33 31 29 29 29 30 33 37 42 44 45 42 38 34 33 33 31 28 25 23 19 21 20 15 25 16 16 14 10 26 24 25 26 25 33
43 42 41 41 42 42 40 39 39 38 37 36 34 33 34 34 34 34 39 44 46 46 44 41 37 36 32 31 28 24 22 22 14 15 21 21 18 23 21 26 24 28 20 27 32
49 47 46 44 43 43 44 43 42 44 42 40 39 38 38 39 40 38 36 40 44 48 48 46 42 39 38 36 32 27 27 27 18 32 25 28 25 27 26 26 28 9 26 28 32
52 52 52 51 49 46 46 48 48 48 47 46 44 44 43 42 47 43 43 41 42 46 49 47 47 44 42 41 39 35 35 35 32 28 27 25 17 20 31 23 25 28 27 29 32
56 56 56 55 54 53 51 50 52 53 53 53 52 51 49 48 49 50 47 46 46 45 47 49 47 45 45 47 46 43 39 40 40 39 36 31 28 17 28 32 34 30 29 28 30
61 62 61 59 58 57 57 56 55 55 56 56 55 54 54 56 54 53 52 51 50 49 48 48 48 47 47 46 49 49 47 45 43 44 41 36 36 31 30 32 33 30 28 28 26
65 65 66 64 63 62 61 59 60 59 58 58 58 58 57 56 59 57 57 56 56 53 53 51 50 47 46 47 49 51 50 48 47 47 46 42 40 36 35 29 36 32 29 25 19
67 68 68 67 66 66 66 66 65 63 63 62 61 61 60 61 60 60 61 60 60 59 57 56 54 52 47 45 47 50 52 51 47 46 43 43 40 37 35 38 36 29 24 21 16
64 69 69 70 70 69 68 69 68 69 69 69 68 67 63 62 64 65 63 62 63 63 61 60 60 56 53 49 49 47 52 51 46 44 41 42 38 37 29 27 26 25 25 18 16
70 70 70 72 71 70 72 72 71 71 71 71 72 72 71 69 67 67 68 67 64 63 64 64 61 60 62 57 54 49 49 45 40 38 35 33 33 31 30 15 25 33 26 21 14
68 70 72 73 73 74 75 74 73 73 74 75 74 73 74 74 74 73 71 72 71 69 67 66 64 66 65 63 59 53 51 48 42 36 32 29 25 29 29 29 18 25 22 21 15
61 63 65 69 72 73 75 76 78 78 76 76 75 76 77 76 76 76 77 76 74 75 74 71 70 70 67 65 63 60 56 55 47 39 36 32 28 36 35 27 24 32 26 20 14
58 57 58 60 65 68 72 73 74 77 79 79 80 78 78 78 79 80 80 80 80 79 78 77 77 74 71 68 66 63 64 61 52 43 41 38 32 33 43 29 30 23 24 22 18
61 62 63 63 66 64 66 68 69 71 79 75 79 81 83 83 81 80 81 83 82 83 83 80 80 79 77 74 72 67 67 66 61 52 49 43 36 36 42 33 35 29 32 29 23
43 57 66 68 69 69 69 69 70 71 77 74 77 80 83 85 85 86 84 84 85 86 85 86 85 83 79 82 79 76 71 68 67 60 54 50 44 40 40 43 41 32 37 32 27
37 39 44 53 66 72 74 77 76 77 75 72 74 80 83 85 86 87 88 90 89 87 87 87 88 88 86 84 83 82 78 74 71 65 59 60 53 49 45 45 45 43 38 34 32
39 38 41 46 47 51 56 68 77 86 80 78 88 85 87 82 86 86 89 91 95 95 92 88 88 89 91 90 88 84 84 82 76 72 67 68 60 55 57 52 47 43 39 35 32
41 42 42 44 46 49 51 53 50 56 59 68 73 82 90 92 91 86 89 91 96 91 96 97 92 95 95 92 94 89 90 83 82 80 74 73 70 65 64 58 54 50 40 36 33
34 33 34 38 43 47 51 52 54 54 56 55 58 59 66 73 81 92 94 92 93 90 95 100 98 101 97 93 94 97 92 91 87 85 80 79 75 71 68 62 61 54 42 36 45
31 26 26 28 30 33 39 45 50 54 56 58 60 61 64 65 65 74 80 87 91 89 92 95 98 104 108 100 97 94 96 97 93 89 85 84 80 77 75 71 66 59 50 38 41
32 24 20 19 21 23 28 35 40 43 46 51 55 60 61 66 67 70 75 74 73 81 90 95 95 101 107 110 107 102 99 101 99 91 86 88 90 91 83 76 72 67 60 56 42
36 30 25 21 19 18 19 21 26 31 35 40 43 47 49 54 59 62 68 69 69 74 80 85 92 96 107 110 110 111 105 101 102 101 97 93 91 91 85 81 80 75 74 69 74
40 35 29 27 23 22 21 21 22 25 28 31 35 39 42 45 49 53 58 63 65 71 75 83 85 90 100 109 116 114 115 110 105 104 100 96 97 101 96 91 85 83 80 73 75
45 39 31 27 25 23 23 25 27 29 32 34 35 38 40 41 43 47 53 57 62 65 71 78 83 88 94 107 115 114 114 117 111 104 108 102 105 109 104 101 94 90 88 84 85
50 42 35 30 28 26 25 25 26 29 33 37 39 40 42 44 46 47 51 54 55 59 66 73 78 85 87 99 110 109 111 112 116 105 103 111 113 107 105 104 100 97 93 90 82
53 43 39 33 28 26 25 25 27 27 29 30 33 37 40 42 45 50 51 52 54 55 54 60 71 76 82 96 106 109 110 113 116 115 107 101 108 113 110 109 104 100 96 91 83

GFSSW_250_spd_081.txt.gz
Wind_Speed
40 39 38 38 36 35 33 31 30 28 27 26 25 24 32 38 40 37 39 42 40 38 35 33 30 29 28 25 21 18 21 12 11 9 21 8 19 25 10 7 17 25 24 28 31
42 42 41 40 40 38 37 36 34 34 32 31 30 29 29 35 40 41 41 43 42 42 38 36 34 32 31 29 26 22 21 24 14 14 5 21 12 7 9 16 7 26 27 23 30
47 46 45 43 42 42 42 40 39 38 37 36 36 35 34 34 39 41 44 45 44 44 44 40 39 35 33 32 30 28 25 26 20 17 14 15 7 15 25 10 22 25 25 23 32
52 51 50 48 47 45 43 44 44 43 42 42 41 41 40 39 38 40 44 48 48 46 46 46 42 40 37 35 33 32 31 27 19 12 7 12 16 17 24 23 21 23 21 25 29
57 55 54 53 53 51 49 46 45 47 47 46 46 46 45 43 44 41 42 46 47 50 50 48 48 45 40 38 37 36 36 33 28 16 13 22 20 25 10 6 20 24 33 28 27
63 62 60 58 56 55 55 53 51 48 49 51 50 51 49 48 48 45 45 46 47 47 52 53 51 51 47 42 41 39 38 38 34 35 17 22 30 17 20 8 21 29 28 28 25
66 66 65 65 63 61 59 58 57 55 52 53 55 55 54 54 50 50 49 50 49 49 49 51 54 54 52 50 47 44 42 41 37 37 34 23 17 26 25 23 26 23 27 27 28
67 67 67 67 65 66 65 63 61 60 58 57 57 60 60 59 57 54 53 54 55 53 52 51 50 54 53 53 51 48 47 48 45 40 39 38 27 30 31 32 27 34 29 31 26
68 67 68 68 68 68 67 68 67 65 63 62 61 60 64 64 63 62 60 58 58 59 57 55 53 51 50 53 54 53 53 51 49 47 45 43 40 34 31 27 31 32 29 27 27
71 70 70 68 67 68 70 70 69 70 70 68 66 65 64 65 68 67 65 64 64 63 61 60 57 56 52 50 56 57 54 53 52 51 47 45 41 43 42 38 23 30 22 20 13
67 70 71 70 70 69 68 69 70 72 71 72 72 69 67 67 67 67 68 68 66 66 66 65 61 61 60 57 55 56 56 55 53 53 49 46 43 44 41 39 36 34 25 27 16
64 68 69 72 71 71 71 71 69 71 73 74 74 75 74 73 71 69 69 69 70 69 70 68 66 67 65 62 60 56 55 54 54 54 53 50 47 45 41 38 34 28 28 26 13
55 63 67 68 70 69 70 71 74 73 73 74 75 76 76 78 77 77 75 72 70 72 72 70 73 72 69 67 64 61 58 58 55 50 46 43 39 40 39 35 28 32 28 29 20
31 46 59 64 65 67 70 70 71 72 75 75 74 77 78 80 79 80 81 79 77 75 73 74 76 73 73 71 69 66 64 63 59 48 44 39 35 37 36 36 32 27 29 32 23
32 36 40 56 65 67 67 67 68 70 73 73 77 76 80 79 79 81 83 81 83 81 79 77 77 77 73 74 73 71 70 68 64 54 45 38 36 36 33 38 44 37 32 28 23
35 37 39 43 49 63 68 69 70 70 71 70 71 75 76 78 81 83 82 84 84 84 83 83 82 79 78 78 75 76 73 70 68 62 47 45 41 37 36 49 48 47 46 24 25
34 35 37 40 45 47 53 68 76 76 70 67 64 69 73 75 77 82 85 86 86 86 86 85 84 84 83 82 81 79 77 73 70 66 57 57 49 45 43 49 49 42 38 34 32
34 34 34 36 40 45 49 52 58 70 69 69 68 75 77 72 73 77 81 86 92 88 84 85 85 88 91 88 85 83 83 79 74 70 65 65 54 54 51 55 54 45 46 36 33
30 26 29 33 38 43 46 48 49 49 58 75 81 79 81 79 78 77 77 84 88 87 88 87 86 89 89 89 88 86 85 82 81 78 70 68 63 61 60 57 52 50 45 44 40
32 24 22 23 27 34 40 43 51 55 55 52 62 74 89 83 80 82 84 86 81 81 84 89 89 92 90 90 90 89 87 87 86 83 76 74 71 69 67 64 59 54 52 48 40
36 27 22 21 20 23 30 35 44 50 54 58 59 59 67 71 76 88 94 89 86 79 80 86 90 95 93 92 93 95 95 95 91 88 85 81 75 79 78 74 70 64 58 52 47
46 33 23 17 16 21 24 28 37 42 48 54 58 62 67 66 66 71 75 76 85 88 90 92 88 93 98 98 99 97 93 97 98 94 89 85 84 89 80 77 72 65 63 64 54
56 39 30 22 16 14 15 22 29 35 41 45 50 56 63 68 69 70 72 72 72 74 80 86 95 95 97 102 108 106 102 102 104 100 92 89 92 89 89 84 81 78 76 69 61
61 46 32 22 19 18 17 18 21 25 31 36 40 46 54 60 64 67 73 73 75 75 76 79 85 92 97 101 106 105 104 105 105 103 101 93 97 102 97 94 89 82 75 68 63
64 48 31 24 23 21 22 21 22 24 27 31 35 40 44 50 56 60 64 67 69 72 76 80 82 85 90 100 105 103 106 108 109 103 102 102 110 105 101 101 95 87 80 77 70
66 50 36 27 25 22 22 23 24 26 28 30 34 37 40 45 49 51 54 58 62 64 69 76 81 84 85 94 102 106 107 109 112 107 103 106 114 108 102 101 100 93 85 80 74
72 58 43 30 26 22 21 22 24 25 27 30 32 35 36 39 42 45 49 53 56 58 62 67 73 76 82 90 96 96 102 108 109 112 116 114 118 112 112 105 103 98 92 87 82

GFSSW_250_spd_084.txt.gz
Wind_Speed
44 44 43 42 40 37 33 32 31 30 28 27 25 30 34 46 49 48 47 46 44 41 39 35 32 30 28 23 24 26 22 18 12 11 10 15 11 8 10 13 4 8 18 27 26
45 44 43 42 41 39 37 35 35 34 33 32 30 32 36 41 48 49 48 49 47 45 43 39 36 33 31 29 26 25 24 19 15 13 16 23 15 10 10 16 17 14 28 28 27
49 48 47 46 45 43 41 40 39 40 38 37 36 35 37 41 45 49 51 49 50 47 45 41 39 36 34 32 30 27 27 22 19 15 22 24 15 9 10 12 10 27 26 29 27
55 54 53 51 50 48 46 44 43 44 43 42 41 41 40 42 44 49 52 51 51 49 48 46 43 40 37 36 33 32 30 26 26 16 17 15 15 7 9 9 14 15 23 30 31
63 60 58 56 55 53 51 49 47 47 47 46 45 46 46 46 46 47 49 53 52 51 51 50 48 45 43 40 38 35 34 32 28 25 20 17 14 15 9 7 8 14 18 31 26
69 67 64 62 61 59 58 55 53 51 49 50 50 50 50 52 48 48 49 50 53 55 55 54 52 48 46 44 43 40 40 37 33 27 25 24 15 18 9 16 16 14 21 20 21
71 73 72 69 66 64 61 59 58 57 55 53 53 55 54 56 52 53 51 52 52 54 59 57 56 54 50 49 46 45 45 43 38 35 28 28 30 25 24 20 21 23 24 30 28
68 72 73 73 73 71 68 66 63 60 59 59 57 57 57 59 59 58 58 56 55 55 55 57 60 57 57 54 54 51 48 47 43 41 40 27 25 21 25 30 27 27 29 29 34
59 66 71 72 74 74 72 71 69 67 64 63 63 62 59 62 64 62 63 61 59 57 57 56 58 61 60 59 60 59 55 53 49 45 43 47 37 29 21 33 31 29 29 28 28
52 57 64 70 73 73 74 73 72 72 71 68 66 66 65 64 66 67 66 64 64 60 59 59 59 59 61 64 64 63 58 55 53 49 46 45 47 46 39 32 33 29 31 10 15
39 50 58 62 70 73 73 73 73 75 73 73 71 69 70 69 68 69 70 70 68 64 64 62 62 63 61 61 63 65 63 60 58 54 49 49 47 46 45 43 41 40 34 33 25
32 36 47 59 61 69 73 74 74 74 75 76 76 75 74 72 73 73 73 74 73 71 68 65 66 67 66 64 62 63 65 65 61 59 54 52 54 53 51 47 44 42 37 31 24
33 33 35 44 58 62 67 71 73 75 75 76 78 79 79 78 78 77 77 76 78 77 75 72 73 69 67 67 65 63 60 65 65 61 57 54 51 54 52 51 45 42 40 35 23
32 36 37 38 45 59 64 67 70 71 75 77 78 80 82 80 81 81 81 80 80 80 81 78 77 75 73 71 70 67 67 65 65 61 58 56 53 53 52 47 45 41 40 35 31
32 36 39 43 42 46 57 63 66 69 72 77 78 81 79 81 83 84 84 85 84 82 80 79 79 78 76 76 73 73 70 68 67 60 54 52 50 47 47 46 46 43 40 33 33
35 33 36 39 45 45 47 58 65 68 70 72 76 78 80 81 82 84 87 87 88 86 84 83 81 80 80 79 77 77 74 72 68 63 56 54 49 45 44 45 43 43 39 39 34
43 34 30 34 38 44 49 50 54 64 66 64 68 73 77 79 84 85 86 89 89 89 89 86 83 82 81 80 80 80 80 76 72 69 63 61 52 51 48 47 44 47 45 42 34
47 35 28 26 33 41 44 47 48 52 60 66 69 72 75 76 79 86 88 88 88 88 88 88 90 89 85 83 81 80 80 79 77 73 69 68 55 57 57 52 48 50 51 45 36
53 40 27 23 24 31 41 45 49 50 55 67 77 78 75 75 77 80 84 85 83 83 84 85 89 90 90 90 88 85 83 84 80 78 75 75 67 69 62 56 51 54 55 46 51
65 45 29 22 20 22 30 44 50 52 56 59 65 76 77 77 76 77 75 77 78 81 84 88 92 91 93 95 94 93 90 88 86 81 76 78 74 78 69 64 57 56 55 52 50
76 51 32 23 21 18 24 32 41 49 54 56 59 62 66 81 81 81 79 79 80 80 84 86 92 93 96 96 97 96 95 94 89 86 83 81 84 78 73 68 63 60 59 58 52
78 57 41 26 17 20 21 25 32 39 47 54 60 62 63 63 72 84 86 81 80 79 81 83 87 94 97 99 97 98 98 98 94 90 88 86 90 82 77 72 67 63 65 63 59
83 60 43 30 18 16 20 24 29 33 40 46 53 60 64 65 66 66 72 80 86 85 85 88 86 88 95 100 99 101 100 99 98 96 95 92 94 92 82 78 77 71 68 65 60
89 64 46 33 22 16 18 23 25 30 35 40 46 51 56 62 67 69 70 70 74 85 93 93 89 90 93 99 100 101 103 102 101 99 98 99 98 98 88 84 81 80 75 70 59
99 68 52 39 26 19 18 21 25 29 30 35 40 44 49 54 59 65 71 75 75 76 79 85 92 97 100 102 100 100 104 105 105 105 104 106 106 100 98 88 86 85 81 77 71
97 74 58 45 33 21 17 19 21 23 27 31 34 37 43 47 52 56 61 67 73 77 80 81 82 85 92 100 104 103 103 108 111 112 108 109 110 100 100 95 89 90 88 82 76
95 76 59 46 36 27 21 15 15 19 22 26 29 32 36 37 41 46 51 56 62 67 72 78 82 83 85 88 93 100 108 110 113 116 115 114 110 103 104 100 96 94 93 88 83

GFSSW_250_spd_087.txt.gz
Wind_Speed
46 44 44 46 46 46 44 41 38 35 34 33 31 31 43 57 57 56 53 50 47 44 42 38 35 32 29 26 25 28 24 18 13 10 4 13 14 12 9 12 2 7 18 33 38
50 48 46 46 46 45 44 42 40 38 37 37 36 33 38 53 57 58 57 54 50 48 45 42 38 35 33 29 26 30 27 20 15 12 9 18 8 16 15 9 13 9 16 28 32
56 53 52 49 49 47 45 45 43 41 41 40 41 38 37 46 58 58 60 57 53 50 46 44 41 37 35 31 29 31 29 25 20 14 17 18 21 11 14 13 10 16 14 24 26
63 61 58 56 53 51 48 46 45 45 44 45 45 44 41 41 54 61 61 60 57 54 51 49 46 41 38 34 31 31 29 27 24 21 23 25 21 14 11 15 14 12 17 24 22
70 69 67 63 60 57 54 51 50 49 47 48 50 49 47 44 48 60 62 62 61 56 55 54 50 46 42 40 36 34 32 30 29 25 30 26 21 15 11 13 4 13 20 18 16
70 72 73 71 68 63 60 57 56 54 52 52 52 53 52 50 48 52 61 65 63 61 59 56 52 49 46 45 42 42 38 37 33 33 33 30 24 22 13 9 11 27 21 17 20
61 67 73 74 74 71 67 64 61 59 57 57 56 56 55 56 54 54 59 63 65 66 62 59 56 54 52 50 48 47 43 40 38 35 32 32 26 27 23 16 22 23 23 19 25
57 62 66 73 76 76 74 71 68 65 62 61 60 59 58 60 59 58 59 61 64 67 64 63 60 60 58 56 55 52 50 45 42 37 36 32 33 27 28 27 26 23 23 26 28
42 54 62 66 75 77 78 77 74 71 68 67 65 64 62 62 63 61 62 61 63 65 63 65 64 62 61 61 61 59 55 53 48 43 39 34 35 35 33 32 29 31 34 30 27
31 37 49 64 68 77 79 80 79 77 74 71 70 68 69 66 64 65 65 66 64 63 63 64 66 66 67 65 65 64 61 58 55 49 45 42 42 35 32 18 26 31 33 31 21
39 32 37 47 59 71 80 80 80 81 80 78 74 72 70 70 70 67 68 69 67 66 66 65 64 65 68 70 66 66 64 63 59 54 50 46 48 47 45 35 37 31 30 30 29
57 33 33 38 45 57 74 80 79 81 82 82 82 78 76 74 74 74 72 70 71 71 70 69 68 68 66 66 70 71 69 66 62 59 54 52 49 51 51 50 48 44 38 37 35
70 42 32 36 41 46 62 74 77 81 83 84 84 84 81 80 79 77 78 75 72 73 73 74 74 69 67 66 65 67 75 72 66 63 63 57 52 52 52 52 51 50 47 42 39
75 44 32 35 39 43 49 66 76 79 84 85 86 87 86 84 82 81 81 80 78 75 77 78 75 74 71 70 68 67 71 70 70 68 64 61 58 56 55 57 56 53 50 47 41
75 46 28 31 36 39 45 52 69 77 83 87 88 86 86 88 86 86 85 84 83 80 77 80 79 78 75 73 71 72 72 69 65 64 64 64 60 58 57 61 59 57 53 48 45
78 47 28 25 32 38 44 49 53 73 81 85 86 88 87 88 89 89 89 87 85 83 83 82 81 82 81 78 76 74 72 72 69 65 62 60 60 57 59 60 58 55 50 48 45
78 58 31 23 24 34 42 47 49 53 72 78 81 86 88 89 89 89 89 89 89 87 87 86 84 82 85 84 82 80 76 74 72 69 67 64 60 57 55 59 57 53 51 48 46
77 75 40 24 20 26 36 45 50 52 56 72 80 81 86 88 90 90 87 88 90 91 91 90 89 88 88 90 89 87 82 79 78 75 72 70 65 63 58 53 54 49 43 40 43
79 80 49 28 20 22 29 40 49 55 61 62 70 78 80 84 87 88 88 88 88 90 92 94 95 93 91 91 90 90 89 86 82 80 79 76 71 66 62 57 55 49 43 41 44
80 82 59 35 23 19 25 33 45 53 58 62 63 70 77 79 82 85 88 88 88 87 88 94 96 97 97 96 94 92 89 89 87 84 82 81 77 70 66 61 58 55 49 45 49
79 82 58 41 30 17 22 28 36 47 53 56 62 62 69 78 81 81 85 88 91 92 92 94 95 99 100 101 99 96 92 91 89 89 87 84 83 76 71 67 62 60 56 54 59
79 82 59 44 32 23 17 24 32 40 51 60 62 66 66 70 79 80 82 84 86 90 91 96 98 100 103 103 101 101 99 96 94 92 90 88 85 79 75 72 68 65 64 57 53
77 82 65 49 36 26 20 20 27 35 42 50 60 64 66 67 70 78 82 80 81 84 87 92 95 101 101 102 102 102 103 103 101 98 96 92 86 84 79 77 74 71 69 63 56
79 81 67 50 39 28 20 21 23 30 37 43 50 58 66 66 69 71 75 85 88 87 92 92 91 95 101 102 102 103 103 103 104 103 102 97 91 89 85 81 80 77 74 71 68
82 82 68 49 40 29 18 16 22 26 31 35 44 50 57 64 70 71 74 76 81 93 93 89 89 89 95 102 104 103 104 106 105 104 104 103 99 94 90 87 83 83 79 78 75
82 86 69 52 41 29 19 14 14 21 27 34 40 43 48 55 60 66 73 74 77 80 87 96 95 94 96 98 101 106 107 106 107 106 105 106 103 100 97 93 90 85 84 82 83
81 86 63 53 47 37 16 12 11 14 19 27 34 40 43 46 51 57 64 70 76 79 81 83 89 99 103 103 102 104 107 108 108 107 108 107 105 104 101 99 96 91 89 88 87

GFSSW_250_spd_090.txt.gz
Wind_Speed
52 51 50 49 48 46 45 45 44 43 42 40 38 36 34 58 64 60 55 53 49 47 42 41 40 36 33 28 27 26 22 18 15 19 9 15 14 13 15 10 17 11 13 22 28
58 56 54 52 49 48 47 46 46 45 44 43 41 41 36 45 66 66 60 58 53 51 47 44 42 38 35 30 30 27 24 23 20 16 7 9 13 9 12 11 12 12 12 18 25
68 65 61 57 54 51 49 49 48 47 46 46 44 44 42 40 58 69 65 62 57 54 50 48 45 41 38 31 30 28 25 26 22 14 10 16 14 13 14 16 11 9 10 18 24
70 70 68 65 61 56 53 51 51 50 48 48 48 47 46 43 45 66 70 65 63 58 54 51 48 43 39 35 33 30 29 29 27 19 18 20 23 14 15 13 6 9 17 17 19
63 65 67 70 68 65 60 56 54 54 52 51 51 50 50 48 46 52 73 70 66 63 58 55 51 47 43 39 37 34 31 31 30 23 18 22 26 20 14 10 16 13 13 19 19
56 59 57 65 71 71 69 64 60 57 56 55 54 53 53 52 51 49 60 73 70 68 62 57 55 53 49 44 40 37 36 32 32 29 23 22 24 27 20 20 20 14 15 17 17
36 46 55 58 64 73 74 72 68 63 60 59 57 57 57 57 55 54 53 65 72 71 67 64 59 56 53 49 46 42 40 35 33 31 28 30 27 25 27 26 22 17 17 17 15
42 36 36 52 61 66 77 78 76 71 67 64 62 61 61 61 59 58 56 55 66 71 71 69 65 60 57 55 52 47 44 40 36 34 29 33 40 25 24 28 19 18 16 16 15
48 45 37 35 55 65 73 80 80 79 75 71 69 67 65 64 63 62 61 59 58 65 72 72 70 66 62 60 57 53 49 46 42 41 34 35 34 28 29 28 24 24 21 21 20
50 53 52 33 39 56 67 77 83 83 81 78 75 72 69 67 66 65 64 63 62 60 68 75 75 72 69 65 62 57 53 51 49 44 42 38 40 38 35 34 36 34 29 28 25
50 54 58 44 31 44 56 70 79 87 87 84 81 77 74 73 71 69 67 66 65 65 66 70 76 79 73 70 65 62 59 57 53 49 46 42 40 37 36 39 39 39 35 30 20
50 53 55 51 36 38 50 62 78 86 90 89 87 83 80 77 75 74 71 68 68 68 69 68 72 77 77 74 70 69 66 63 59 56 52 47 45 43 43 45 42 38 30 26 25
48 53 57 61 38 37 47 56 69 82 89 93 91 87 85 83 79 78 76 73 72 70 70 72 73 72 75 76 76 74 72 66 62 60 60 54 51 49 48 50 49 48 41 34 37
49 57 59 60 37 36 41 54 60 75 86 93 94 92 90 86 84 82 81 78 74 73 72 74 75 73 72 72 74 79 77 72 67 66 64 62 57 54 54 55 54 52 52 49 45
52 60 60 61 32 34 38 47 59 66 81 91 96 94 94 91 87 86 83 81 79 77 74 77 77 75 74 74 73 76 75 75 71 69 67 65 63 62 62 59 56 53 52 50 45
59 60 64 56 30 28 35 42 50 62 69 84 93 94 95 93 91 89 86 84 81 79 80 80 76 77 78 76 78 73 72 72 70 69 70 66 65 65 65 61 58 55 52 50 46
62 63 67 52 29 24 31 40 46 54 61 70 87 93 95 94 91 90 90 88 85 84 83 82 81 78 79 79 82 79 77 74 71 68 67 66 65 64 64 63 60 58 56 52 47
58 64 70 54 28 21 27 35 45 50 57 62 76 91 94 94 92 91 91 91 91 90 89 86 85 84 83 81 84 83 81 78 74 72 71 69 65 63 62 62 59 57 56 54 51
57 65 70 57 31 17 21 31 40 51 56 63 65 80 93 94 95 96 93 92 92 94 94 92 91 89 88 86 85 85 84 83 79 76 74 72 69 67 62 59 55 53 53 53 51
58 67 71 52 32 17 16 25 34 44 55 60 64 67 84 93 94 96 96 95 94 93 95 97 96 94 92 91 89 88 87 87 85 81 78 74 71 68 65 61 58 55 52 51 48
60 63 79 49 33 22 11 19 31 38 48 57 62 65 66 86 92 93 96 98 98 97 97 99 101 100 98 96 95 93 91 89 88 87 84 80 76 71 68 64 62 61 59 56 50
65 68 76 46 34 24 14 13 26 35 43 54 62 65 67 68 85 89 89 93 97 100 101 102 103 103 103 102 100 98 95 93 91 89 88 86 82 77 72 69 67 65 63 60 56
69 73 78 48 34 28 16 13 19 30 39 46 55 62 65 67 68 80 84 86 92 96 99 104 104 103 103 103 103 103 101 98 96 94 92 88 85 83 79 76 74 71 68 65 61
71 74 83 52 39 29 21 13 14 23 35 44 49 58 64 66 70 72 79 88 89 92 97 102 104 104 102 100 102 104 104 103 101 99 96 94 91 88 84 82 80 77 75 71 68
71 76 82 53 44 32 18 15 15 22 29 36 43 50 57 64 67 71 74 77 87 90 94 97 97 102 104 103 102 102 104 104 104 104 103 99 95 92 88 85 84 82 80 78 73
72 78 82 57 44 31 25 12 14 18 25 32 37 45 51 56 64 69 72 76 77 85 92 92 94 99 103 104 104 105 105 105 106 107 106 104 102 97 94 90 87 87 85 83 81
73 78 84 54 48 35 20 12 11 13 16 23 32 38 45 49 55 61 70 74 77 81 84 91 95 96 99 102 105 106 105 106 107 107 109 107 106 103 101 98 94 91 88 87 86

GFSSW_250_spd_093.txt.gz
Wind_Speed
54 56 57 56 53 51 49 47 46 44 43 40 40 34 33 31 58 62 56 54 52 50 50 48 44 39 35 31 27 24 21 16 10 13 13 16 8 10 11 7 13 14 14 29 30
59 61 62 60 58 55 53 51 49 48 46 45 44 40 37 37 41 66 62 59 55 53 52 50 46 42 37 34 30 27 23 18 15 18 12 12 12 15 18 6 9 12 11 24 27
56 62 66 65 61 60 58 55 53 50 49 49 48 46 42 41 42 60 66 65 60 56 54 51 48 45 39 35 31 28 26 24 21 23 11 12 10 11 15 6 13 10 17 20 24
48 52 58 62 59 63 62 60 57 55 52 51 51 50 46 44 46 45 67 69 65 61 57 53 49 46 43 38 36 32 30 29 26 23 14 13 15 14 18 17 11 13 10 19 23
45 49 53 58 54 56 64 65 62 60 57 55 53 52 50 49 49 49 56 70 71 66 61 57 53 50 46 43 40 37 34 31 30 24 18 15 20 20 18 18 9 12 15 16 19
41 47 49 51 53 51 58 67 67 65 62 58 58 56 54 52 53 53 51 66 73 71 65 62 58 55 50 47 45 40 37 32 30 29 24 21 22 27 19 23 19 17 14 13 17
35 40 41 42 45 46 54 62 71 70 68 64 61 60 58 57 56 56 55 56 70 76 70 67 63 58 54 50 48 45 40 35 30 29 27 27 26 31 34 25 21 18 13 23 13
36 39 40 39 43 43 43 59 70 75 74 70 66 65 62 60 60 60 59 56 61 71 74 72 69 64 59 56 52 48 43 38 33 30 29 30 27 31 33 34 28 25 23 24 19
35 37 34 36 42 39 41 51 65 77 79 77 73 68 66 64 63 63 62 61 58 62 75 76 73 70 64 61 56 53 49 43 38 33 32 31 35 34 32 34 27 24 25 27 20
35 34 32 37 44 41 33 43 62 76 82 83 80 75 70 68 67 66 66 64 62 61 65 77 77 75 72 67 61 57 53 49 43 38 37 36 35 35 39 31 30 28 25 23 21
35 32 34 35 41 46 37 36 52 73 81 87 86 81 76 74 71 70 69 67 66 65 64 69 79 79 77 71 65 60 57 54 50 46 41 39 38 38 36 35 30 29 28 27 25
38 34 33 41 45 47 45 42 45 62 78 85 89 87 83 78 75 73 72 70 69 69 68 67 73 80 78 75 71 66 63 59 56 52 48 46 44 43 41 37 32 29 30 29 28
36 34 37 44 46 48 50 48 45 55 75 84 91 92 90 85 81 78 76 74 72 70 72 71 68 72 79 79 76 74 69 65 61 57 54 52 50 49 48 44 39 36 37 34 30
34 35 38 46 48 56 47 42 42 51 65 80 90 96 95 92 87 84 81 78 74 72 73 74 71 69 71 76 80 78 74 71 66 63 60 57 56 53 53 50 43 39 37 39 31
31 38 40 45 54 57 44 37 37 47 57 72 87 94 98 97 92 88 84 82 79 77 75 75 75 74 72 73 78 83 79 72 71 69 67 63 60 59 56 52 47 43 42 41 39
31 41 42 53 57 57 38 32 35 42 51 66 78 92 97 98 96 92 89 85 83 81 80 78 76 76 76 74 74 75 79 76 76 74 72 70 66 64 60 55 52 50 48 44 43
37 40 53 55 61 48 34 28 33 40 47 61 72 86 93 96 98 97 93 90 87 84 84 82 78 77 79 78 77 74 73 74 73 72 73 73 71 69 65 59 57 55 53 50 46
38 44 54 56 70 41 30 27 30 40 46 56 68 76 90 95 99 100 97 94 91 90 88 85 83 81 80 79 79 78 76 74 71 70 70 72 70 67 66 63 60 58 56 55 51
43 49 59 62 62 36 27 26 28 36 46 53 64 71 82 91 97 101 101 99 96 94 93 90 87 85 84 81 82 81 80 78 76 74 73 71 72 70 66 65 61 59 57 57 53
45 55 63 68 53 35 26 25 26 33 44 54 59 68 72 87 95 101 104 102 101 99 97 94 93 90 89 87 86 82 83 82 79 78 76 73 70 67 65 62 60 58 57 54 53
49 58 65 74 51 35 26 22 25 33 41 51 59 64 71 76 90 98 102 104 104 103 103 100 98 95 93 91 90 88 84 83 82 81 80 78 75 72 69 66 62 59 57 55 50
52 61 67 72 53 36 26 21 23 29 41 48 56 63 66 70 77 92 100 104 106 106 105 104 102 99 97 95 93 91 89 87 84 82 83 82 81 77 74 71 69 66 62 60 55
53 61 67 74 54 42 25 22 19 25 36 45 51 58 66 69 70 72 90 100 104 106 108 107 105 103 100 99 97 96 94 91 90 88 84 85 84 81 80 77 74 72 68 65 62
54 61 68 78 55 42 33 20 18 22 29 40 46 53 60 67 70 71 75 90 100 103 107 108 107 105 104 102 102 100 98 97 95 93 91 88 85 85 85 83 81 78 75 71 67
55 62 69 74 56 43 36 30 14 17 22 33 42 47 54 63 69 72 75 77 91 102 104 105 107 105 104 104 104 104 104 102 100 97 96 93 90 88 87 86 86 83 80 77 72
54 63 67 74 67 47 36 33 20 12 15 21 31 40 47 54 65 70 74 78 77 86 98 102 103 106 107 107 106 105 106 106 105 103 101 99 96 94 91 89 88 88 87 84 79
55 59 68 70 70 48 40 33 25 15 10 14 20 32 38 46 53 65 72 76 79 79 85 97 101 103 105 108 108 108 108 107 107 107 106 105 102 100 97 95 92 92 90 89 86

GFSSW_250_spd_096.txt.gz
Wind_Speed
50 50 53 54 56 56 53 50 47 44 44 43 42 41 40 38 33 55 58 55 51 51 49 44 42 39 36 33 30 26 21 16 11 11 5 8 4 4 9 6 7 10 23 26 30
51 53 54 55 56 55 54 54 52 49 46 47 45 44 45 42 38 44 62 59 57 53 54 48 45 43 39 37 33 29 25 22 15 18 15 12 14 7 6 2 5 3 18 19 29
40 43 46 51 54 57 56 55 55 56 53 50 50 47 48 48 43 39 57 64 62 59 56 55 50 47 42 39 37 32 28 26 20 15 17 13 12 8 12 5 11 4 11 19 23
40 45 46 48 51 53 52 51 57 59 59 55 53 53 50 52 50 45 49 65 66 63 60 58 55 52 47 42 40 36 32 28 23 19 23 16 14 9 17 13 13 10 8 15 20
34 41 45 45 49 50 51 50 51 59 62 61 58 56 54 55 55 51 47 61 68 66 64 58 56 54 50 46 44 39 34 29 26 23 23 19 17 21 19 16 15 16 12 18 13
34 34 42 43 45 47 47 49 47 55 64 66 64 60 58 57 59 56 53 53 67 71 68 64 59 55 53 49 46 43 37 32 29 23 23 18 21 25 20 21 24 23 18 16 15
33 34 36 40 45 44 43 44 44 46 62 67 69 66 62 60 62 60 58 54 57 71 73 69 64 59 54 52 48 46 42 36 32 25 23 23 24 23 25 22 24 25 22 15 17
36 35 37 40 42 40 41 42 40 41 55 68 72 71 67 64 63 63 62 59 57 59 75 74 70 65 58 55 51 50 46 41 35 30 27 27 28 24 29 30 27 22 19 19 18
36 37 38 39 41 38 41 42 41 39 44 64 74 76 72 68 66 65 65 64 61 60 67 78 75 71 66 61 56 53 49 44 39 32 30 29 33 35 30 34 37 32 27 25 16
36 37 37 39 38 34 36 37 41 37 39 61 74 80 77 72 69 68 67 67 65 65 61 74 79 76 72 67 61 56 53 48 43 37 34 35 34 33 35 36 35 34 31 29 22
35 36 36 35 35 36 35 41 41 37 40 51 73 81 82 78 74 71 71 69 69 67 67 65 78 80 78 71 64 62 57 53 48 43 39 39 40 39 39 37 35 31 29 27 24
36 35 33 33 34 34 38 41 44 46 41 47 69 82 87 85 80 75 74 72 72 71 71 68 69 80 80 75 71 66 63 58 55 49 45 43 43 41 41 38 34 33 25 20 19
29 29 29 26 28 36 42 47 52 55 51 48 58 81 90 90 85 80 76 75 75 74 74 73 68 71 80 81 78 73 69 66 60 55 52 50 46 43 42 39 36 30 26 24 23
22 23 27 24 33 38 43 49 53 58 54 44 54 74 90 95 91 87 82 79 77 77 76 75 72 68 73 82 82 78 73 72 68 64 59 54 53 50 45 42 39 35 30 27 28
19 20 23 26 34 42 48 55 57 53 43 42 48 64 88 97 95 91 87 82 80 79 78 78 76 74 72 73 81 82 78 74 73 70 68 62 59 53 50 47 43 40 37 33 33
21 22 26 33 39 46 53 54 48 38 35 41 48 62 81 95 99 96 92 88 83 82 81 78 78 77 75 71 75 80 80 77 77 77 72 68 64 60 55 53 48 46 44 41 38
24 27 31 36 45 53 54 44 34 27 32 39 47 61 75 92 99 100 97 93 89 86 82 81 79 79 79 77 71 73 76 78 78 78 77 73 71 65 61 57 54 51 48 46 43
31 32 33 42 51 60 44 31 27 23 28 39 48 59 71 87 97 102 101 99 95 92 88 85 82 81 81 79 75 73 74 75 74 75 78 74 71 68 65 62 59 57 53 50 46
31 34 39 47 58 56 33 25 23 21 25 35 48 57 69 79 94 102 104 102 100 96 93 91 85 83 83 82 82 80 76 75 73 73 76 80 71 72 66 63 61 59 56 54 51
38 39 43 52 62 55 33 20 19 19 24 32 46 55 65 74 85 99 104 106 105 102 98 94 90 88 87 85 84 82 82 78 78 76 75 74 74 70 68 65 63 61 59 56 53
41 42 46 54 61 56 37 21 16 16 22 31 45 54 62 71 78 92 104 107 108 107 104 100 96 94 93 89 85 84 83 84 83 79 79 74 73 68 68 66 62 61 63 60 57
42 44 49 57 62 59 42 26 13 15 20 30 42 53 59 67 74 80 97 104 109 109 108 106 102 97 94 93 91 90 86 86 84 83 84 79 74 73 70 69 67 63 62 60 58
41 44 48 56 61 63 42 31 15 13 19 27 40 51 60 64 69 76 84 100 105 109 110 108 106 102 99 96 95 93 91 88 86 85 85 82 79 79 77 74 72 69 66 64 60
41 45 48 53 58 64 41 32 25 7 18 24 35 47 56 64 68 72 75 86 103 106 110 110 109 108 106 103 98 96 94 92 92 89 87 88 81 83 81 79 77 75 73 69 66
40 45 50 52 59 62 46 34 26 19 8 20 28 43 51 59 68 71 76 78 85 101 106 108 110 110 109 105 102 101 98 96 95 92 91 89 83 84 86 85 83 81 77 74 71
41 45 51 55 59 61 50 40 28 17 11 10 21 33 46 53 62 70 74 78 79 86 98 105 108 109 109 108 107 105 103 101 100 99 98 89 92 88 87 86 87 86 84 81 78
40 44 50 55 57 59 50 41 31 23 12 8 13 23 35 47 54 63 71 75 78 81 84 97 103 109 111 110 110 109 108 106 103 103 101 99 94 95 94 92 90 88 88 87 84

GFSSW_250_spd_099.txt.gz
Wind_Speed
45 45 47 48 49 49 50 50 49 48 45 46 47 44 44 43 41 43 57 55 51 46 46 46 43 41 37 34 32 28 23 17 13 8 11 10 5 8 16 14 12 20 16 27 27
42 42 44 47 48 50 50 50 51 51 50 47 47 48 47 47 45 45 54 59 56 51 47 50 46 45 41 39 36 32 25 20 16 13 15 11 10 9 8 7 11 16 14 21 27
44 42 44 45 46 47 48 50 52 54 53 53 50 49 50 52 49 48 49 61 61 56 52 51 51 48 46 43 39 35 30 26 22 18 21 18 18 14 9 8 16 11 10 19 28
44 44 44 44 44 45 44 47 49 53 56 56 56 53 52 54 53 51 51 56 65 62 57 53 55 50 48 45 43 37 34 28 26 20 22 19 17 10 9 13 16 12 21 26 22
41 46 47 46 45 44 43 45 48 50 53 59 60 60 56 56 57 56 55 55 63 67 62 58 56 54 51 48 46 41 37 33 29 21 22 23 18 15 13 20 15 16 21 15 26
44 46 46 46 45 44 44 45 46 46 51 56 64 65 63 59 59 58 59 58 59 68 68 63 60 56 56 53 50 46 41 36 31 25 23 18 19 18 21 22 15 17 19 18 24
46 47 48 53 51 48 46 46 50 50 48 51 61 68 68 65 63 62 62 60 59 62 72 68 65 62 59 58 54 50 46 40 34 28 25 17 28 20 24 28 26 23 23 21 21
48 46 47 50 49 48 47 47 47 49 51 49 56 68 71 71 66 64 64 65 63 61 68 74 71 67 63 61 58 53 49 45 38 32 25 20 24 32 27 27 26 23 22 21 21
44 47 47 51 51 50 50 50 48 49 50 49 51 61 71 75 72 67 66 68 67 64 62 72 75 72 68 65 60 55 50 48 42 37 28 26 21 26 28 27 25 28 25 24 21
38 45 49 52 52 53 50 50 48 47 46 47 45 57 68 78 76 72 69 70 71 69 67 67 75 74 72 67 63 58 52 50 45 40 34 30 32 33 29 32 27 28 27 29 27
31 32 41 46 47 48 49 46 42 45 45 47 41 47 66 75 81 78 74 72 73 72 70 67 71 75 76 74 68 61 56 53 49 43 38 35 38 28 36 32 36 33 30 28 29
30 26 29 33 39 42 44 44 43 47 48 49 44 41 55 75 84 83 79 76 75 75 73 69 67 71 75 75 69 67 61 55 53 47 40 40 38 32 33 39 40 36 33 29 23
30 25 24 26 29 32 35 38 44 48 49 50 50 46 46 67 85 88 84 80 78 77 76 75 72 69 70 76 76 72 69 63 60 55 50 46 43 46 42 38 38 36 32 27 25
30 25 23 21 24 27 35 41 46 50 56 54 52 48 46 54 83 92 90 84 81 79 79 78 74 70 68 72 79 77 74 69 63 61 57 52 48 47 46 49 44 38 36 30 23
44 25 23 23 26 29 31 35 43 52 59 54 60 53 55 62 74 95 95 90 84 81 80 78 76 75 73 69 76 82 76 73 73 69 62 57 54 51 47 45 43 40 37 34 28
49 25 23 24 24 28 34 43 51 60 58 62 57 60 58 62 68 91 98 94 90 86 84 84 81 79 78 74 71 77 76 76 75 72 69 64 60 56 52 50 47 44 39 39 36
58 32 24 25 29 31 41 49 53 48 44 42 45 48 57 63 70 85 100 99 93 88 86 83 82 81 77 74 72 67 76 79 79 75 73 71 69 64 61 54 49 49 45 42 42
61 38 23 26 29 37 44 48 38 33 29 35 40 47 53 60 71 83 99 103 99 94 93 86 86 84 82 80 78 73 71 74 75 77 77 79 75 70 65 58 56 53 52 50 46
56 43 28 29 31 41 48 38 33 26 25 31 37 46 56 62 71 80 95 106 104 101 97 90 91 86 84 81 78 78 73 74 78 79 82 82 73 68 68 65 62 59 58 55 52
59 44 31 32 34 42 50 36 27 20 22 29 37 45 52 63 73 81 94 103 104 104 100 99 92 88 89 86 85 83 82 79 74 76 77 82 79 81 73 73 69 65 63 60 56
59 45 34 35 37 44 51 38 27 16 19 28 36 45 54 60 70 81 90 101 108 108 105 98 93 92 89 88 88 86 86 82 79 79 77 76 74 68 72 72 72 70 68 63 59
58 46 36 38 43 45 51 38 26 19 16 26 35 44 52 57 66 75 85 96 105 110 109 104 100 97 99 91 89 87 86 87 86 83 79 80 77 74 76 75 74 72 67 64 61
51 44 37 39 48 48 52 42 25 19 12 24 31 40 47 57 62 68 77 87 101 109 110 108 106 102 95 94 93 91 90 89 87 89 85 84 75 74 73 74 73 71 70 67 61
51 42 36 43 48 49 54 48 27 17 12 19 28 35 41 54 59 65 74 79 91 103 109 110 110 103 109 106 101 96 90 91 88 88 86 90 84 78 77 75 72 71 70 70 68
48 38 34 41 47 49 54 52 33 19 10 9 23 31 39 48 58 63 70 77 83 94 104 109 111 111 108 103 100 96 95 92 92 90 93 98 86 81 81 79 77 76 73 70 66
46 34 34 40 45 47 52 48 34 27 15 5 13 24 33 45 53 60 68 75 77 79 96 105 110 111 110 108 106 103 101 98 97 97 98 87 82 81 82 84 84 83 79 75 72
41 29 33 41 43 47 51 47 31 26 22 13 8 17 25 36 48 57 64 69 75 81 81 89 107 111 111 114 111 108 106 105 104 103 104 94 90 90 90 90 89 86 84 82 79

GFSSW_250_spd_102.txt.gz
Wind_Speed
42 45 47 48 50 51 51 51 51 51 50 47 47 46 48 48 45 44 41 51 50 46 43 45 45 42 36 33 29 27 19 16 17 14 10 12 7 5 8 14 15 18 24 28 32
42 42 42 42 43 47 50 52 53 52 53 52 49 49 48 52 49 48 46 45 55 52 47 45 47 46 40 38 34 29 3 22 19 16 13 13 7 7 9 10 10 12 16 28 31
43 45 44 43 42 42 44 46 51 54 54 55 55 52 52 52 52 52 51 49 52 57 52 48 46 48 44 42 39 36 25 32 23 16 15 14 11 12 8 8 11 21 15 25 28
42 44 45 46 47 43 42 43 45 49 54 56 57 58 56 55 52 56 55 53 50 58 58 53 48 51 47 45 42 39 39 35 25 19 19 19 16 13 8 16 12 19 28 28 25
43 46 47 47 47 48 44 43 43 45 47 53 58 60 60 58 56 56 57 57 55 54 62 58 53 50 51 49 46 44 41 37 28 23 22 15 18 15 10 14 15 20 15 19 20
43 45 50 51 49 50 49 47 44 39 42 47 54 58 63 61 63 60 60 62 58 54 61 63 59 54 53 52 51 48 45 40 32 25 21 21 24 19 14 11 23 25 21 21 21
45 45 49 53 54 54 52 51 49 46 41 42 48 56 63 67 67 66 65 64 62 60 57 66 64 59 57 56 55 53 49 42 36 26 22 22 13 17 17 25 18 13 19 23 23
42 43 42 47 53 56 55 51 53 52 49 47 44 49 58 68 70 68 68 68 66 64 61 60 69 67 60 59 57 53 50 45 38 30 24 23 18 19 19 25 25 25 23 24 23
45 35 33 37 44 51 55 54 53 55 52 51 47 48 52 63 71 73 70 70 70 67 64 62 67 71 66 61 60 55 52 48 42 36 28 23 21 28 22 24 26 26 23 24 25
52 37 28 27 33 42 51 54 53 52 54 53 50 49 49 54 68 75 75 73 72 71 70 67 63 70 69 64 62 59 56 51 47 40 34 27 23 27 28 28 31 27 22 19 22
59 46 31 24 26 31 39 47 52 52 56 55 54 51 52 51 64 72 79 77 74 73 73 70 65 63 71 73 68 64 59 57 51 43 38 31 33 29 32 33 33 29 25 21 23
56 54 37 26 22 23 26 30 37 44 49 55 52 55 55 51 57 68 79 81 77 76 76 73 69 66 69 75 72 68 64 58 53 45 43 37 38 26 25 34 32 30 26 25 26
57 52 38 30 24 22 23 26 31 36 40 46 49 54 54 52 52 64 74 84 83 80 77 78 78 72 66 71 74 71 65 62 33 56 46 43 41 34 22 12 26 37 34 29 30
54 50 41 29 29 24 26 29 33 37 41 44 50 55 57 55 56 57 74 84 87 83 80 81 82 76 70 66 73 76 76 72 69 56 52 50 46 40 38 10 30 33 43 37 32
62 47 40 33 28 30 29 31 35 40 45 45 54 57 61 64 59 57 69 83 90 87 84 81 82 80 75 69 71 76 80 75 69 64 58 53 49 42 45 25 37 27 37 33 30
61 46 43 34 27 29 31 36 39 43 48 53 55 62 67 69 64 60 64 82 92 92 87 84 84 82 78 76 72 77 78 76 73 71 64 59 54 48 45 62 61 61 47 35 36
64 49 43 39 26 27 31 33 39 45 50 53 57 65 69 70 65 66 65 69 90 96 90 88 84 82 83 81 79 72 72 77 78 76 68 67 64 58 60 46 53 60 55 47 40
61 56 43 41 25 26 31 35 40 44 45 48 52 56 65 71 68 69 70 71 81 99 99 93 88 84 85 81 81 74 70 71 79 78 75 74 72 66 64 63 58 54 44 40 39
65 62 43 42 28 24 27 33 45 44 32 32 38 47 56 59 62 70 74 75 82 95 105 100 93 92 85 86 82 76 74 70 75 82 85 86 73 71 69 65 57 63 58 46 43
65 68 44 44 28 25 30 33 45 37 29 28 34 40 43 49 58 71 76 77 86 99 106 105 97 94 91 91 81 82 79 79 75 80 87 85 79 79 73 73 71 69 66 59 55
67 67 42 43 31 30 43 43 49 32 24 23 29 36 40 46 53 68 73 81 89 88 104 109 100 91 92 89 88 86 82 79 79 77 79 82 84 78 78 79 77 76 72 66 61
60 62 44 38 29 35 39 42 46 30 20 19 30 34 38 42 53 64 75 76 82 87 97 110 107 102 96 92 91 90 87 88 85 75 77 79 79 82 86 90 84 82 76 72 69
61 52 41 35 26 32 40 43 48 32 19 15 28 30 38 46 50 60 71 79 85 88 95 106 106 102 97 94 91 88 89 88 84 85 85 83 79 82 91 89 86 83 78 74 71
53 46 40 31 26 35 38 44 48 33 24 13 22 30 37 43 53 60 61 72 82 86 92 99 110 109 104 105 100 98 94 92 90 89 86 93 85 79 81 80 84 86 84 80 76
47 38 35 31 27 36 36 43 47 33 26 16 11 26 34 42 51 56 61 73 79 82 89 97 108 113 109 106 100 96 96 97 93 90 98 100 90 83 78 75 73 74 78 80 76
40 32 28 26 34 33 38 42 47 36 25 19 12 16 28 39 47 51 59 68 74 82 84 89 104 111 110 105 102 99 99 96 95 96 105 97 93 87 81 76 75 74 73 73 73
31 26 24 27 33 33 39 42 45 39 24 22 15 11 20 30 41 50 59 66 69 72 82 86 94 104 110 112 109 107 102 100 99 102 110 97 94 90 86 84 82 81 78 76 74

GFSSW_250_spd_105.txt.gz
Wind_Speed
36 38 39 41 42 45 48 50 51 51 54 56 54 53 51 49 46 46 43 42 48 46 42 42 43 40 35 30 28 29 23 13 18 19 14 15 9 10 9 7 10 19 23 27 34
31 31 33 36 40 43 43 47 50 51 53 55 56 56 54 54 51 48 49 45 47 51 47 44 44 43 39 34 29 31 20 15 24 20 16 13 11 9 8 8 10 12 19 32 32
32 35 37 38 35 38 42 42 47 51 52 53 56 58 58 57 56 55 51 52 46 51 52 48 45 45 44 40 35 32 23 18 16 22 25 13 12 7 7 5 7 11 14 25 26
35 38 38 41 43 40 38 41 43 47 51 54 55 58 58 58 60 59 57 55 53 48 56 54 50 48 48 44 40 37 31 16 19 23 15 15 13 11 9 5 9 13 18 26 28
37 41 43 44 44 44 43 39 43 46 47 52 55 59 60 61 62 62 62 60 57 54 53 58 54 50 49 49 45 43 46 27 19 22 17 18 16 10 10 9 9 10 17 24 26
42 43 43 44 43 46 45 44 41 43 48 49 52 57 61 62 67 65 65 65 61 58 55 57 60 55 50 50 50 45 46 19 37 26 21 19 16 13 14 11 10 4 17 27 21
42 42 45 34 34 41 45 46 47 43 46 46 48 51 57 64 67 68 68 67 66 62 60 56 61 60 54 52 54 50 50 48 39 30 27 21 16 15 17 11 12 8 20 18 20
43 46 43 34 27 31 40 47 50 48 43 46 48 49 54 62 66 70 70 69 69 66 64 61 56 63 62 56 53 52 50 47 38 37 29 23 16 14 19 16 16 11 15 17 21
43 49 47 41 26 25 30 39 48 52 49 44 48 48 51 58 62 70 72 72 72 70 66 65 61 63 65 60 55 53 53 52 44 39 32 23 17 16 21 15 24 24 19 17 21
43 46 52 43 31 21 24 29 39 47 53 49 47 51 50 49 57 66 74 75 74 74 71 67 67 60 65 62 58 57 57 53 47 40 36 26 19 19 24 24 30 27 27 12 16
44 47 50 47 37 21 19 24 30 40 50 51 52 50 54 51 52 63 69 77 77 75 74 74 69 64 62 70 67 62 60 56 47 43 40 31 24 27 30 25 27 26 25 21 14
49 47 52 44 38 31 19 17 24 35 41 50 50 51 54 54 54 53 64 73 79 78 79 74 71 70 67 70 72 65 60 53 43 44 42 37 31 28 30 29 31 28 27 23 18
49 47 50 44 37 33 26 19 20 27 34 41 46 51 54 54 54 51 55 69 77 82 79 77 79 76 72 69 71 69 63 58 51 42 37 45 39 35 33 33 34 29 31 30 28
52 47 52 51 39 33 28 23 22 27 29 35 42 46 48 55 57 55 52 62 73 81 82 81 82 77 75 71 65 72 71 60 59 56 48 47 46 37 31 30 30 21 30 29 30
53 51 51 52 41 32 28 26 24 30 33 38 42 45 50 53 55 56 54 55 67 79 84 85 83 80 77 74 69 69 74 72 65 63 52 55 48 42 40 35 29 21 27 34 32
55 53 53 51 41 31 30 26 27 30 35 41 45 50 53 55 57 58 59 57 63 75 84 89 87 83 79 79 74 75 77 73 71 68 67 58 48 48 42 38 14 28 19 33 30
62 57 53 44 38 30 31 27 30 32 36 39 49 54 59 62 63 60 63 59 61 67 82 90 87 85 83 81 79 78 70 76 76 71 58 63 56 51 48 42 19 24 30 30 30
61 54 48 43 36 29 30 23 27 34 38 43 47 54 62 67 65 64 68 65 65 67 79 92 95 88 84 79 84 82 75 72 77 77 75 68 53 49 51 54 36 27 30 39 44
59 51 52 40 34 26 30 22 23 30 37 41 52 59 68 69 69 64 70 71 73 76 77 88 95 99 90 87 90 84 81 75 79 84 87 82 72 66 59 60 57 55 38 33 42
60 52 48 33 29 25 23 20 26 33 38 42 40 52 55 61 67 72 81 76 79 77 78 84 97 98 94 98 89 89 84 81 77 79 85 78 77 73 70 70 72 68 57 42 48
60 47 39 28 24 24 19 23 29 38 43 34 33 31 40 53 59 73 82 84 80 75 80 77 91 102 100 97 91 90 86 84 80 78 84 85 82 77 76 76 76 79 77 78 58
59 48 32 24 21 21 22 25 30 33 38 26 24 25 32 45 52 64 75 83 86 81 82 76 76 96 99 95 93 91 90 90 87 83 86 85 84 82 83 82 80 76 77 73 63
51 37 25 22 17 20 21 30 30 36 42 27 15 16 26 41 51 54 57 64 74 79 81 81 86 92 105 105 99 94 93 94 92 94 94 87 88 91 91 91 88 87 85 82 76
37 28 22 18 17 16 26 28 34 38 41 29 20 9 22 34 38 43 47 57 63 76 84 88 88 94 99 107 103 96 92 92 95 95 97 90 87 96 100 98 95 92 88 83 79
27 25 18 15 14 18 28 28 38 39 40 31 20 15 17 30 33 41 46 53 60 68 78 84 88 91 99 106 106 101 95 95 99 98 100 91 88 91 98 100 96 94 90 86 82
27 18 16 16 13 25 29 29 35 39 40 37 22 13 14 18 28 34 41 51 57 66 74 81 87 92 95 96 102 104 100 99 101 105 104 94 93 90 90 91 97 97 91 89 87
24 12 14 13 19 22 28 31 37 36 38 35 25 19 11 14 30 39 45 49 53 61 70 79 87 91 91 93 103 104 102 103 103 108 101 95 97 97 93 89 85 87 90 96 93

GFSSW_250_spd_108.txt.gz
Wind_Speed
19 19 22 27 36 40 44 48 52 54 57 57 61 58 55 54 49 45 43 41 44 48 44 43 40 36 33 31 32 32 20 4 10 16 10 6 7 4 4 11 13 11 28 29 35
27 22 24 22 25 33 39 45 50 53 57 60 61 63 59 59 55 50 48 45 43 50 49 46 43 40 36 34 35 35 25 20 13 17 13 9 7 4 8 4 6 11 23 29 32
28 31 29 30 30 29 35 40 46 51 55 59 61 62 64 63 62 58 54 50 48 46 52 48 46 45 41 39 37 36 32 22 16 17 13 16 6 4 3 4 4 12 19 27 31
34 35 34 37 35 36 33 39 42 50 53 56 60 62 66 65 64 63 59 56 51 50 49 55 52 49 46 44 41 37 31 20 26 14 24 17 11 8 8 8 9 7 10 20 25
31 32 34 35 37 39 39 41 43 45 54 56 58 61 63 66 68 66 65 62 58 54 51 52 56 52 49 47 43 37 36 20 17 19 23 17 14 11 10 9 11 4 8 19 22
31 32 34 33 37 40 42 39 45 46 49 57 58 59 62 66 68 68 69 68 63 59 56 54 57 56 49 47 46 43 39 36 20 21 23 18 16 15 11 14 9 10 6 14 21
35 36 33 31 36 37 39 38 43 45 49 54 59 60 62 65 69 67 68 70 69 65 63 60 54 58 54 51 47 47 45 43 28 24 24 23 18 14 15 15 10 10 9 10 16
41 37 32 32 36 34 31 32 39 44 47 52 59 60 61 66 69 68 71 72 71 70 67 63 60 54 61 54 50 51 49 49 41 27 34 27 24 16 17 20 15 15 12 11 13
46 41 35 33 34 35 27 27 35 44 48 52 55 60 62 64 65 68 72 72 71 72 71 67 63 59 61 60 55 53 55 52 53 33 31 31 24 19 17 21 21 17 17 6 13
58 39 35 34 34 38 31 23 29 40 48 53 55 56 61 62 64 64 70 74 74 74 72 69 67 66 60 63 64 59 58 57 52 39 41 35 27 23 17 21 20 17 18 12 11
61 55 38 37 41 40 37 24 26 35 43 51 55 55 57 60 64 65 68 71 76 75 75 72 71 69 68 64 68 66 57 58 49 48 37 38 32 25 22 26 22 30 25 22 16
67 59 51 39 37 38 37 28 22 28 39 48 51 57 58 57 61 64 64 71 75 79 77 76 75 74 70 68 65 68 60 57 56 56 50 43 38 31 25 29 26 27 22 25 21
72 72 76 46 36 36 32 27 20 25 34 41 43 51 58 58 58 62 61 64 71 77 80 78 82 77 74 73 68 68 66 62 60 56 53 51 45 38 30 33 28 30 28 29 25
80 75 74 47 37 33 27 25 20 22 30 38 44 48 55 60 61 62 62 62 63 75 80 84 82 80 78 74 72 65 73 69 65 61 54 51 48 45 35 33 31 31 33 28 22
77 74 63 47 36 32 25 20 18 20 26 33 42 49 53 56 55 59 61 62 61 69 76 87 84 83 81 80 75 74 71 75 69 63 62 54 52 51 41 37 37 42 36 26 23
77 73 65 46 31 30 24 20 20 20 26 32 34 42 50 54 57 57 59 59 61 61 71 80 84 84 85 85 80 77 71 74 74 68 63 60 53 53 48 39 37 36 35 20 22
79 71 61 40 28 30 20 20 19 22 27 36 40 42 43 49 56 59 61 62 60 60 61 80 84 86 86 86 86 79 75 70 76 74 71 64 53 51 53 45 40 31 37 29 27
85 71 52 37 27 26 19 20 18 23 28 32 38 43 48 48 53 61 63 65 66 66 65 73 81 88 88 86 88 83 79 74 71 79 77 67 58 57 49 47 48 41 29 32 32
85 72 42 34 25 22 18 19 18 21 24 25 31 39 46 54 57 59 64 68 71 72 67 68 74 87 92 91 90 88 83 79 75 77 79 73 68 66 59 53 46 46 42 40 40
82 58 36 25 19 19 17 16 18 20 20 27 30 38 48 55 59 62 71 71 71 70 67 65 68 79 89 94 97 95 87 86 81 77 79 79 73 70 65 55 50 41 41 41 38
75 46 30 17 15 16 16 17 20 25 29 30 35 43 51 63 66 67 73 74 74 73 70 65 67 73 84 91 95 93 91 89 85 83 78 81 82 77 77 66 60 53 50 51 48
69 39 18 14 13 14 15 16 17 19 21 28 35 39 41 56 69 71 73 76 76 76 73 72 74 76 74 88 96 96 95 94 91 87 83 82 84 83 80 74 72 68 57 59 59
49 31 14 14 13 13 15 15 17 20 22 27 32 25 30 39 52 62 68 78 78 80 77 79 79 77 76 84 94 98 99 95 95 94 89 85 88 83 79 73 75 79 71 73 65
42 26 17 13 13 14 15 13 17 21 26 30 30 19 16 29 43 51 59 71 83 84 82 84 83 79 80 80 84 101 101 98 99 98 94 90 86 86 90 89 84 79 78 85 80
33 26 19 11 9 13 13 15 18 22 27 34 33 30 17 15 31 38 46 57 69 81 82 84 81 83 85 84 81 88 101 102 101 101 99 94 87 96 94 93 92 86 87 89 85
31 26 18 7 8 14 12 17 22 23 32 33 36 39 18 16 21 32 37 43 55 65 73 83 84 86 86 85 82 81 96 103 107 105 101 99 93 92 97 99 99 96 91 92 92
29 15 7 6 15 15 16 23 23 31 32 37 36 33 24 14 16 28 36 43 47 50 63 75 88 94 88 85 89 88 89 106 112 107 104 100 97 95 94 98 103 103 98 94 95

GFSSW_250_spd_111.txt.gz
Wind_Speed
19 18 19 17 21 29 38 43 49 53 55 60 63 64 62 57 52 49 46 46 49 49 46 43 39 36 33 30 29 21 26 11 17 14 5 7 9 5 5 12 16 21 32 35 37
28 26 24 23 23 20 25 36 44 50 54 57 63 67 66 63 57 52 51 49 49 53 49 47 42 39 38 33 32 33 33 20 17 15 13 10 8 6 5 9 10 15 27 30 33
27 28 33 33 30 29 29 26 37 46 52 56 60 68 69 68 63 63 56 53 52 53 51 50 48 45 44 38 40 43 33 21 17 14 17 12 9 6 3 7 7 12 16 25 29
30 31 33 35 36 34 33 34 33 41 50 56 59 64 71 71 70 67 63 58 55 54 51 54 52 49 48 41 41 44 39 28 18 16 17 12 8 6 1 8 13 10 11 18 27
34 31 30 36 38 38 37 38 37 36 48 55 60 63 68 75 74 72 68 66 60 56 54 55 55 52 50 44 41 43 40 34 29 24 17 19 14 12 10 12 10 10 11 15 22
41 32 30 30 31 40 38 43 44 38 39 55 61 63 66 70 77 76 73 71 67 61 58 58 59 54 50 47 44 43 40 34 26 24 20 20 19 14 12 11 11 6 9 13 20
50 38 37 32 30 28 39 39 43 47 46 50 64 66 66 68 75 78 78 74 71 68 65 59 56 53 54 51 47 48 45 39 29 27 24 26 22 14 17 12 12 11 6 11 17
56 52 43 38 36 27 32 37 42 44 48 51 66 67 67 71 74 78 80 80 76 73 69 64 58 53 55 56 52 51 51 44 39 31 31 28 22 17 16 16 14 11 7 10 13
63 59 56 49 39 31 33 31 35 39 43 51 64 67 69 72 70 75 79 81 80 76 70 67 64 58 56 60 59 54 53 50 49 37 36 31 26 22 20 16 18 16 9 12 11
65 63 58 48 42 39 32 32 30 30 38 49 61 68 70 71 70 72 76 80 82 80 73 72 69 65 61 61 65 60 55 54 51 48 40 30 32 26 22 22 17 20 14 17 11
65 67 62 59 44 43 30 31 29 28 32 46 58 65 65 71 73 74 74 77 78 79 76 74 73 72 70 67 63 65 57 55 56 55 48 36 36 33 28 22 18 21 17 18 17
73 75 74 64 58 51 28 28 28 27 27 39 55 62 66 71 74 73 73 74 79 81 78 76 78 81 75 69 65 63 62 58 59 59 55 49 33 38 33 27 23 26 22 20 20
77 79 73 78 61 49 27 27 25 27 24 34 47 60 66 68 72 72 73 75 78 80 80 80 85 80 78 75 67 63 67 65 61 61 61 57 47 46 38 29 27 26 23 24 18
81 86 84 76 57 42 28 28 26 26 25 32 43 55 65 67 70 71 72 74 74 77 81 85 82 81 80 78 74 70 68 71 66 61 62 59 53 48 42 31 31 29 28 26 21
84 85 80 76 54 36 28 26 28 28 27 30 39 49 60 63 67 68 69 72 74 73 77 84 84 82 81 83 79 77 71 71 72 65 62 62 61 44 41 34 33 34 29 36 29
92 90 79 78 47 29 23 26 27 29 24 29 36 44 53 62 66 67 67 71 73 72 71 79 83 83 85 86 82 78 71 70 73 73 67 64 63 65 50 44 37 37 33 33 29
92 84 90 67 36 22 22 23 25 26 26 25 36 39 46 56 59 64 68 68 67 68 69 77 79 85 88 88 85 81 74 73 73 76 76 69 64 59 57 50 43 45 45 44 25
90 88 87 51 28 22 23 22 24 24 28 27 35 39 40 46 55 60 65 67 67 70 74 71 75 84 88 90 89 86 80 76 74 76 81 73 67 62 55 56 52 47 50 48 42
97 90 67 40 23 20 20 21 23 25 27 28 37 41 39 39 45 58 63 65 66 67 71 73 71 76 84 90 92 88 83 81 77 77 76 76 74 65 59 58 58 48 49 45 43
101 78 53 32 18 14 17 19 19 25 27 26 32 36 42 45 44 48 54 63 66 65 66 68 70 73 80 90 91 91 88 84 81 80 75 76 79 71 64 59 60 56 47 45 36
89 64 39 26 13 10 15 16 18 24 24 26 27 29 31 34 43 51 55 58 63 67 69 69 70 72 76 85 90 94 92 90 87 86 81 79 79 77 70 63 60 57 54 48 40
80 51 28 17 13 10 15 15 19 24 24 24 27 28 31 33 41 49 53 64 67 66 70 73 73 73 75 79 87 94 95 91 91 90 86 81 79 80 76 69 63 63 55 55 52
67 40 21 15 18 11 15 17 19 23 23 21 27 27 35 41 50 56 61 67 71 71 72 74 75 79 80 76 81 89 94 94 93 92 88 84 81 80 80 75 68 67 56 56 56
49 33 21 18 13 13 16 17 18 19 19 18 27 28 29 38 45 50 62 68 71 74 75 74 78 81 82 79 75 85 91 97 95 96 91 88 85 81 84 82 77 70 64 62 54
46 27 18 11 9 15 16 15 15 20 18 22 27 29 31 29 35 43 55 62 71 74 76 79 83 85 84 81 80 79 91 95 98 98 96 93 89 86 83 86 84 75 72 69 64
41 18 8 5 9 11 12 14 18 20 24 22 23 28 34 28 24 28 41 53 65 75 82 81 85 87 85 85 82 83 85 93 96 102 99 96 92 87 85 84 88 84 79 72 74
34 13 4 8 10 12 15 19 23 26 27 25 31 34 33 32 27 19 26 41 52 61 78 85 86 89 88 87 87 85 87 87 98 103 102 100 98 93 91 88 90 94 93 84 81

GFSSW_250_spd_114.txt.gz
Wind_Speed
23 22 24 25 25 24 27 37 44 50 54 59 62 62 62 59 55 52 50 49 48 49 45 43 39 36 30 27 25 20 20 12 11 1 10 10 6 4 10 12 15 20 25 34 35
27 23 23 27 31 28 27 24 31 42 50 55 61 63 65 64 60 56 55 53 52 52 49 46 45 41 36 33 32 30 29 23 14 13 15 12 9 7 6 8 12 18 23 30 35
35 40 33 28 27 33 36 34 30 32 43 51 56 63 66 67 65 62 58 57 54 54 52 51 49 48 43 37 37 34 36 24 18 15 16 17 14 5 3 5 8 15 19 26 33
40 37 35 28 29 31 31 40 40 36 34 42 53 58 65 69 68 68 64 60 58 58 54 55 54 50 45 39 39 40 37 28 22 18 12 14 11 7 4 4 6 12 16 23 28
43 45 38 33 25 21 28 32 40 41 41 40 44 55 61 68 72 71 70 66 63 61 59 57 57 52 47 42 43 42 42 33 23 23 17 14 11 8 9 5 4 9 12 19 23
44 45 41 38 31 34 26 28 36 42 45 46 44 47 60 65 71 74 73 72 69 65 62 60 58 54 51 47 43 47 45 43 33 25 17 14 12 12 11 8 5 7 10 14 18
48 50 41 38 37 32 26 28 33 41 48 49 48 46 52 62 70 75 77 75 73 70 65 61 57 54 55 52 49 47 50 44 34 31 22 21 24 27 17 12 7 8 7 10 13
51 55 52 44 41 38 33 25 36 38 43 50 51 49 49 65 71 75 78 79 77 75 70 65 60 55 54 57 53 50 51 49 37 33 31 31 26 27 23 15 14 10 6 6 11
58 61 60 58 43 43 32 34 31 41 44 46 51 53 56 60 66 72 78 79 80 77 75 71 66 58 58 57 57 54 53 53 43 38 36 32 31 28 23 16 14 12 7 5 8
66 67 66 56 54 42 38 34 33 39 44 43 45 52 57 60 66 71 75 79 81 82 79 76 71 67 62 59 59 59 54 53 51 44 39 36 33 28 24 20 16 13 14 8 7
66 70 69 60 60 46 45 42 34 35 42 46 42 43 54 63 70 75 77 78 80 83 81 80 77 74 69 64 60 58 58 54 55 51 44 40 39 34 25 24 20 15 18 13 10
71 76 74 72 72 64 59 44 35 35 41 41 39 40 52 63 72 79 77 78 78 81 85 84 83 78 73 68 63 59 58 59 55 56 53 46 42 39 33 30 23 17 16 19 15
76 80 81 82 78 70 54 35 31 34 38 38 39 41 49 62 73 80 80 79 80 80 84 87 88 83 76 72 67 64 60 60 59 57 59 56 49 43 35 35 25 21 22 21 15
81 85 88 84 78 66 44 28 28 32 36 36 37 38 47 59 72 76 77 77 78 79 82 87 89 86 82 76 73 70 67 59 61 59 61 61 56 51 44 38 29 26 26 24 17
85 88 96 87 76 54 32 23 27 31 34 33 35 36 45 56 68 74 74 76 76 78 80 85 88 86 84 81 78 75 70 65 61 64 60 63 62 58 48 41 34 30 31 27 21
89 95 91 82 66 39 21 21 24 28 29 31 33 34 41 54 66 70 73 75 75 74 79 80 83 84 88 86 85 80 73 69 65 64 65 64 64 62 53 41 40 36 36 30 25
92 99 91 83 51 30 18 21 22 25 30 32 35 34 39 49 60 68 71 72 72 71 76 80 78 85 88 87 86 83 79 75 70 65 71 70 64 62 60 56 47 43 38 36 30
97 103 89 72 40 24 17 22 23 26 30 34 37 32 37 42 54 64 68 69 71 71 71 76 77 83 87 88 88 88 84 80 76 73 74 76 68 64 59 56 52 47 39 39 39
101 100 78 54 34 20 13 20 24 27 30 34 36 32 36 40 46 57 64 67 69 70 68 70 77 79 83 88 89 89 85 84 82 79 75 69 74 69 61 60 57 46 43 43 40
97 91 64 43 27 14 11 19 23 26 29 31 35 34 37 42 42 49 59 65 69 71 72 70 73 77 80 86 89 92 90 86 84 80 78 73 73 75 70 64 61 57 55 48 50
100 88 53 33 20 8 9 14 19 22 26 30 33 32 37 40 41 42 50 59 65 70 72 71 70 75 78 82 85 92 92 89 88 84 82 78 74 74 76 71 63 56 58 57 53
98 77 46 24 14 6 10 14 20 21 24 27 30 31 35 42 42 44 46 48 57 63 71 72 74 75 79 81 84 86 91 91 89 86 86 82 79 75 75 76 70 65 61 62 59
99 63 40 20 11 8 10 14 19 21 24 28 27 29 33 37 40 42 46 49 53 57 62 70 76 79 81 83 85 83 85 90 91 89 88 84 83 81 76 77 78 72 66 66 64
93 54 34 20 13 11 13 15 18 20 24 26 26 28 30 33 33 38 38 40 47 55 59 64 70 81 83 83 84 85 85 85 89 90 90 87 87 84 82 77 79 80 74 70 69
90 45 27 15 13 10 14 15 15 19 23 27 29 32 34 37 39 36 40 44 52 59 62 64 71 77 85 85 85 84 84 85 87 91 94 90 90 89 86 82 78 82 81 75 69
81 39 24 15 8 6 10 13 16 20 22 26 30 32 35 42 42 41 45 51 59 65 69 71 75 82 82 84 85 85 82 81 85 88 94 93 92 93 87 86 84 81 82 79 74
72 33 21 16 14 13 15 17 19 24 26 31 35 36 39 39 45 47 50 52 55 58 67 77 80 84 84 83 85 86 83 84 84 86 90 94 96 96 90 91 90 85 80 83 78

GFSSW_250_spd_117.txt.gz
Wind_Speed
32 32 29 21 20 26 29 29 36 47 50 55 62 63 61 59 56 53 51 48 48 49 47 43 39 34 29 24 21 16 9 8 3 3 3 5 7 13 12 15 22 27 33 37 39
30 32 32 28 23 21 26 34 33 35 45 52 56 63 66 63 60 57 54 52 51 52 49 47 45 40 33 28 25 23 21 16 11 12 8 6 6 9 10 11 19 24 28 34 37
30 31 30 29 28 27 26 27 38 39 38 45 54 59 65 67 65 62 59 56 55 53 52 51 49 44 37 33 32 29 21 28 26 16 11 13 9 9 7 7 15 18 23 29 34
29 30 33 32 29 28 27 27 31 42 46 44 45 57 63 65 69 67 64 60 58 56 56 54 53 47 42 37 35 37 34 24 28 23 17 14 10 9 5 9 8 15 18 24 29
31 35 36 36 39 32 25 28 31 34 46 49 46 46 57 63 68 71 69 67 62 60 58 57 55 51 47 41 40 41 39 30 25 26 20 15 9 10 5 7 8 9 15 20 24
36 40 39 43 42 39 31 29 32 34 38 50 51 49 47 59 65 70 73 70 67 64 61 59 58 55 51 48 44 45 46 45 32 29 22 16 11 11 9 8 6 3 9 14 21
40 42 45 46 45 39 36 36 34 38 37 45 53 56 51 51 63 69 72 74 71 68 64 60 59 57 55 53 47 49 51 46 48 28 21 18 10 11 16 6 4 2 3 7 15
43 44 49 50 52 47 41 39 35 37 42 42 50 57 58 57 56 64 69 73 75 72 69 64 61 59 57 56 53 50 52 50 45 34 27 26 28 23 27 11 8 3 3 3 8
46 51 54 54 60 55 63 53 44 34 36 47 48 51 61 62 59 57 65 70 75 76 72 70 66 62 59 58 57 54 54 52 42 42 28 36 30 23 24 18 15 11 7 3 6
51 56 59 62 63 70 70 54 41 38 40 40 52 53 55 60 61 58 59 68 73 77 77 75 73 68 64 60 59 57 55 54 54 42 39 39 33 28 28 24 19 15 12 6 4
54 60 65 66 74 79 72 56 49 42 41 41 49 58 59 58 63 65 61 65 71 76 79 79 78 78 72 65 60 56 57 56 55 52 45 43 41 37 32 28 22 18 10 9 1
59 65 70 72 82 86 74 60 54 40 41 43 47 55 62 62 59 63 65 66 72 76 81 82 83 79 75 70 64 60 57 58 56 55 50 45 40 39 36 32 27 24 15 12 6
65 70 76 82 89 91 77 62 39 33 39 42 48 52 60 64 62 62 67 70 73 78 82 85 86 82 79 75 69 64 59 57 59 56 54 51 46 42 39 36 32 29 21 13 10
70 76 81 89 95 91 77 45 28 29 37 41 45 46 53 61 61 60 68 72 72 78 82 86 86 84 81 79 75 71 66 59 58 60 58 59 52 47 42 39 35 31 23 19 13
73 82 87 93 97 90 57 32 21 26 34 38 39 42 45 52 54 56 67 73 75 77 81 83 87 86 84 83 81 78 71 66 59 59 61 58 57 50 49 43 39 34 29 25 18
77 84 90 98 98 72 42 24 18 26 33 34 37 40 42 45 47 49 63 73 77 77 79 82 84 85 86 86 84 80 75 71 65 60 61 63 60 61 53 46 44 35 37 30 22
80 87 94 99 88 52 33 19 18 26 32 34 36 39 40 41 40 46 58 70 76 79 80 80 81 83 86 87 86 83 80 74 70 64 62 65 63 61 62 55 51 42 43 34 26
81 89 97 97 66 40 26 15 17 25 30 32 35 39 38 38 37 43 53 65 72 77 79 78 81 84 86 88 90 89 85 79 75 71 71 68 67 64 61 63 58 48 47 37 34
82 91 99 86 50 31 20 14 18 25 29 31 34 38 39 38 35 41 51 60 67 74 77 76 76 80 82 86 90 90 87 84 81 76 74 68 66 68 65 62 64 57 49 41 40
83 91 100 72 42 23 16 10 17 23 26 30 33 36 39 38 34 38 46 58 67 72 75 77 77 80 81 82 88 90 91 88 84 81 77 72 69 72 71 67 62 61 60 54 46
85 92 98 61 35 16 9 6 14 20 24 27 30 34 37 36 31 36 40 50 65 72 74 75 78 78 79 83 83 88 90 90 88 86 83 78 75 74 74 72 68 60 58 58 53
86 93 96 53 30 15 8 7 9 17 21 25 29 32 35 37 33 38 37 44 55 67 74 76 77 79 80 80 83 84 88 91 90 87 86 84 80 79 75 74 72 68 61 57 59
86 92 89 46 27 16 10 5 9 15 19 22 26 30 33 35 32 36 42 41 46 55 68 75 78 80 83 82 84 83 83 86 90 90 87 87 84 84 80 77 74 74 70 65 64
86 91 81 39 24 15 9 5 6 12 16 20 25 29 31 33 34 36 43 44 44 48 54 64 75 79 82 84 84 84 82 82 87 89 88 88 87 88 85 81 77 76 78 73 72
84 89 76 37 24 15 8 7 10 12 14 16 20 25 29 30 35 37 42 48 50 50 53 57 64 74 80 81 82 84 83 83 84 86 89 90 89 89 90 86 82 80 78 79 78
82 89 71 32 25 16 11 9 12 14 19 22 25 26 29 31 30 35 38 42 45 52 54 56 61 67 72 79 83 83 83 84 84 83 85 91 93 93 94 90 87 86 83 80 82
81 87 64 33 22 16 14 12 16 21 22 24 27 29 32 33 37 40 44 47 47 46 53 55 58 61 66 72 77 83 84 84 83 84 85 87 91 94 96 95 92 90 87 85 83